<?xml version="1.0" encoding="UTF-8" standalone="no" ?>
<gpx xmlns="http://www.topografix.com/GPX/1/1" xmlns:xsi="http://www.w3.org/2001/XMLSchema-instance" xsi:schemaLocation="http://www.topografix.com/GPX/1/1 http://www.topografix.com/GPX/1/1/gpx.xsd" version="1.1" creator="VisuGPX - https://www.visugpx.com">
  <metadata>
    <name>Peyre Martine par la draille du cable</name>
    <desc><![CDATA[Itinéraire en aller retour]]></desc>
  </metadata>
  <trk>
    <name><![CDATA[07-SEP-14 14:31:05]]></name>
    <trkseg>
      <trkpt lat="43.80196" lon="3.57954">
        <ele>292.86</ele>
        <time>2014-09-07T07:22:57Z</time>
      </trkpt>
      <trkpt lat="43.80189" lon="3.57946">
        <ele>295.26</ele>
        <time>2014-09-07T07:23:09Z</time>
      </trkpt>
      <trkpt lat="43.80187" lon="3.57944">
        <ele>295.74</ele>
        <time>2014-09-07T07:23:16Z</time>
      </trkpt>
      <trkpt lat="43.80185" lon="3.57942">
        <ele>295.74</ele>
        <time>2014-09-07T07:23:19Z</time>
      </trkpt>
      <trkpt lat="43.8018" lon="3.57938">
        <ele>295.26</ele>
        <time>2014-09-07T07:23:25Z</time>
      </trkpt>
      <trkpt lat="43.80175" lon="3.57933">
        <ele>296.22</ele>
        <time>2014-09-07T07:23:31Z</time>
      </trkpt>
      <trkpt lat="43.80175" lon="3.57923">
        <ele>294.3</ele>
        <time>2014-09-07T07:23:42Z</time>
      </trkpt>
      <trkpt lat="43.80173" lon="3.57916">
        <ele>292.38</ele>
        <time>2014-09-07T07:23:51Z</time>
      </trkpt>
      <trkpt lat="43.80175" lon="3.57906">
        <ele>292.38</ele>
        <time>2014-09-07T07:24:01Z</time>
      </trkpt>
      <trkpt lat="43.80176" lon="3.57898">
        <ele>292.86</ele>
        <time>2014-09-07T07:24:15Z</time>
      </trkpt>
      <trkpt lat="43.80171" lon="3.57892">
        <ele>292.86</ele>
        <time>2014-09-07T07:24:25Z</time>
      </trkpt>
      <trkpt lat="43.80162" lon="3.57877">
        <ele>292.86</ele>
        <time>2014-09-07T07:24:39Z</time>
      </trkpt>
      <trkpt lat="43.80159" lon="3.57867">
        <ele>292.38</ele>
        <time>2014-09-07T07:24:53Z</time>
      </trkpt>
      <trkpt lat="43.80156" lon="3.57854">
        <ele>291.42</ele>
        <time>2014-09-07T07:25:05Z</time>
      </trkpt>
      <trkpt lat="43.80151" lon="3.57843">
        <ele>290.94</ele>
        <time>2014-09-07T07:25:17Z</time>
      </trkpt>
      <trkpt lat="43.80146" lon="3.5783">
        <ele>289.01</ele>
        <time>2014-09-07T07:25:29Z</time>
      </trkpt>
      <trkpt lat="43.80139" lon="3.5782">
        <ele>288.05</ele>
        <time>2014-09-07T07:25:42Z</time>
      </trkpt>
      <trkpt lat="43.80132" lon="3.57813">
        <ele>287.57</ele>
        <time>2014-09-07T07:25:56Z</time>
      </trkpt>
      <trkpt lat="43.80126" lon="3.57807">
        <ele>286.61</ele>
        <time>2014-09-07T07:26:07Z</time>
      </trkpt>
      <trkpt lat="43.80126" lon="3.57797">
        <ele>285.65</ele>
        <time>2014-09-07T07:26:19Z</time>
      </trkpt>
      <trkpt lat="43.80122" lon="3.57784">
        <ele>285.65</ele>
        <time>2014-09-07T07:26:31Z</time>
      </trkpt>
      <trkpt lat="43.80122" lon="3.57773">
        <ele>283.73</ele>
        <time>2014-09-07T07:26:44Z</time>
      </trkpt>
      <trkpt lat="43.80117" lon="3.57759">
        <ele>285.17</ele>
        <time>2014-09-07T07:26:57Z</time>
      </trkpt>
      <trkpt lat="43.80112" lon="3.57752">
        <ele>283.25</ele>
        <time>2014-09-07T07:27:09Z</time>
      </trkpt>
      <trkpt lat="43.80109" lon="3.57742">
        <ele>279.88</ele>
        <time>2014-09-07T07:27:20Z</time>
      </trkpt>
      <trkpt lat="43.80111" lon="3.57733">
        <ele>277.96</ele>
        <time>2014-09-07T07:27:31Z</time>
      </trkpt>
      <trkpt lat="43.80119" lon="3.57723">
        <ele>273.15</ele>
        <time>2014-09-07T07:27:43Z</time>
      </trkpt>
      <trkpt lat="43.80123" lon="3.57708">
        <ele>269.79</ele>
        <time>2014-09-07T07:27:56Z</time>
      </trkpt>
      <trkpt lat="43.80123" lon="3.57698">
        <ele>270.27</ele>
        <time>2014-09-07T07:28:06Z</time>
      </trkpt>
      <trkpt lat="43.8013" lon="3.57692">
        <ele>266.9</ele>
        <time>2014-09-07T07:28:17Z</time>
      </trkpt>
      <trkpt lat="43.80133" lon="3.57677">
        <ele>265.94</ele>
        <time>2014-09-07T07:28:31Z</time>
      </trkpt>
      <trkpt lat="43.80133" lon="3.57661">
        <ele>264.98</ele>
        <time>2014-09-07T07:28:44Z</time>
      </trkpt>
      <trkpt lat="43.80138" lon="3.57647">
        <ele>261.14</ele>
        <time>2014-09-07T07:28:58Z</time>
      </trkpt>
      <trkpt lat="43.80139" lon="3.57633">
        <ele>256.81</ele>
        <time>2014-09-07T07:29:12Z</time>
      </trkpt>
      <trkpt lat="43.80136" lon="3.57622">
        <ele>263.06</ele>
        <time>2014-09-07T07:29:24Z</time>
      </trkpt>
      <trkpt lat="43.80132" lon="3.57619">
        <ele>268.35</ele>
        <time>2014-09-07T07:29:34Z</time>
      </trkpt>
      <trkpt lat="43.80133" lon="3.57611">
        <ele>275.56</ele>
        <time>2014-09-07T07:29:45Z</time>
      </trkpt>
      <trkpt lat="43.8013" lon="3.57603">
        <ele>281.32</ele>
        <time>2014-09-07T07:29:57Z</time>
      </trkpt>
      <trkpt lat="43.80125" lon="3.57593">
        <ele>284.69</ele>
        <time>2014-09-07T07:30:09Z</time>
      </trkpt>
      <trkpt lat="43.80124" lon="3.57584">
        <ele>288.53</ele>
        <time>2014-09-07T07:30:21Z</time>
      </trkpt>
      <trkpt lat="43.80121" lon="3.57574">
        <ele>290.94</ele>
        <time>2014-09-07T07:30:32Z</time>
      </trkpt>
      <trkpt lat="43.80116" lon="3.5756">
        <ele>294.3</ele>
        <time>2014-09-07T07:30:43Z</time>
      </trkpt>
      <trkpt lat="43.80113" lon="3.5755">
        <ele>296.7</ele>
        <time>2014-09-07T07:30:53Z</time>
      </trkpt>
      <trkpt lat="43.80111" lon="3.5754">
        <ele>299.11</ele>
        <time>2014-09-07T07:31:05Z</time>
      </trkpt>
      <trkpt lat="43.8011" lon="3.57531">
        <ele>302.95</ele>
        <time>2014-09-07T07:31:15Z</time>
      </trkpt>
      <trkpt lat="43.80106" lon="3.57522">
        <ele>306.32</ele>
        <time>2014-09-07T07:31:30Z</time>
      </trkpt>
      <trkpt lat="43.80109" lon="3.5752">
        <ele>309.68</ele>
        <time>2014-09-07T07:31:42Z</time>
      </trkpt>
      <trkpt lat="43.80105" lon="3.57511">
        <ele>311.6</ele>
        <time>2014-09-07T07:31:54Z</time>
      </trkpt>
      <trkpt lat="43.801" lon="3.57503">
        <ele>314.49</ele>
        <time>2014-09-07T07:32:05Z</time>
      </trkpt>
      <trkpt lat="43.80097" lon="3.57496">
        <ele>316.41</ele>
        <time>2014-09-07T07:32:16Z</time>
      </trkpt>
      <trkpt lat="43.80089" lon="3.57484">
        <ele>316.89</ele>
        <time>2014-09-07T07:32:30Z</time>
      </trkpt>
      <trkpt lat="43.80088" lon="3.57478">
        <ele>319.3</ele>
        <time>2014-09-07T07:32:41Z</time>
      </trkpt>
      <trkpt lat="43.80085" lon="3.57466">
        <ele>322.66</ele>
        <time>2014-09-07T07:32:53Z</time>
      </trkpt>
      <trkpt lat="43.80078" lon="3.57458">
        <ele>325.06</ele>
        <time>2014-09-07T07:33:04Z</time>
      </trkpt>
      <trkpt lat="43.80075" lon="3.57449">
        <ele>326.99</ele>
        <time>2014-09-07T07:33:14Z</time>
      </trkpt>
      <trkpt lat="43.80072" lon="3.57443">
        <ele>327.95</ele>
        <time>2014-09-07T07:33:23Z</time>
      </trkpt>
      <trkpt lat="43.80071" lon="3.57437">
        <ele>327.95</ele>
        <time>2014-09-07T07:33:32Z</time>
      </trkpt>
      <trkpt lat="43.80062" lon="3.57423">
        <ele>328.43</ele>
        <time>2014-09-07T07:33:45Z</time>
      </trkpt>
      <trkpt lat="43.80057" lon="3.57414">
        <ele>329.39</ele>
        <time>2014-09-07T07:33:58Z</time>
      </trkpt>
      <trkpt lat="43.80052" lon="3.57405">
        <ele>330.35</ele>
        <time>2014-09-07T07:34:11Z</time>
      </trkpt>
      <trkpt lat="43.80048" lon="3.57396">
        <ele>331.31</ele>
        <time>2014-09-07T07:34:19Z</time>
      </trkpt>
      <trkpt lat="43.80041" lon="3.57384">
        <ele>331.79</ele>
        <time>2014-09-07T07:34:32Z</time>
      </trkpt>
      <trkpt lat="43.80038" lon="3.57376">
        <ele>333.23</ele>
        <time>2014-09-07T07:34:45Z</time>
      </trkpt>
      <trkpt lat="43.80035" lon="3.57367">
        <ele>334.68</ele>
        <time>2014-09-07T07:34:56Z</time>
      </trkpt>
      <trkpt lat="43.8004" lon="3.57365">
        <ele>338.04</ele>
        <time>2014-09-07T07:35:06Z</time>
      </trkpt>
      <trkpt lat="43.80043" lon="3.57366">
        <ele>340.44</ele>
        <time>2014-09-07T07:35:16Z</time>
      </trkpt>
      <trkpt lat="43.80047" lon="3.57379">
        <ele>356.31</ele>
        <time>2014-09-07T07:35:26Z</time>
      </trkpt>
      <trkpt lat="43.80051" lon="3.57385">
        <ele>360.63</ele>
        <time>2014-09-07T07:35:38Z</time>
      </trkpt>
      <trkpt lat="43.80059" lon="3.57388">
        <ele>362.55</ele>
        <time>2014-09-07T07:35:50Z</time>
      </trkpt>
      <trkpt lat="43.80063" lon="3.57392">
        <ele>363.04</ele>
        <time>2014-09-07T07:36:03Z</time>
      </trkpt>
      <trkpt lat="43.80066" lon="3.57402">
        <ele>366.88</ele>
        <time>2014-09-07T07:36:12Z</time>
      </trkpt>
      <trkpt lat="43.80071" lon="3.57408">
        <ele>369.76</ele>
        <time>2014-09-07T07:36:21Z</time>
      </trkpt>
      <trkpt lat="43.80076" lon="3.57415">
        <ele>373.13</ele>
        <time>2014-09-07T07:36:31Z</time>
      </trkpt>
      <trkpt lat="43.80079" lon="3.57415">
        <ele>375.05</ele>
        <time>2014-09-07T07:36:41Z</time>
      </trkpt>
      <trkpt lat="43.80077" lon="3.57408">
        <ele>376.49</ele>
        <time>2014-09-07T07:36:51Z</time>
      </trkpt>
      <trkpt lat="43.80077" lon="3.57405">
        <ele>376.97</ele>
        <time>2014-09-07T07:37:03Z</time>
      </trkpt>
      <trkpt lat="43.80081" lon="3.57407">
        <ele>378.42</ele>
        <time>2014-09-07T07:37:15Z</time>
      </trkpt>
      <trkpt lat="43.80086" lon="3.57413">
        <ele>380.34</ele>
        <time>2014-09-07T07:37:24Z</time>
      </trkpt>
      <trkpt lat="43.80088" lon="3.57406">
        <ele>382.26</ele>
        <time>2014-09-07T07:37:35Z</time>
      </trkpt>
      <trkpt lat="43.80084" lon="3.57399">
        <ele>382.74</ele>
        <time>2014-09-07T07:37:45Z</time>
      </trkpt>
      <trkpt lat="43.80079" lon="3.5739">
        <ele>384.66</ele>
        <time>2014-09-07T07:37:57Z</time>
      </trkpt>
      <trkpt lat="43.8008" lon="3.57384">
        <ele>384.66</ele>
        <time>2014-09-07T07:38:11Z</time>
      </trkpt>
      <trkpt lat="43.80087" lon="3.5739">
        <ele>388.99</ele>
        <time>2014-09-07T07:38:20Z</time>
      </trkpt>
      <trkpt lat="43.80094" lon="3.57399">
        <ele>391.87</ele>
        <time>2014-09-07T07:38:32Z</time>
      </trkpt>
      <trkpt lat="43.80095" lon="3.57405">
        <ele>392.36</ele>
        <time>2014-09-07T07:38:41Z</time>
      </trkpt>
      <trkpt lat="43.80102" lon="3.57413">
        <ele>393.8</ele>
        <time>2014-09-07T07:38:51Z</time>
      </trkpt>
      <trkpt lat="43.80105" lon="3.57416">
        <ele>394.28</ele>
        <time>2014-09-07T07:39:02Z</time>
      </trkpt>
      <trkpt lat="43.80104" lon="3.57407">
        <ele>395.24</ele>
        <time>2014-09-07T07:39:14Z</time>
      </trkpt>
      <trkpt lat="43.80106" lon="3.57402">
        <ele>395.72</ele>
        <time>2014-09-07T07:39:27Z</time>
      </trkpt>
      <trkpt lat="43.80105" lon="3.5739">
        <ele>395.72</ele>
        <time>2014-09-07T07:39:40Z</time>
      </trkpt>
      <trkpt lat="43.80101" lon="3.57383">
        <ele>397.16</ele>
        <time>2014-09-07T07:39:53Z</time>
      </trkpt>
      <trkpt lat="43.80107" lon="3.57384">
        <ele>400.53</ele>
        <time>2014-09-07T07:40:04Z</time>
      </trkpt>
      <trkpt lat="43.80114" lon="3.57389">
        <ele>401.97</ele>
        <time>2014-09-07T07:40:15Z</time>
      </trkpt>
      <trkpt lat="43.80119" lon="3.57396">
        <ele>402.45</ele>
        <time>2014-09-07T07:40:24Z</time>
      </trkpt>
      <trkpt lat="43.80123" lon="3.574">
        <ele>403.89</ele>
        <time>2014-09-07T07:40:32Z</time>
      </trkpt>
      <trkpt lat="43.80127" lon="3.5741">
        <ele>404.37</ele>
        <time>2014-09-07T07:40:43Z</time>
      </trkpt>
      <trkpt lat="43.80127" lon="3.57416">
        <ele>405.33</ele>
        <time>2014-09-07T07:40:53Z</time>
      </trkpt>
      <trkpt lat="43.80131" lon="3.57408">
        <ele>404.37</ele>
        <time>2014-09-07T07:41:05Z</time>
      </trkpt>
      <trkpt lat="43.80133" lon="3.57395">
        <ele>403.89</ele>
        <time>2014-09-07T07:41:17Z</time>
      </trkpt>
      <trkpt lat="43.80132" lon="3.5739">
        <ele>403.89</ele>
        <time>2014-09-07T07:41:23Z</time>
      </trkpt>
      <trkpt lat="43.80132" lon="3.5738">
        <ele>403.89</ele>
        <time>2014-09-07T07:41:32Z</time>
      </trkpt>
      <trkpt lat="43.80129" lon="3.57371">
        <ele>403.41</ele>
        <time>2014-09-07T07:41:41Z</time>
      </trkpt>
      <trkpt lat="43.80126" lon="3.57359">
        <ele>401.49</ele>
        <time>2014-09-07T07:41:54Z</time>
      </trkpt>
      <trkpt lat="43.80118" lon="3.57354">
        <ele>401.97</ele>
        <time>2014-09-07T07:42:04Z</time>
      </trkpt>
      <trkpt lat="43.80118" lon="3.57349">
        <ele>403.89</ele>
        <time>2014-09-07T07:42:14Z</time>
      </trkpt>
      <trkpt lat="43.80125" lon="3.57354">
        <ele>408.7</ele>
        <time>2014-09-07T07:42:23Z</time>
      </trkpt>
      <trkpt lat="43.80131" lon="3.5736">
        <ele>413.5</ele>
        <time>2014-09-07T07:42:33Z</time>
      </trkpt>
      <trkpt lat="43.80139" lon="3.57364">
        <ele>415.91</ele>
        <time>2014-09-07T07:42:43Z</time>
      </trkpt>
      <trkpt lat="43.80146" lon="3.57367">
        <ele>417.83</ele>
        <time>2014-09-07T07:42:53Z</time>
      </trkpt>
      <trkpt lat="43.80152" lon="3.57375">
        <ele>418.79</ele>
        <time>2014-09-07T07:43:03Z</time>
      </trkpt>
      <trkpt lat="43.80156" lon="3.57379">
        <ele>419.27</ele>
        <time>2014-09-07T07:43:13Z</time>
      </trkpt>
      <trkpt lat="43.8016" lon="3.57381">
        <ele>419.75</ele>
        <time>2014-09-07T07:43:29Z</time>
      </trkpt>
      <trkpt lat="43.80169" lon="3.57382">
        <ele>421.68</ele>
        <time>2014-09-07T07:43:41Z</time>
      </trkpt>
      <trkpt lat="43.80175" lon="3.57384">
        <ele>421.68</ele>
        <time>2014-09-07T07:43:52Z</time>
      </trkpt>
      <trkpt lat="43.8018" lon="3.57388">
        <ele>423.6</ele>
        <time>2014-09-07T07:44:01Z</time>
      </trkpt>
      <trkpt lat="43.80182" lon="3.57392">
        <ele>424.56</ele>
        <time>2014-09-07T07:44:15Z</time>
      </trkpt>
      <trkpt lat="43.80182" lon="3.57386">
        <ele>424.56</ele>
        <time>2014-09-07T07:44:25Z</time>
      </trkpt>
      <trkpt lat="43.80181" lon="3.5738">
        <ele>425.04</ele>
        <time>2014-09-07T07:44:34Z</time>
      </trkpt>
      <trkpt lat="43.80179" lon="3.57372">
        <ele>426.48</ele>
        <time>2014-09-07T07:44:44Z</time>
      </trkpt>
      <trkpt lat="43.80175" lon="3.57368">
        <ele>427.92</ele>
        <time>2014-09-07T07:44:52Z</time>
      </trkpt>
      <trkpt lat="43.8017" lon="3.57364">
        <ele>427.44</ele>
        <time>2014-09-07T07:45:01Z</time>
      </trkpt>
      <trkpt lat="43.80165" lon="3.57358">
        <ele>427.92</ele>
        <time>2014-09-07T07:45:11Z</time>
      </trkpt>
      <trkpt lat="43.80161" lon="3.57351">
        <ele>427.44</ele>
        <time>2014-09-07T07:45:19Z</time>
      </trkpt>
      <trkpt lat="43.80167" lon="3.5735">
        <ele>429.37</ele>
        <time>2014-09-07T07:45:31Z</time>
      </trkpt>
      <trkpt lat="43.80175" lon="3.57349">
        <ele>430.81</ele>
        <time>2014-09-07T07:45:42Z</time>
      </trkpt>
      <trkpt lat="43.80183" lon="3.57351">
        <ele>431.29</ele>
        <time>2014-09-07T07:45:55Z</time>
      </trkpt>
      <trkpt lat="43.80189" lon="3.57353">
        <ele>432.25</ele>
        <time>2014-09-07T07:46:07Z</time>
      </trkpt>
      <trkpt lat="43.80196" lon="3.5736">
        <ele>434.65</ele>
        <time>2014-09-07T07:46:17Z</time>
      </trkpt>
      <trkpt lat="43.80201" lon="3.57365">
        <ele>436.58</ele>
        <time>2014-09-07T07:46:26Z</time>
      </trkpt>
      <trkpt lat="43.80206" lon="3.5737">
        <ele>437.54</ele>
        <time>2014-09-07T07:46:35Z</time>
      </trkpt>
      <trkpt lat="43.8021" lon="3.57378">
        <ele>439.46</ele>
        <time>2014-09-07T07:46:46Z</time>
      </trkpt>
      <trkpt lat="43.80219" lon="3.5738">
        <ele>440.42</ele>
        <time>2014-09-07T07:46:57Z</time>
      </trkpt>
      <trkpt lat="43.80225" lon="3.57383">
        <ele>442.34</ele>
        <time>2014-09-07T07:47:06Z</time>
      </trkpt>
      <trkpt lat="43.80231" lon="3.57386">
        <ele>444.27</ele>
        <time>2014-09-07T07:47:17Z</time>
      </trkpt>
      <trkpt lat="43.80236" lon="3.57388">
        <ele>446.19</ele>
        <time>2014-09-07T07:47:27Z</time>
      </trkpt>
      <trkpt lat="43.80239" lon="3.57387">
        <ele>447.15</ele>
        <time>2014-09-07T07:47:36Z</time>
      </trkpt>
      <trkpt lat="43.80237" lon="3.57383">
        <ele>447.63</ele>
        <time>2014-09-07T07:47:42Z</time>
      </trkpt>
      <trkpt lat="43.80228" lon="3.57375">
        <ele>450.03</ele>
        <time>2014-09-07T07:47:54Z</time>
      </trkpt>
      <trkpt lat="43.80224" lon="3.57373">
        <ele>451.48</ele>
        <time>2014-09-07T07:48:02Z</time>
      </trkpt>
      <trkpt lat="43.80219" lon="3.57364">
        <ele>453.4</ele>
        <time>2014-09-07T07:48:12Z</time>
      </trkpt>
      <trkpt lat="43.80218" lon="3.5736">
        <ele>453.88</ele>
        <time>2014-09-07T07:48:21Z</time>
      </trkpt>
      <trkpt lat="43.80215" lon="3.57354">
        <ele>456.28</ele>
        <time>2014-09-07T07:48:33Z</time>
      </trkpt>
      <trkpt lat="43.80211" lon="3.57345">
        <ele>458.21</ele>
        <time>2014-09-07T07:48:45Z</time>
      </trkpt>
      <trkpt lat="43.80208" lon="3.5734">
        <ele>458.69</ele>
        <time>2014-09-07T07:48:57Z</time>
      </trkpt>
      <trkpt lat="43.80203" lon="3.57333">
        <ele>457.72</ele>
        <time>2014-09-07T07:49:08Z</time>
      </trkpt>
      <trkpt lat="43.80198" lon="3.57326">
        <ele>458.21</ele>
        <time>2014-09-07T07:49:18Z</time>
      </trkpt>
      <trkpt lat="43.80192" lon="3.5732">
        <ele>457.24</ele>
        <time>2014-09-07T07:49:30Z</time>
      </trkpt>
      <trkpt lat="43.80188" lon="3.57315">
        <ele>457.24</ele>
        <time>2014-09-07T07:49:39Z</time>
      </trkpt>
      <trkpt lat="43.80183" lon="3.57309">
        <ele>458.69</ele>
        <time>2014-09-07T07:49:50Z</time>
      </trkpt>
      <trkpt lat="43.80188" lon="3.57307">
        <ele>459.65</ele>
        <time>2014-09-07T07:50:00Z</time>
      </trkpt>
      <trkpt lat="43.80195" lon="3.57307">
        <ele>460.61</ele>
        <time>2014-09-07T07:50:10Z</time>
      </trkpt>
      <trkpt lat="43.80202" lon="3.57306">
        <ele>462.05</ele>
        <time>2014-09-07T07:50:21Z</time>
      </trkpt>
      <trkpt lat="43.80204" lon="3.57307">
        <ele>463.49</ele>
        <time>2014-09-07T07:50:33Z</time>
      </trkpt>
      <trkpt lat="43.80205" lon="3.5731">
        <ele>463.97</ele>
        <time>2014-09-07T07:50:43Z</time>
      </trkpt>
      <trkpt lat="43.80203" lon="3.57311">
        <ele>463.01</ele>
        <time>2014-09-07T07:51:09Z</time>
      </trkpt>
      <trkpt lat="43.80204" lon="3.57311">
        <ele>463.01</ele>
        <time>2014-09-07T07:51:18Z</time>
      </trkpt>
      <trkpt lat="43.80204" lon="3.57311">
        <ele>463.49</ele>
        <time>2014-09-07T07:51:46Z</time>
      </trkpt>
      <trkpt lat="43.80208" lon="3.57313">
        <ele>464.45</ele>
        <time>2014-09-07T07:51:57Z</time>
      </trkpt>
      <trkpt lat="43.80217" lon="3.57316">
        <ele>465.9</ele>
        <time>2014-09-07T07:52:12Z</time>
      </trkpt>
      <trkpt lat="43.80225" lon="3.57321">
        <ele>469.26</ele>
        <time>2014-09-07T07:52:24Z</time>
      </trkpt>
      <trkpt lat="43.80232" lon="3.57326">
        <ele>472.14</ele>
        <time>2014-09-07T07:52:37Z</time>
      </trkpt>
      <trkpt lat="43.80235" lon="3.57329">
        <ele>472.63</ele>
        <time>2014-09-07T07:52:41Z</time>
      </trkpt>
      <trkpt lat="43.80239" lon="3.5734">
        <ele>475.03</ele>
        <time>2014-09-07T07:52:52Z</time>
      </trkpt>
      <trkpt lat="43.80242" lon="3.57347">
        <ele>476.95</ele>
        <time>2014-09-07T07:53:03Z</time>
      </trkpt>
      <trkpt lat="43.8025" lon="3.57344">
        <ele>478.87</ele>
        <time>2014-09-07T07:53:17Z</time>
      </trkpt>
      <trkpt lat="43.80255" lon="3.57345">
        <ele>479.35</ele>
        <time>2014-09-07T07:53:21Z</time>
      </trkpt>
      <trkpt lat="43.80263" lon="3.57352">
        <ele>479.35</ele>
        <time>2014-09-07T07:53:31Z</time>
      </trkpt>
      <trkpt lat="43.8027" lon="3.5736">
        <ele>478.39</ele>
        <time>2014-09-07T07:53:41Z</time>
      </trkpt>
      <trkpt lat="43.80277" lon="3.57364">
        <ele>477.91</ele>
        <time>2014-09-07T07:53:50Z</time>
      </trkpt>
      <trkpt lat="43.80288" lon="3.57368">
        <ele>476.95</ele>
        <time>2014-09-07T07:54:01Z</time>
      </trkpt>
      <trkpt lat="43.80297" lon="3.5737">
        <ele>477.43</ele>
        <time>2014-09-07T07:54:11Z</time>
      </trkpt>
      <trkpt lat="43.80308" lon="3.5737">
        <ele>477.91</ele>
        <time>2014-09-07T07:54:21Z</time>
      </trkpt>
      <trkpt lat="43.80316" lon="3.57376">
        <ele>477.43</ele>
        <time>2014-09-07T07:54:32Z</time>
      </trkpt>
      <trkpt lat="43.80321" lon="3.57376">
        <ele>477.43</ele>
        <time>2014-09-07T07:54:46Z</time>
      </trkpt>
      <trkpt lat="43.80331" lon="3.57375">
        <ele>479.84</ele>
        <time>2014-09-07T07:55:00Z</time>
      </trkpt>
      <trkpt lat="43.80339" lon="3.57374">
        <ele>482.24</ele>
        <time>2014-09-07T07:55:13Z</time>
      </trkpt>
      <trkpt lat="43.80348" lon="3.57373">
        <ele>485.12</ele>
        <time>2014-09-07T07:55:25Z</time>
      </trkpt>
      <trkpt lat="43.80358" lon="3.57374">
        <ele>486.56</ele>
        <time>2014-09-07T07:55:37Z</time>
      </trkpt>
      <trkpt lat="43.8037" lon="3.57371">
        <ele>487.53</ele>
        <time>2014-09-07T07:55:52Z</time>
      </trkpt>
      <trkpt lat="43.80375" lon="3.57372">
        <ele>488.97</ele>
        <time>2014-09-07T07:56:04Z</time>
      </trkpt>
      <trkpt lat="43.80383" lon="3.57372">
        <ele>490.89</ele>
        <time>2014-09-07T07:56:15Z</time>
      </trkpt>
      <trkpt lat="43.80385" lon="3.57373">
        <ele>491.37</ele>
        <time>2014-09-07T07:56:17Z</time>
      </trkpt>
      <trkpt lat="43.8039" lon="3.57378">
        <ele>492.81</ele>
        <time>2014-09-07T07:56:28Z</time>
      </trkpt>
      <trkpt lat="43.80396" lon="3.57383">
        <ele>493.29</ele>
        <time>2014-09-07T07:56:36Z</time>
      </trkpt>
      <trkpt lat="43.80401" lon="3.57386">
        <ele>493.77</ele>
        <time>2014-09-07T07:56:43Z</time>
      </trkpt>
      <trkpt lat="43.80408" lon="3.57388">
        <ele>494.26</ele>
        <time>2014-09-07T07:56:53Z</time>
      </trkpt>
      <trkpt lat="43.80415" lon="3.57391">
        <ele>494.74</ele>
        <time>2014-09-07T07:57:03Z</time>
      </trkpt>
      <trkpt lat="43.80422" lon="3.57393">
        <ele>495.22</ele>
        <time>2014-09-07T07:57:15Z</time>
      </trkpt>
      <trkpt lat="43.80432" lon="3.57392">
        <ele>495.7</ele>
        <time>2014-09-07T07:57:28Z</time>
      </trkpt>
      <trkpt lat="43.80443" lon="3.57389">
        <ele>496.66</ele>
        <time>2014-09-07T07:57:45Z</time>
      </trkpt>
      <trkpt lat="43.80452" lon="3.57388">
        <ele>497.14</ele>
        <time>2014-09-07T07:57:57Z</time>
      </trkpt>
      <trkpt lat="43.80461" lon="3.57389">
        <ele>497.62</ele>
        <time>2014-09-07T07:58:10Z</time>
      </trkpt>
      <trkpt lat="43.8047" lon="3.57388">
        <ele>499.06</ele>
        <time>2014-09-07T07:58:22Z</time>
      </trkpt>
      <trkpt lat="43.8048" lon="3.57388">
        <ele>501.95</ele>
        <time>2014-09-07T07:58:36Z</time>
      </trkpt>
      <trkpt lat="43.80488" lon="3.57388">
        <ele>502.91</ele>
        <time>2014-09-07T07:58:47Z</time>
      </trkpt>
      <trkpt lat="43.80495" lon="3.57389">
        <ele>503.39</ele>
        <time>2014-09-07T07:58:58Z</time>
      </trkpt>
      <trkpt lat="43.80504" lon="3.57387">
        <ele>503.87</ele>
        <time>2014-09-07T07:59:12Z</time>
      </trkpt>
      <trkpt lat="43.80513" lon="3.57387">
        <ele>505.31</ele>
        <time>2014-09-07T07:59:25Z</time>
      </trkpt>
      <trkpt lat="43.80522" lon="3.57382">
        <ele>505.79</ele>
        <time>2014-09-07T07:59:38Z</time>
      </trkpt>
      <trkpt lat="43.8053" lon="3.57385">
        <ele>506.75</ele>
        <time>2014-09-07T07:59:51Z</time>
      </trkpt>
      <trkpt lat="43.80539" lon="3.57386">
        <ele>508.67</ele>
        <time>2014-09-07T08:00:05Z</time>
      </trkpt>
      <trkpt lat="43.80547" lon="3.5739">
        <ele>509.64</ele>
        <time>2014-09-07T08:00:13Z</time>
      </trkpt>
      <trkpt lat="43.80554" lon="3.57396">
        <ele>510.12</ele>
        <time>2014-09-07T08:00:22Z</time>
      </trkpt>
      <trkpt lat="43.80558" lon="3.57398">
        <ele>510.12</ele>
        <time>2014-09-07T08:00:26Z</time>
      </trkpt>
      <trkpt lat="43.80564" lon="3.57403">
        <ele>510.12</ele>
        <time>2014-09-07T08:00:35Z</time>
      </trkpt>
      <trkpt lat="43.80571" lon="3.57409">
        <ele>510.6</ele>
        <time>2014-09-07T08:00:45Z</time>
      </trkpt>
      <trkpt lat="43.80576" lon="3.57413">
        <ele>511.56</ele>
        <time>2014-09-07T08:00:54Z</time>
      </trkpt>
      <trkpt lat="43.80582" lon="3.57418">
        <ele>512.04</ele>
        <time>2014-09-07T08:01:03Z</time>
      </trkpt>
      <trkpt lat="43.80589" lon="3.57421">
        <ele>513.96</ele>
        <time>2014-09-07T08:01:12Z</time>
      </trkpt>
      <trkpt lat="43.80596" lon="3.57425">
        <ele>515.4</ele>
        <time>2014-09-07T08:01:23Z</time>
      </trkpt>
      <trkpt lat="43.80606" lon="3.57427">
        <ele>517.81</ele>
        <time>2014-09-07T08:01:35Z</time>
      </trkpt>
      <trkpt lat="43.80615" lon="3.57429">
        <ele>519.73</ele>
        <time>2014-09-07T08:01:46Z</time>
      </trkpt>
      <trkpt lat="43.80624" lon="3.57429">
        <ele>521.17</ele>
        <time>2014-09-07T08:01:59Z</time>
      </trkpt>
      <trkpt lat="43.80633" lon="3.57431">
        <ele>522.13</ele>
        <time>2014-09-07T08:02:10Z</time>
      </trkpt>
      <trkpt lat="43.80641" lon="3.57428">
        <ele>523.58</ele>
        <time>2014-09-07T08:02:24Z</time>
      </trkpt>
      <trkpt lat="43.8065" lon="3.57427">
        <ele>524.54</ele>
        <time>2014-09-07T08:02:37Z</time>
      </trkpt>
      <trkpt lat="43.80655" lon="3.57425">
        <ele>526.46</ele>
        <time>2014-09-07T08:02:50Z</time>
      </trkpt>
      <trkpt lat="43.80664" lon="3.57425">
        <ele>528.38</ele>
        <time>2014-09-07T08:03:04Z</time>
      </trkpt>
      <trkpt lat="43.8067" lon="3.57422">
        <ele>529.34</ele>
        <time>2014-09-07T08:03:17Z</time>
      </trkpt>
      <trkpt lat="43.80679" lon="3.5742">
        <ele>530.79</ele>
        <time>2014-09-07T08:03:30Z</time>
      </trkpt>
      <trkpt lat="43.80686" lon="3.5742">
        <ele>531.75</ele>
        <time>2014-09-07T08:03:42Z</time>
      </trkpt>
      <trkpt lat="43.80693" lon="3.57416">
        <ele>534.15</ele>
        <time>2014-09-07T08:03:56Z</time>
      </trkpt>
      <trkpt lat="43.80701" lon="3.57416">
        <ele>536.07</ele>
        <time>2014-09-07T08:04:09Z</time>
      </trkpt>
      <trkpt lat="43.80707" lon="3.57414">
        <ele>536.55</ele>
        <time>2014-09-07T08:04:21Z</time>
      </trkpt>
      <trkpt lat="43.80715" lon="3.57414">
        <ele>537.51</ele>
        <time>2014-09-07T08:04:36Z</time>
      </trkpt>
      <trkpt lat="43.80716" lon="3.57414">
        <ele>537.99</ele>
        <time>2014-09-07T08:04:52Z</time>
      </trkpt>
      <trkpt lat="43.80716" lon="3.57414">
        <ele>538.96</ele>
        <time>2014-09-07T08:05:14Z</time>
      </trkpt>
      <trkpt lat="43.8072" lon="3.57416">
        <ele>540.4</ele>
        <time>2014-09-07T08:05:29Z</time>
      </trkpt>
      <trkpt lat="43.80731" lon="3.57417">
        <ele>541.36</ele>
        <time>2014-09-07T08:05:43Z</time>
      </trkpt>
      <trkpt lat="43.80741" lon="3.57414">
        <ele>543.28</ele>
        <time>2014-09-07T08:05:58Z</time>
      </trkpt>
      <trkpt lat="43.80747" lon="3.57413">
        <ele>543.76</ele>
        <time>2014-09-07T08:06:09Z</time>
      </trkpt>
      <trkpt lat="43.80752" lon="3.57411">
        <ele>544.24</ele>
        <time>2014-09-07T08:06:18Z</time>
      </trkpt>
      <trkpt lat="43.80761" lon="3.57408">
        <ele>546.17</ele>
        <time>2014-09-07T08:06:30Z</time>
      </trkpt>
      <trkpt lat="43.80769" lon="3.57408">
        <ele>547.13</ele>
        <time>2014-09-07T08:06:42Z</time>
      </trkpt>
      <trkpt lat="43.8078" lon="3.57407">
        <ele>549.05</ele>
        <time>2014-09-07T08:06:55Z</time>
      </trkpt>
      <trkpt lat="43.80789" lon="3.57402">
        <ele>550.49</ele>
        <time>2014-09-07T08:07:08Z</time>
      </trkpt>
      <trkpt lat="43.808" lon="3.574">
        <ele>550.49</ele>
        <time>2014-09-07T08:07:21Z</time>
      </trkpt>
      <trkpt lat="43.80807" lon="3.57395">
        <ele>550.01</ele>
        <time>2014-09-07T08:07:34Z</time>
      </trkpt>
      <trkpt lat="43.80812" lon="3.57395">
        <ele>550.01</ele>
        <time>2014-09-07T08:07:50Z</time>
      </trkpt>
      <trkpt lat="43.80824" lon="3.57387">
        <ele>550.01</ele>
        <time>2014-09-07T08:08:02Z</time>
      </trkpt>
      <trkpt lat="43.80831" lon="3.57379">
        <ele>550.49</ele>
        <time>2014-09-07T08:08:15Z</time>
      </trkpt>
      <trkpt lat="43.80839" lon="3.57374">
        <ele>550.97</ele>
        <time>2014-09-07T08:08:27Z</time>
      </trkpt>
      <trkpt lat="43.80847" lon="3.57365">
        <ele>552.9</ele>
        <time>2014-09-07T08:08:39Z</time>
      </trkpt>
      <trkpt lat="43.80853" lon="3.57358">
        <ele>554.34</ele>
        <time>2014-09-07T08:08:50Z</time>
      </trkpt>
      <trkpt lat="43.80857" lon="3.57354">
        <ele>555.78</ele>
        <time>2014-09-07T08:09:00Z</time>
      </trkpt>
      <trkpt lat="43.80864" lon="3.57348">
        <ele>556.74</ele>
        <time>2014-09-07T08:09:11Z</time>
      </trkpt>
      <trkpt lat="43.80867" lon="3.57344">
        <ele>558.18</ele>
        <time>2014-09-07T08:09:21Z</time>
      </trkpt>
      <trkpt lat="43.8087" lon="3.57338">
        <ele>558.66</ele>
        <time>2014-09-07T08:09:31Z</time>
      </trkpt>
      <trkpt lat="43.80875" lon="3.57332">
        <ele>558.66</ele>
        <time>2014-09-07T08:09:43Z</time>
      </trkpt>
      <trkpt lat="43.8088" lon="3.57326">
        <ele>560.59</ele>
        <time>2014-09-07T08:09:53Z</time>
      </trkpt>
      <trkpt lat="43.80884" lon="3.57318">
        <ele>562.51</ele>
        <time>2014-09-07T08:10:04Z</time>
      </trkpt>
      <trkpt lat="43.80891" lon="3.5731">
        <ele>563.95</ele>
        <time>2014-09-07T08:10:19Z</time>
      </trkpt>
      <trkpt lat="43.80901" lon="3.57302">
        <ele>564.91</ele>
        <time>2014-09-07T08:10:32Z</time>
      </trkpt>
      <trkpt lat="43.80906" lon="3.57296">
        <ele>564.43</ele>
        <time>2014-09-07T08:10:44Z</time>
      </trkpt>
      <trkpt lat="43.80912" lon="3.57288">
        <ele>564.91</ele>
        <time>2014-09-07T08:10:55Z</time>
      </trkpt>
      <trkpt lat="43.80917" lon="3.5728">
        <ele>566.35</ele>
        <time>2014-09-07T08:11:04Z</time>
      </trkpt>
      <trkpt lat="43.80921" lon="3.57274">
        <ele>567.8</ele>
        <time>2014-09-07T08:11:11Z</time>
      </trkpt>
      <trkpt lat="43.80924" lon="3.57265">
        <ele>568.76</ele>
        <time>2014-09-07T08:11:18Z</time>
      </trkpt>
      <trkpt lat="43.80929" lon="3.57254">
        <ele>570.2</ele>
        <time>2014-09-07T08:11:29Z</time>
      </trkpt>
      <trkpt lat="43.80929" lon="3.57247">
        <ele>570.68</ele>
        <time>2014-09-07T08:11:38Z</time>
      </trkpt>
      <trkpt lat="43.80933" lon="3.57235">
        <ele>570.68</ele>
        <time>2014-09-07T08:11:50Z</time>
      </trkpt>
      <trkpt lat="43.80943" lon="3.57226">
        <ele>571.16</ele>
        <time>2014-09-07T08:12:03Z</time>
      </trkpt>
      <trkpt lat="43.80946" lon="3.57221">
        <ele>572.12</ele>
        <time>2014-09-07T08:12:16Z</time>
      </trkpt>
      <trkpt lat="43.80956" lon="3.57217">
        <ele>573.56</ele>
        <time>2014-09-07T08:12:28Z</time>
      </trkpt>
      <trkpt lat="43.80964" lon="3.5721">
        <ele>574.04</ele>
        <time>2014-09-07T08:12:44Z</time>
      </trkpt>
      <trkpt lat="43.80968" lon="3.57201">
        <ele>575.01</ele>
        <time>2014-09-07T08:12:56Z</time>
      </trkpt>
      <trkpt lat="43.80971" lon="3.57197">
        <ele>575.97</ele>
        <time>2014-09-07T08:13:08Z</time>
      </trkpt>
      <trkpt lat="43.80978" lon="3.57196">
        <ele>577.89</ele>
        <time>2014-09-07T08:13:19Z</time>
      </trkpt>
      <trkpt lat="43.80984" lon="3.57198">
        <ele>580.77</ele>
        <time>2014-09-07T08:13:30Z</time>
      </trkpt>
      <trkpt lat="43.80991" lon="3.572">
        <ele>582.7</ele>
        <time>2014-09-07T08:13:40Z</time>
      </trkpt>
      <trkpt lat="43.80996" lon="3.57204">
        <ele>584.14</ele>
        <time>2014-09-07T08:13:48Z</time>
      </trkpt>
      <trkpt lat="43.81003" lon="3.57203">
        <ele>586.54</ele>
        <time>2014-09-07T08:13:58Z</time>
      </trkpt>
      <trkpt lat="43.81003" lon="3.57195">
        <ele>587.98</ele>
        <time>2014-09-07T08:14:13Z</time>
      </trkpt>
      <trkpt lat="43.81002" lon="3.57183">
        <ele>589.91</ele>
        <time>2014-09-07T08:14:27Z</time>
      </trkpt>
      <trkpt lat="43.80999" lon="3.57172">
        <ele>590.87</ele>
        <time>2014-09-07T08:14:39Z</time>
      </trkpt>
      <trkpt lat="43.80996" lon="3.57161">
        <ele>592.31</ele>
        <time>2014-09-07T08:14:54Z</time>
      </trkpt>
      <trkpt lat="43.80997" lon="3.57152">
        <ele>594.71</ele>
        <time>2014-09-07T08:15:07Z</time>
      </trkpt>
      <trkpt lat="43.81" lon="3.57147">
        <ele>596.15</ele>
        <time>2014-09-07T08:15:18Z</time>
      </trkpt>
      <trkpt lat="43.81002" lon="3.5714">
        <ele>597.6</ele>
        <time>2014-09-07T08:15:29Z</time>
      </trkpt>
      <trkpt lat="43.81002" lon="3.57133">
        <ele>599.52</ele>
        <time>2014-09-07T08:15:43Z</time>
      </trkpt>
      <trkpt lat="43.81002" lon="3.57122">
        <ele>601.44</ele>
        <time>2014-09-07T08:15:56Z</time>
      </trkpt>
      <trkpt lat="43.81001" lon="3.57116">
        <ele>601.92</ele>
        <time>2014-09-07T08:16:06Z</time>
      </trkpt>
      <trkpt lat="43.81002" lon="3.5711">
        <ele>602.4</ele>
        <time>2014-09-07T08:16:15Z</time>
      </trkpt>
      <trkpt lat="43.81003" lon="3.57103">
        <ele>603.36</ele>
        <time>2014-09-07T08:16:27Z</time>
      </trkpt>
      <trkpt lat="43.81002" lon="3.5709">
        <ele>604.81</ele>
        <time>2014-09-07T08:16:40Z</time>
      </trkpt>
      <trkpt lat="43.81" lon="3.57083">
        <ele>606.25</ele>
        <time>2014-09-07T08:16:50Z</time>
      </trkpt>
      <trkpt lat="43.80995" lon="3.57069">
        <ele>607.21</ele>
        <time>2014-09-07T08:17:04Z</time>
      </trkpt>
      <trkpt lat="43.80995" lon="3.57068">
        <ele>607.21</ele>
        <time>2014-09-07T08:17:24Z</time>
      </trkpt>
      <trkpt lat="43.80995" lon="3.57068">
        <ele>608.17</ele>
        <time>2014-09-07T08:17:52Z</time>
      </trkpt>
      <trkpt lat="43.80995" lon="3.57068">
        <ele>608.17</ele>
        <time>2014-09-07T08:18:15Z</time>
      </trkpt>
      <trkpt lat="43.80993" lon="3.5706">
        <ele>609.13</ele>
        <time>2014-09-07T08:18:27Z</time>
      </trkpt>
      <trkpt lat="43.80992" lon="3.57056">
        <ele>608.65</ele>
        <time>2014-09-07T08:18:53Z</time>
      </trkpt>
      <trkpt lat="43.8099" lon="3.5705">
        <ele>609.61</ele>
        <time>2014-09-07T08:18:57Z</time>
      </trkpt>
      <trkpt lat="43.80992" lon="3.57039">
        <ele>610.09</ele>
        <time>2014-09-07T08:19:06Z</time>
      </trkpt>
      <trkpt lat="43.80992" lon="3.57024">
        <ele>610.57</ele>
        <time>2014-09-07T08:19:19Z</time>
      </trkpt>
      <trkpt lat="43.80988" lon="3.57014">
        <ele>610.09</ele>
        <time>2014-09-07T08:19:29Z</time>
      </trkpt>
      <trkpt lat="43.80985" lon="3.57011">
        <ele>611.06</ele>
        <time>2014-09-07T08:19:40Z</time>
      </trkpt>
      <trkpt lat="43.80982" lon="3.57002">
        <ele>611.54</ele>
        <time>2014-09-07T08:19:51Z</time>
      </trkpt>
      <trkpt lat="43.80979" lon="3.56985">
        <ele>612.5</ele>
        <time>2014-09-07T08:20:06Z</time>
      </trkpt>
      <trkpt lat="43.80978" lon="3.56983">
        <ele>613.46</ele>
        <time>2014-09-07T08:20:18Z</time>
      </trkpt>
      <trkpt lat="43.80971" lon="3.56976">
        <ele>616.34</ele>
        <time>2014-09-07T08:20:30Z</time>
      </trkpt>
      <trkpt lat="43.80971" lon="3.56969">
        <ele>620.19</ele>
        <time>2014-09-07T08:20:39Z</time>
      </trkpt>
      <trkpt lat="43.80969" lon="3.56962">
        <ele>623.07</ele>
        <time>2014-09-07T08:20:49Z</time>
      </trkpt>
      <trkpt lat="43.80964" lon="3.56952">
        <ele>622.59</ele>
        <time>2014-09-07T08:21:02Z</time>
      </trkpt>
      <trkpt lat="43.80961" lon="3.56941">
        <ele>621.63</ele>
        <time>2014-09-07T08:21:14Z</time>
      </trkpt>
      <trkpt lat="43.80957" lon="3.56929">
        <ele>622.59</ele>
        <time>2014-09-07T08:21:28Z</time>
      </trkpt>
      <trkpt lat="43.80957" lon="3.56918">
        <ele>624.03</ele>
        <time>2014-09-07T08:21:38Z</time>
      </trkpt>
      <trkpt lat="43.80957" lon="3.56918">
        <ele>624.51</ele>
        <time>2014-09-07T08:21:39Z</time>
      </trkpt>
      <trkpt lat="43.80953" lon="3.56906">
        <ele>626.92</ele>
        <time>2014-09-07T08:21:51Z</time>
      </trkpt>
      <trkpt lat="43.8096" lon="3.56899">
        <ele>627.88</ele>
        <time>2014-09-07T08:22:03Z</time>
      </trkpt>
      <trkpt lat="43.80961" lon="3.56894">
        <ele>628.36</ele>
        <time>2014-09-07T08:22:17Z</time>
      </trkpt>
      <trkpt lat="43.80961" lon="3.56894">
        <ele>628.84</ele>
        <time>2014-09-07T08:22:37Z</time>
      </trkpt>
      <trkpt lat="43.80961" lon="3.56893">
        <ele>628.36</ele>
        <time>2014-09-07T08:22:59Z</time>
      </trkpt>
      <trkpt lat="43.80961" lon="3.56892">
        <ele>628.36</ele>
        <time>2014-09-07T08:23:13Z</time>
      </trkpt>
      <trkpt lat="43.80966" lon="3.56891">
        <ele>628.84</ele>
        <time>2014-09-07T08:23:27Z</time>
      </trkpt>
      <trkpt lat="43.80967" lon="3.5689">
        <ele>630.28</ele>
        <time>2014-09-07T08:23:56Z</time>
      </trkpt>
      <trkpt lat="43.80967" lon="3.56891">
        <ele>630.28</ele>
        <time>2014-09-07T08:24:14Z</time>
      </trkpt>
      <trkpt lat="43.80968" lon="3.56892">
        <ele>630.28</ele>
        <time>2014-09-07T08:24:33Z</time>
      </trkpt>
      <trkpt lat="43.80964" lon="3.56893">
        <ele>629.8</ele>
        <time>2014-09-07T08:24:45Z</time>
      </trkpt>
      <trkpt lat="43.80964" lon="3.56893">
        <ele>630.76</ele>
        <time>2014-09-07T08:25:00Z</time>
      </trkpt>
      <trkpt lat="43.80962" lon="3.56893">
        <ele>630.76</ele>
        <time>2014-09-07T08:25:22Z</time>
      </trkpt>
      <trkpt lat="43.80963" lon="3.56894">
        <ele>631.72</ele>
        <time>2014-09-07T08:25:30Z</time>
      </trkpt>
      <trkpt lat="43.80963" lon="3.56893">
        <ele>631.72</ele>
        <time>2014-09-07T08:25:50Z</time>
      </trkpt>
      <trkpt lat="43.80963" lon="3.56893">
        <ele>630.76</ele>
        <time>2014-09-07T08:26:12Z</time>
      </trkpt>
      <trkpt lat="43.80963" lon="3.56894">
        <ele>630.28</ele>
        <time>2014-09-07T08:26:33Z</time>
      </trkpt>
      <trkpt lat="43.80962" lon="3.56894">
        <ele>630.28</ele>
        <time>2014-09-07T08:26:50Z</time>
      </trkpt>
      <trkpt lat="43.80962" lon="3.56894">
        <ele>631.24</ele>
        <time>2014-09-07T08:27:13Z</time>
      </trkpt>
      <trkpt lat="43.80961" lon="3.56894">
        <ele>631.72</ele>
        <time>2014-09-07T08:27:35Z</time>
      </trkpt>
      <trkpt lat="43.8096" lon="3.56895">
        <ele>632.2</ele>
        <time>2014-09-07T08:27:50Z</time>
      </trkpt>
      <trkpt lat="43.80961" lon="3.56895">
        <ele>632.2</ele>
        <time>2014-09-07T08:28:05Z</time>
      </trkpt>
      <trkpt lat="43.80961" lon="3.56895">
        <ele>632.2</ele>
        <time>2014-09-07T08:28:28Z</time>
      </trkpt>
      <trkpt lat="43.80961" lon="3.56895">
        <ele>632.2</ele>
        <time>2014-09-07T08:28:51Z</time>
      </trkpt>
      <trkpt lat="43.80961" lon="3.56894">
        <ele>632.68</ele>
        <time>2014-09-07T08:29:19Z</time>
      </trkpt>
      <trkpt lat="43.80962" lon="3.56893">
        <ele>632.68</ele>
        <time>2014-09-07T08:29:34Z</time>
      </trkpt>
      <trkpt lat="43.80964" lon="3.56885">
        <ele>632.2</ele>
        <time>2014-09-07T08:29:47Z</time>
      </trkpt>
      <trkpt lat="43.80961" lon="3.56879">
        <ele>632.2</ele>
        <time>2014-09-07T08:29:54Z</time>
      </trkpt>
      <trkpt lat="43.80961" lon="3.56871">
        <ele>634.13</ele>
        <time>2014-09-07T08:30:04Z</time>
      </trkpt>
      <trkpt lat="43.80955" lon="3.56865">
        <ele>635.57</ele>
        <time>2014-09-07T08:30:14Z</time>
      </trkpt>
      <trkpt lat="43.80956" lon="3.56861">
        <ele>636.05</ele>
        <time>2014-09-07T08:30:24Z</time>
      </trkpt>
      <trkpt lat="43.80954" lon="3.56857">
        <ele>636.53</ele>
        <time>2014-09-07T08:30:27Z</time>
      </trkpt>
      <trkpt lat="43.80952" lon="3.56844">
        <ele>637.97</ele>
        <time>2014-09-07T08:30:38Z</time>
      </trkpt>
      <trkpt lat="43.80952" lon="3.56836">
        <ele>638.45</ele>
        <time>2014-09-07T08:30:45Z</time>
      </trkpt>
      <trkpt lat="43.80951" lon="3.56827">
        <ele>638.45</ele>
        <time>2014-09-07T08:30:56Z</time>
      </trkpt>
      <trkpt lat="43.80952" lon="3.56818">
        <ele>638.93</ele>
        <time>2014-09-07T08:31:06Z</time>
      </trkpt>
      <trkpt lat="43.80957" lon="3.56813">
        <ele>640.38</ele>
        <time>2014-09-07T08:31:17Z</time>
      </trkpt>
      <trkpt lat="43.80959" lon="3.56807">
        <ele>641.82</ele>
        <time>2014-09-07T08:31:26Z</time>
      </trkpt>
      <trkpt lat="43.80956" lon="3.56794">
        <ele>642.3</ele>
        <time>2014-09-07T08:31:38Z</time>
      </trkpt>
      <trkpt lat="43.80946" lon="3.56781">
        <ele>642.3</ele>
        <time>2014-09-07T08:31:54Z</time>
      </trkpt>
      <trkpt lat="43.80949" lon="3.56773">
        <ele>642.78</ele>
        <time>2014-09-07T08:32:05Z</time>
      </trkpt>
      <trkpt lat="43.8095" lon="3.56771">
        <ele>643.26</ele>
        <time>2014-09-07T08:32:20Z</time>
      </trkpt>
      <trkpt lat="43.8096" lon="3.56763">
        <ele>644.22</ele>
        <time>2014-09-07T08:32:32Z</time>
      </trkpt>
      <trkpt lat="43.80965" lon="3.56755">
        <ele>645.66</ele>
        <time>2014-09-07T08:32:42Z</time>
      </trkpt>
      <trkpt lat="43.80965" lon="3.56743">
        <ele>646.14</ele>
        <time>2014-09-07T08:32:53Z</time>
      </trkpt>
      <trkpt lat="43.80968" lon="3.56727">
        <ele>645.18</ele>
        <time>2014-09-07T08:33:05Z</time>
      </trkpt>
      <trkpt lat="43.80973" lon="3.56718">
        <ele>645.18</ele>
        <time>2014-09-07T08:33:15Z</time>
      </trkpt>
      <trkpt lat="43.80973" lon="3.56707">
        <ele>645.66</ele>
        <time>2014-09-07T08:33:26Z</time>
      </trkpt>
      <trkpt lat="43.80972" lon="3.56694">
        <ele>646.62</ele>
        <time>2014-09-07T08:33:38Z</time>
      </trkpt>
      <trkpt lat="43.80973" lon="3.56687">
        <ele>647.1</ele>
        <time>2014-09-07T08:33:52Z</time>
      </trkpt>
      <trkpt lat="43.80982" lon="3.56692">
        <ele>646.62</ele>
        <time>2014-09-07T08:34:05Z</time>
      </trkpt>
      <trkpt lat="43.80989" lon="3.56696">
        <ele>647.1</ele>
        <time>2014-09-07T08:34:15Z</time>
      </trkpt>
      <trkpt lat="43.80992" lon="3.56696">
        <ele>647.1</ele>
        <time>2014-09-07T08:34:18Z</time>
      </trkpt>
      <trkpt lat="43.80998" lon="3.56703">
        <ele>648.55</ele>
        <time>2014-09-07T08:34:28Z</time>
      </trkpt>
      <trkpt lat="43.81001" lon="3.56707">
        <ele>649.51</ele>
        <time>2014-09-07T08:34:33Z</time>
      </trkpt>
      <trkpt lat="43.81" lon="3.56712">
        <ele>649.99</ele>
        <time>2014-09-07T08:34:37Z</time>
      </trkpt>
      <trkpt lat="43.81002" lon="3.5672">
        <ele>651.91</ele>
        <time>2014-09-07T08:34:47Z</time>
      </trkpt>
      <trkpt lat="43.81004" lon="3.56728">
        <ele>652.87</ele>
        <time>2014-09-07T08:34:54Z</time>
      </trkpt>
      <trkpt lat="43.81013" lon="3.56739">
        <ele>653.35</ele>
        <time>2014-09-07T08:35:06Z</time>
      </trkpt>
      <trkpt lat="43.81015" lon="3.56743">
        <ele>653.35</ele>
        <time>2014-09-07T08:35:10Z</time>
      </trkpt>
      <trkpt lat="43.81019" lon="3.5675">
        <ele>652.87</ele>
        <time>2014-09-07T08:35:17Z</time>
      </trkpt>
      <trkpt lat="43.81024" lon="3.56758">
        <ele>652.87</ele>
        <time>2014-09-07T08:35:25Z</time>
      </trkpt>
      <trkpt lat="43.81029" lon="3.56765">
        <ele>653.35</ele>
        <time>2014-09-07T08:35:34Z</time>
      </trkpt>
      <trkpt lat="43.81036" lon="3.56769">
        <ele>653.35</ele>
        <time>2014-09-07T08:35:48Z</time>
      </trkpt>
      <trkpt lat="43.81042" lon="3.56772">
        <ele>653.35</ele>
        <time>2014-09-07T08:35:57Z</time>
      </trkpt>
      <trkpt lat="43.81047" lon="3.56776">
        <ele>653.83</ele>
        <time>2014-09-07T08:36:09Z</time>
      </trkpt>
      <trkpt lat="43.81054" lon="3.56771">
        <ele>655.76</ele>
        <time>2014-09-07T08:36:23Z</time>
      </trkpt>
      <trkpt lat="43.81061" lon="3.56775">
        <ele>657.2</ele>
        <time>2014-09-07T08:36:35Z</time>
      </trkpt>
      <trkpt lat="43.81068" lon="3.56776">
        <ele>660.08</ele>
        <time>2014-09-07T08:36:47Z</time>
      </trkpt>
      <trkpt lat="43.81073" lon="3.56778">
        <ele>661.52</ele>
        <time>2014-09-07T08:36:59Z</time>
      </trkpt>
      <trkpt lat="43.81079" lon="3.56782">
        <ele>662.97</ele>
        <time>2014-09-07T08:37:08Z</time>
      </trkpt>
      <trkpt lat="43.81081" lon="3.56784">
        <ele>664.41</ele>
        <time>2014-09-07T08:37:15Z</time>
      </trkpt>
      <trkpt lat="43.81084" lon="3.56785">
        <ele>664.89</ele>
        <time>2014-09-07T08:37:29Z</time>
      </trkpt>
      <trkpt lat="43.81084" lon="3.56786">
        <ele>664.89</ele>
        <time>2014-09-07T08:37:54Z</time>
      </trkpt>
      <trkpt lat="43.81084" lon="3.56787">
        <ele>665.85</ele>
        <time>2014-09-07T08:38:15Z</time>
      </trkpt>
      <trkpt lat="43.8109" lon="3.56792">
        <ele>666.81</ele>
        <time>2014-09-07T08:38:27Z</time>
      </trkpt>
      <trkpt lat="43.81093" lon="3.56791">
        <ele>667.29</ele>
        <time>2014-09-07T08:38:40Z</time>
      </trkpt>
      <trkpt lat="43.81097" lon="3.56793">
        <ele>667.77</ele>
        <time>2014-09-07T08:38:51Z</time>
      </trkpt>
      <trkpt lat="43.81098" lon="3.56794">
        <ele>668.25</ele>
        <time>2014-09-07T08:38:55Z</time>
      </trkpt>
      <trkpt lat="43.81105" lon="3.56797">
        <ele>667.77</ele>
        <time>2014-09-07T08:39:01Z</time>
      </trkpt>
      <trkpt lat="43.8111" lon="3.56802">
        <ele>668.73</ele>
        <time>2014-09-07T08:39:06Z</time>
      </trkpt>
      <trkpt lat="43.81113" lon="3.56804">
        <ele>669.22</ele>
        <time>2014-09-07T08:39:08Z</time>
      </trkpt>
      <trkpt lat="43.81119" lon="3.56812">
        <ele>669.22</ele>
        <time>2014-09-07T08:39:17Z</time>
      </trkpt>
      <trkpt lat="43.81122" lon="3.56815">
        <ele>668.73</ele>
        <time>2014-09-07T08:39:20Z</time>
      </trkpt>
      <trkpt lat="43.81128" lon="3.56821">
        <ele>669.22</ele>
        <time>2014-09-07T08:39:29Z</time>
      </trkpt>
      <trkpt lat="43.81132" lon="3.56826">
        <ele>669.7</ele>
        <time>2014-09-07T08:39:36Z</time>
      </trkpt>
      <trkpt lat="43.8114" lon="3.56833">
        <ele>670.66</ele>
        <time>2014-09-07T08:39:45Z</time>
      </trkpt>
      <trkpt lat="43.8115" lon="3.56838">
        <ele>671.62</ele>
        <time>2014-09-07T08:39:54Z</time>
      </trkpt>
      <trkpt lat="43.81161" lon="3.56844">
        <ele>672.1</ele>
        <time>2014-09-07T08:40:05Z</time>
      </trkpt>
      <trkpt lat="43.81164" lon="3.56849">
        <ele>672.1</ele>
        <time>2014-09-07T08:40:13Z</time>
      </trkpt>
      <trkpt lat="43.81167" lon="3.56855">
        <ele>672.58</ele>
        <time>2014-09-07T08:40:20Z</time>
      </trkpt>
      <trkpt lat="43.8117" lon="3.56857">
        <ele>672.58</ele>
        <time>2014-09-07T08:40:23Z</time>
      </trkpt>
      <trkpt lat="43.81178" lon="3.56864">
        <ele>672.58</ele>
        <time>2014-09-07T08:40:33Z</time>
      </trkpt>
      <trkpt lat="43.8118" lon="3.56867">
        <ele>672.58</ele>
        <time>2014-09-07T08:40:35Z</time>
      </trkpt>
      <trkpt lat="43.81191" lon="3.56869">
        <ele>672.1</ele>
        <time>2014-09-07T08:40:44Z</time>
      </trkpt>
      <trkpt lat="43.81199" lon="3.56881">
        <ele>671.62</ele>
        <time>2014-09-07T08:40:51Z</time>
      </trkpt>
      <trkpt lat="43.81205" lon="3.56886">
        <ele>671.14</ele>
        <time>2014-09-07T08:40:58Z</time>
      </trkpt>
      <trkpt lat="43.81217" lon="3.56888">
        <ele>669.7</ele>
        <time>2014-09-07T08:41:11Z</time>
      </trkpt>
      <trkpt lat="43.81219" lon="3.5689">
        <ele>670.18</ele>
        <time>2014-09-07T08:41:27Z</time>
      </trkpt>
      <trkpt lat="43.8122" lon="3.56892">
        <ele>670.66</ele>
        <time>2014-09-07T08:41:46Z</time>
      </trkpt>
      <trkpt lat="43.81224" lon="3.56896">
        <ele>671.14</ele>
        <time>2014-09-07T08:41:53Z</time>
      </trkpt>
      <trkpt lat="43.81228" lon="3.56901">
        <ele>672.1</ele>
        <time>2014-09-07T08:41:58Z</time>
      </trkpt>
      <trkpt lat="43.81232" lon="3.56909">
        <ele>673.06</ele>
        <time>2014-09-07T08:42:03Z</time>
      </trkpt>
      <trkpt lat="43.81235" lon="3.56915">
        <ele>673.06</ele>
        <time>2014-09-07T08:42:07Z</time>
      </trkpt>
      <trkpt lat="43.81241" lon="3.56918">
        <ele>673.06</ele>
        <time>2014-09-07T08:42:11Z</time>
      </trkpt>
      <trkpt lat="43.81245" lon="3.56922">
        <ele>674.5</ele>
        <time>2014-09-07T08:42:20Z</time>
      </trkpt>
      <trkpt lat="43.81244" lon="3.56924">
        <ele>674.98</ele>
        <time>2014-09-07T08:42:26Z</time>
      </trkpt>
      <trkpt lat="43.81251" lon="3.56935">
        <ele>675.94</ele>
        <time>2014-09-07T08:42:34Z</time>
      </trkpt>
      <trkpt lat="43.81251" lon="3.56936">
        <ele>675.94</ele>
        <time>2014-09-07T08:42:35Z</time>
      </trkpt>
      <trkpt lat="43.81255" lon="3.5694">
        <ele>675.46</ele>
        <time>2014-09-07T08:42:40Z</time>
      </trkpt>
      <trkpt lat="43.81262" lon="3.56955">
        <ele>676.42</ele>
        <time>2014-09-07T08:42:50Z</time>
      </trkpt>
      <trkpt lat="43.81264" lon="3.56958">
        <ele>676.91</ele>
        <time>2014-09-07T08:42:54Z</time>
      </trkpt>
      <trkpt lat="43.81268" lon="3.5697">
        <ele>677.87</ele>
        <time>2014-09-07T08:43:03Z</time>
      </trkpt>
      <trkpt lat="43.81271" lon="3.56976">
        <ele>677.87</ele>
        <time>2014-09-07T08:43:08Z</time>
      </trkpt>
      <trkpt lat="43.81279" lon="3.56988">
        <ele>676.42</ele>
        <time>2014-09-07T08:43:19Z</time>
      </trkpt>
      <trkpt lat="43.81281" lon="3.56989">
        <ele>676.91</ele>
        <time>2014-09-07T08:43:21Z</time>
      </trkpt>
      <trkpt lat="43.81283" lon="3.56994">
        <ele>677.39</ele>
        <time>2014-09-07T08:43:24Z</time>
      </trkpt>
      <trkpt lat="43.81289" lon="3.57004">
        <ele>678.83</ele>
        <time>2014-09-07T08:43:33Z</time>
      </trkpt>
      <trkpt lat="43.81291" lon="3.57007">
        <ele>678.83</ele>
        <time>2014-09-07T08:43:35Z</time>
      </trkpt>
      <trkpt lat="43.81299" lon="3.57011">
        <ele>679.31</ele>
        <time>2014-09-07T08:43:42Z</time>
      </trkpt>
      <trkpt lat="43.81308" lon="3.57023">
        <ele>679.79</ele>
        <time>2014-09-07T08:43:53Z</time>
      </trkpt>
      <trkpt lat="43.8131" lon="3.57024">
        <ele>679.79</ele>
        <time>2014-09-07T08:43:55Z</time>
      </trkpt>
      <trkpt lat="43.81318" lon="3.57039">
        <ele>679.31</ele>
        <time>2014-09-07T08:44:07Z</time>
      </trkpt>
      <trkpt lat="43.81326" lon="3.57041">
        <ele>679.79</ele>
        <time>2014-09-07T08:44:16Z</time>
      </trkpt>
      <trkpt lat="43.81334" lon="3.57048">
        <ele>679.31</ele>
        <time>2014-09-07T08:44:26Z</time>
      </trkpt>
      <trkpt lat="43.81345" lon="3.57058">
        <ele>679.31</ele>
        <time>2014-09-07T08:44:36Z</time>
      </trkpt>
      <trkpt lat="43.81356" lon="3.57063">
        <ele>678.35</ele>
        <time>2014-09-07T08:44:45Z</time>
      </trkpt>
      <trkpt lat="43.81358" lon="3.57062">
        <ele>678.35</ele>
        <time>2014-09-07T08:44:47Z</time>
      </trkpt>
      <trkpt lat="43.81366" lon="3.57073">
        <ele>678.35</ele>
        <time>2014-09-07T08:44:57Z</time>
      </trkpt>
      <trkpt lat="43.8137" lon="3.57077">
        <ele>678.83</ele>
        <time>2014-09-07T08:45:02Z</time>
      </trkpt>
      <trkpt lat="43.81375" lon="3.57084">
        <ele>679.79</ele>
        <time>2014-09-07T08:45:08Z</time>
      </trkpt>
      <trkpt lat="43.81381" lon="3.57096">
        <ele>680.75</ele>
        <time>2014-09-07T08:45:17Z</time>
      </trkpt>
      <trkpt lat="43.81388" lon="3.57103">
        <ele>681.71</ele>
        <time>2014-09-07T08:45:28Z</time>
      </trkpt>
      <trkpt lat="43.81391" lon="3.57107">
        <ele>682.19</ele>
        <time>2014-09-07T08:45:33Z</time>
      </trkpt>
      <trkpt lat="43.81393" lon="3.57118">
        <ele>683.15</ele>
        <time>2014-09-07T08:45:42Z</time>
      </trkpt>
      <trkpt lat="43.81396" lon="3.57124">
        <ele>684.6</ele>
        <time>2014-09-07T08:45:48Z</time>
      </trkpt>
      <trkpt lat="43.81401" lon="3.57131">
        <ele>684.6</ele>
        <time>2014-09-07T08:45:56Z</time>
      </trkpt>
      <trkpt lat="43.81404" lon="3.57138">
        <ele>684.6</ele>
        <time>2014-09-07T08:46:04Z</time>
      </trkpt>
      <trkpt lat="43.81406" lon="3.5714">
        <ele>685.08</ele>
        <time>2014-09-07T08:46:07Z</time>
      </trkpt>
      <trkpt lat="43.81411" lon="3.5715">
        <ele>684.6</ele>
        <time>2014-09-07T08:46:17Z</time>
      </trkpt>
      <trkpt lat="43.81414" lon="3.5715">
        <ele>685.08</ele>
        <time>2014-09-07T08:46:19Z</time>
      </trkpt>
      <trkpt lat="43.81422" lon="3.57155">
        <ele>685.56</ele>
        <time>2014-09-07T08:46:28Z</time>
      </trkpt>
      <trkpt lat="43.81424" lon="3.5716">
        <ele>686.04</ele>
        <time>2014-09-07T08:46:32Z</time>
      </trkpt>
      <trkpt lat="43.81431" lon="3.57168">
        <ele>687.48</ele>
        <time>2014-09-07T08:46:42Z</time>
      </trkpt>
      <trkpt lat="43.81435" lon="3.57179">
        <ele>686.52</ele>
        <time>2014-09-07T08:46:50Z</time>
      </trkpt>
      <trkpt lat="43.81442" lon="3.57185">
        <ele>685.08</ele>
        <time>2014-09-07T08:46:58Z</time>
      </trkpt>
      <trkpt lat="43.81451" lon="3.57187">
        <ele>683.63</ele>
        <time>2014-09-07T08:47:07Z</time>
      </trkpt>
      <trkpt lat="43.81459" lon="3.57186">
        <ele>684.6</ele>
        <time>2014-09-07T08:47:15Z</time>
      </trkpt>
      <trkpt lat="43.81466" lon="3.57186">
        <ele>685.56</ele>
        <time>2014-09-07T08:47:21Z</time>
      </trkpt>
      <trkpt lat="43.81472" lon="3.57186">
        <ele>686.52</ele>
        <time>2014-09-07T08:47:28Z</time>
      </trkpt>
      <trkpt lat="43.81483" lon="3.5719">
        <ele>686.52</ele>
        <time>2014-09-07T08:47:38Z</time>
      </trkpt>
      <trkpt lat="43.81496" lon="3.57192">
        <ele>687.48</ele>
        <time>2014-09-07T08:47:49Z</time>
      </trkpt>
      <trkpt lat="43.81507" lon="3.57188">
        <ele>689.4</ele>
        <time>2014-09-07T08:47:58Z</time>
      </trkpt>
      <trkpt lat="43.81516" lon="3.57188">
        <ele>690.84</ele>
        <time>2014-09-07T08:48:08Z</time>
      </trkpt>
      <trkpt lat="43.81526" lon="3.5719">
        <ele>690.36</ele>
        <time>2014-09-07T08:48:17Z</time>
      </trkpt>
      <trkpt lat="43.81527" lon="3.57189">
        <ele>690.84</ele>
        <time>2014-09-07T08:48:18Z</time>
      </trkpt>
      <trkpt lat="43.81541" lon="3.57178">
        <ele>690.84</ele>
        <time>2014-09-07T08:48:32Z</time>
      </trkpt>
      <trkpt lat="43.8155" lon="3.57178">
        <ele>691.33</ele>
        <time>2014-09-07T08:48:41Z</time>
      </trkpt>
      <trkpt lat="43.81561" lon="3.57184">
        <ele>692.29</ele>
        <time>2014-09-07T08:48:54Z</time>
      </trkpt>
      <trkpt lat="43.81572" lon="3.57183">
        <ele>691.81</ele>
        <time>2014-09-07T08:49:06Z</time>
      </trkpt>
      <trkpt lat="43.81581" lon="3.57174">
        <ele>692.29</ele>
        <time>2014-09-07T08:49:18Z</time>
      </trkpt>
      <trkpt lat="43.81586" lon="3.57167">
        <ele>693.25</ele>
        <time>2014-09-07T08:49:27Z</time>
      </trkpt>
      <trkpt lat="43.81592" lon="3.57167">
        <ele>692.77</ele>
        <time>2014-09-07T08:49:33Z</time>
      </trkpt>
      <trkpt lat="43.81599" lon="3.5717">
        <ele>693.25</ele>
        <time>2014-09-07T08:49:39Z</time>
      </trkpt>
      <trkpt lat="43.81611" lon="3.57176">
        <ele>693.73</ele>
        <time>2014-09-07T08:49:50Z</time>
      </trkpt>
      <trkpt lat="43.81617" lon="3.57179">
        <ele>694.21</ele>
        <time>2014-09-07T08:49:58Z</time>
      </trkpt>
      <trkpt lat="43.8162" lon="3.57181">
        <ele>693.73</ele>
        <time>2014-09-07T08:50:00Z</time>
      </trkpt>
      <trkpt lat="43.81632" lon="3.57183">
        <ele>694.69</ele>
        <time>2014-09-07T08:50:10Z</time>
      </trkpt>
      <trkpt lat="43.81642" lon="3.57187">
        <ele>695.65</ele>
        <time>2014-09-07T08:50:22Z</time>
      </trkpt>
      <trkpt lat="43.81649" lon="3.57193">
        <ele>695.65</ele>
        <time>2014-09-07T08:50:29Z</time>
      </trkpt>
      <trkpt lat="43.81656" lon="3.57198">
        <ele>695.17</ele>
        <time>2014-09-07T08:50:39Z</time>
      </trkpt>
      <trkpt lat="43.81657" lon="3.57198">
        <ele>695.17</ele>
        <time>2014-09-07T08:50:40Z</time>
      </trkpt>
      <trkpt lat="43.81662" lon="3.57197">
        <ele>696.13</ele>
        <time>2014-09-07T08:50:44Z</time>
      </trkpt>
      <trkpt lat="43.81666" lon="3.57196">
        <ele>696.13</ele>
        <time>2014-09-07T08:50:48Z</time>
      </trkpt>
      <trkpt lat="43.81677" lon="3.57201">
        <ele>695.17</ele>
        <time>2014-09-07T08:50:57Z</time>
      </trkpt>
      <trkpt lat="43.81682" lon="3.57198">
        <ele>694.69</ele>
        <time>2014-09-07T08:51:02Z</time>
      </trkpt>
      <trkpt lat="43.81686" lon="3.57199">
        <ele>695.17</ele>
        <time>2014-09-07T08:51:06Z</time>
      </trkpt>
      <trkpt lat="43.81688" lon="3.57202">
        <ele>696.13</ele>
        <time>2014-09-07T08:51:09Z</time>
      </trkpt>
      <trkpt lat="43.81692" lon="3.57202">
        <ele>697.09</ele>
        <time>2014-09-07T08:51:13Z</time>
      </trkpt>
      <trkpt lat="43.81702" lon="3.57201">
        <ele>697.57</ele>
        <time>2014-09-07T08:51:23Z</time>
      </trkpt>
      <trkpt lat="43.81712" lon="3.57198">
        <ele>697.09</ele>
        <time>2014-09-07T08:51:32Z</time>
      </trkpt>
      <trkpt lat="43.81721" lon="3.57192">
        <ele>696.13</ele>
        <time>2014-09-07T08:51:43Z</time>
      </trkpt>
      <trkpt lat="43.81728" lon="3.5719">
        <ele>695.65</ele>
        <time>2014-09-07T08:51:51Z</time>
      </trkpt>
      <trkpt lat="43.81738" lon="3.57188">
        <ele>694.69</ele>
        <time>2014-09-07T08:52:03Z</time>
      </trkpt>
      <trkpt lat="43.81749" lon="3.57187">
        <ele>693.73</ele>
        <time>2014-09-07T08:52:13Z</time>
      </trkpt>
      <trkpt lat="43.81751" lon="3.57187">
        <ele>693.73</ele>
        <time>2014-09-07T08:52:14Z</time>
      </trkpt>
      <trkpt lat="43.81761" lon="3.57182">
        <ele>694.21</ele>
        <time>2014-09-07T08:52:23Z</time>
      </trkpt>
      <trkpt lat="43.81767" lon="3.57181">
        <ele>694.69</ele>
        <time>2014-09-07T08:52:28Z</time>
      </trkpt>
      <trkpt lat="43.81776" lon="3.57183">
        <ele>694.21</ele>
        <time>2014-09-07T08:52:35Z</time>
      </trkpt>
      <trkpt lat="43.81785" lon="3.57174">
        <ele>694.69</ele>
        <time>2014-09-07T08:52:45Z</time>
      </trkpt>
      <trkpt lat="43.81798" lon="3.5717">
        <ele>693.73</ele>
        <time>2014-09-07T08:52:56Z</time>
      </trkpt>
      <trkpt lat="43.81802" lon="3.57169">
        <ele>693.73</ele>
        <time>2014-09-07T08:53:00Z</time>
      </trkpt>
      <trkpt lat="43.81805" lon="3.57166">
        <ele>694.21</ele>
        <time>2014-09-07T08:53:03Z</time>
      </trkpt>
      <trkpt lat="43.81806" lon="3.5716">
        <ele>693.73</ele>
        <time>2014-09-07T08:53:07Z</time>
      </trkpt>
      <trkpt lat="43.81814" lon="3.57157">
        <ele>692.77</ele>
        <time>2014-09-07T08:53:15Z</time>
      </trkpt>
      <trkpt lat="43.81817" lon="3.57155">
        <ele>692.77</ele>
        <time>2014-09-07T08:53:18Z</time>
      </trkpt>
      <trkpt lat="43.81825" lon="3.57154">
        <ele>693.73</ele>
        <time>2014-09-07T08:53:28Z</time>
      </trkpt>
      <trkpt lat="43.81827" lon="3.57152">
        <ele>693.73</ele>
        <time>2014-09-07T08:53:30Z</time>
      </trkpt>
      <trkpt lat="43.81831" lon="3.57154">
        <ele>693.25</ele>
        <time>2014-09-07T08:53:34Z</time>
      </trkpt>
      <trkpt lat="43.81834" lon="3.57154">
        <ele>692.29</ele>
        <time>2014-09-07T08:53:36Z</time>
      </trkpt>
      <trkpt lat="43.81839" lon="3.57154">
        <ele>691.33</ele>
        <time>2014-09-07T08:53:47Z</time>
      </trkpt>
      <trkpt lat="43.81843" lon="3.57152">
        <ele>691.33</ele>
        <time>2014-09-07T08:53:52Z</time>
      </trkpt>
      <trkpt lat="43.81853" lon="3.57144">
        <ele>691.33</ele>
        <time>2014-09-07T08:54:02Z</time>
      </trkpt>
      <trkpt lat="43.81857" lon="3.57145">
        <ele>690.84</ele>
        <time>2014-09-07T08:54:06Z</time>
      </trkpt>
      <trkpt lat="43.81865" lon="3.5714">
        <ele>689.4</ele>
        <time>2014-09-07T08:54:16Z</time>
      </trkpt>
      <trkpt lat="43.81866" lon="3.57139">
        <ele>688.92</ele>
        <time>2014-09-07T08:54:36Z</time>
      </trkpt>
      <trkpt lat="43.81866" lon="3.57139">
        <ele>688.44</ele>
        <time>2014-09-07T08:55:02Z</time>
      </trkpt>
      <trkpt lat="43.81867" lon="3.57139">
        <ele>688.44</ele>
        <time>2014-09-07T08:55:18Z</time>
      </trkpt>
      <trkpt lat="43.81867" lon="3.57139">
        <ele>688.44</ele>
        <time>2014-09-07T08:55:40Z</time>
      </trkpt>
      <trkpt lat="43.81866" lon="3.57143">
        <ele>687.96</ele>
        <time>2014-09-07T08:56:09Z</time>
      </trkpt>
      <trkpt lat="43.81874" lon="3.5714">
        <ele>686.04</ele>
        <time>2014-09-07T08:56:19Z</time>
      </trkpt>
      <trkpt lat="43.81883" lon="3.57134">
        <ele>685.08</ele>
        <time>2014-09-07T08:56:28Z</time>
      </trkpt>
      <trkpt lat="43.81888" lon="3.57129">
        <ele>684.6</ele>
        <time>2014-09-07T08:56:34Z</time>
      </trkpt>
      <trkpt lat="43.81895" lon="3.57125">
        <ele>682.67</ele>
        <time>2014-09-07T08:56:42Z</time>
      </trkpt>
      <trkpt lat="43.81905" lon="3.57135">
        <ele>682.19</ele>
        <time>2014-09-07T08:56:52Z</time>
      </trkpt>
      <trkpt lat="43.81907" lon="3.57138">
        <ele>682.19</ele>
        <time>2014-09-07T08:56:54Z</time>
      </trkpt>
      <trkpt lat="43.81913" lon="3.57149">
        <ele>681.23</ele>
        <time>2014-09-07T08:57:02Z</time>
      </trkpt>
      <trkpt lat="43.81921" lon="3.5715">
        <ele>680.27</ele>
        <time>2014-09-07T08:57:12Z</time>
      </trkpt>
      <trkpt lat="43.81933" lon="3.57147">
        <ele>679.31</ele>
        <time>2014-09-07T08:57:24Z</time>
      </trkpt>
      <trkpt lat="43.81941" lon="3.57148">
        <ele>679.31</ele>
        <time>2014-09-07T08:57:33Z</time>
      </trkpt>
      <trkpt lat="43.81949" lon="3.57145">
        <ele>680.27</ele>
        <time>2014-09-07T08:57:44Z</time>
      </trkpt>
      <trkpt lat="43.81954" lon="3.57145">
        <ele>681.23</ele>
        <time>2014-09-07T08:57:50Z</time>
      </trkpt>
      <trkpt lat="43.81961" lon="3.57143">
        <ele>681.23</ele>
        <time>2014-09-07T08:58:00Z</time>
      </trkpt>
      <trkpt lat="43.81962" lon="3.57144">
        <ele>682.19</ele>
        <time>2014-09-07T08:58:10Z</time>
      </trkpt>
      <trkpt lat="43.81967" lon="3.57137">
        <ele>683.63</ele>
        <time>2014-09-07T08:58:18Z</time>
      </trkpt>
      <trkpt lat="43.81974" lon="3.57129">
        <ele>684.6</ele>
        <time>2014-09-07T08:58:30Z</time>
      </trkpt>
      <trkpt lat="43.81977" lon="3.57124">
        <ele>685.08</ele>
        <time>2014-09-07T08:58:34Z</time>
      </trkpt>
      <trkpt lat="43.81987" lon="3.57116">
        <ele>684.6</ele>
        <time>2014-09-07T08:58:45Z</time>
      </trkpt>
      <trkpt lat="43.81991" lon="3.5711">
        <ele>684.6</ele>
        <time>2014-09-07T08:58:52Z</time>
      </trkpt>
      <trkpt lat="43.82" lon="3.57099">
        <ele>683.63</ele>
        <time>2014-09-07T08:59:05Z</time>
      </trkpt>
      <trkpt lat="43.82007" lon="3.57089">
        <ele>682.19</ele>
        <time>2014-09-07T08:59:16Z</time>
      </trkpt>
      <trkpt lat="43.8201" lon="3.57084">
        <ele>682.19</ele>
        <time>2014-09-07T08:59:20Z</time>
      </trkpt>
      <trkpt lat="43.82023" lon="3.57081">
        <ele>681.23</ele>
        <time>2014-09-07T08:59:32Z</time>
      </trkpt>
      <trkpt lat="43.8203" lon="3.57085">
        <ele>679.31</ele>
        <time>2014-09-07T08:59:40Z</time>
      </trkpt>
      <trkpt lat="43.8204" lon="3.57094">
        <ele>677.87</ele>
        <time>2014-09-07T08:59:51Z</time>
      </trkpt>
      <trkpt lat="43.82045" lon="3.57111">
        <ele>676.91</ele>
        <time>2014-09-07T09:00:03Z</time>
      </trkpt>
      <trkpt lat="43.82046" lon="3.57114">
        <ele>676.42</ele>
        <time>2014-09-07T09:00:06Z</time>
      </trkpt>
      <trkpt lat="43.82048" lon="3.57118">
        <ele>676.42</ele>
        <time>2014-09-07T09:00:09Z</time>
      </trkpt>
      <trkpt lat="43.82051" lon="3.57129">
        <ele>675.46</ele>
        <time>2014-09-07T09:00:17Z</time>
      </trkpt>
      <trkpt lat="43.82048" lon="3.57142">
        <ele>674.98</ele>
        <time>2014-09-07T09:00:27Z</time>
      </trkpt>
      <trkpt lat="43.82048" lon="3.5715">
        <ele>674.02</ele>
        <time>2014-09-07T09:00:32Z</time>
      </trkpt>
      <trkpt lat="43.82057" lon="3.57159">
        <ele>672.1</ele>
        <time>2014-09-07T09:00:42Z</time>
      </trkpt>
      <trkpt lat="43.82057" lon="3.5716">
        <ele>671.62</ele>
        <time>2014-09-07T09:00:43Z</time>
      </trkpt>
      <trkpt lat="43.8206" lon="3.57166">
        <ele>670.18</ele>
        <time>2014-09-07T09:00:50Z</time>
      </trkpt>
      <trkpt lat="43.82063" lon="3.57175">
        <ele>668.73</ele>
        <time>2014-09-07T09:00:57Z</time>
      </trkpt>
      <trkpt lat="43.82067" lon="3.57178">
        <ele>668.25</ele>
        <time>2014-09-07T09:01:01Z</time>
      </trkpt>
      <trkpt lat="43.8207" lon="3.57184">
        <ele>668.25</ele>
        <time>2014-09-07T09:01:05Z</time>
      </trkpt>
      <trkpt lat="43.82073" lon="3.57187">
        <ele>667.29</ele>
        <time>2014-09-07T09:01:08Z</time>
      </trkpt>
      <trkpt lat="43.82081" lon="3.57194">
        <ele>665.85</ele>
        <time>2014-09-07T09:01:16Z</time>
      </trkpt>
      <trkpt lat="43.82082" lon="3.57195">
        <ele>666.33</ele>
        <time>2014-09-07T09:01:25Z</time>
      </trkpt>
      <trkpt lat="43.82084" lon="3.57196">
        <ele>665.85</ele>
        <time>2014-09-07T09:01:27Z</time>
      </trkpt>
      <trkpt lat="43.82088" lon="3.57198">
        <ele>664.41</ele>
        <time>2014-09-07T09:01:32Z</time>
      </trkpt>
      <trkpt lat="43.82091" lon="3.57201">
        <ele>663.45</ele>
        <time>2014-09-07T09:01:35Z</time>
      </trkpt>
      <trkpt lat="43.82102" lon="3.57203">
        <ele>661.04</ele>
        <time>2014-09-07T09:01:46Z</time>
      </trkpt>
      <trkpt lat="43.82103" lon="3.57204">
        <ele>661.52</ele>
        <time>2014-09-07T09:01:54Z</time>
      </trkpt>
      <trkpt lat="43.82107" lon="3.57207">
        <ele>660.56</ele>
        <time>2014-09-07T09:01:58Z</time>
      </trkpt>
      <trkpt lat="43.82111" lon="3.57209">
        <ele>659.6</ele>
        <time>2014-09-07T09:02:02Z</time>
      </trkpt>
      <trkpt lat="43.82118" lon="3.57219">
        <ele>659.6</ele>
        <time>2014-09-07T09:02:10Z</time>
      </trkpt>
      <trkpt lat="43.82129" lon="3.57228">
        <ele>661.04</ele>
        <time>2014-09-07T09:02:18Z</time>
      </trkpt>
      <trkpt lat="43.82136" lon="3.57233">
        <ele>663.93</ele>
        <time>2014-09-07T09:02:27Z</time>
      </trkpt>
      <trkpt lat="43.82144" lon="3.57238">
        <ele>665.85</ele>
        <time>2014-09-07T09:02:37Z</time>
      </trkpt>
      <trkpt lat="43.82156" lon="3.57244">
        <ele>666.81</ele>
        <time>2014-09-07T09:02:47Z</time>
      </trkpt>
      <trkpt lat="43.82159" lon="3.57245">
        <ele>667.29</ele>
        <time>2014-09-07T09:02:49Z</time>
      </trkpt>
      <trkpt lat="43.8217" lon="3.57244">
        <ele>668.73</ele>
        <time>2014-09-07T09:03:01Z</time>
      </trkpt>
      <trkpt lat="43.82181" lon="3.57246">
        <ele>668.25</ele>
        <time>2014-09-07T09:03:09Z</time>
      </trkpt>
      <trkpt lat="43.82182" lon="3.57253">
        <ele>668.25</ele>
        <time>2014-09-07T09:03:14Z</time>
      </trkpt>
      <trkpt lat="43.82184" lon="3.57257">
        <ele>667.77</ele>
        <time>2014-09-07T09:03:17Z</time>
      </trkpt>
      <trkpt lat="43.82189" lon="3.57262">
        <ele>666.33</ele>
        <time>2014-09-07T09:03:28Z</time>
      </trkpt>
      <trkpt lat="43.82194" lon="3.57262">
        <ele>667.29</ele>
        <time>2014-09-07T09:03:33Z</time>
      </trkpt>
      <trkpt lat="43.82197" lon="3.57267">
        <ele>666.33</ele>
        <time>2014-09-07T09:03:39Z</time>
      </trkpt>
      <trkpt lat="43.82199" lon="3.57275">
        <ele>665.85</ele>
        <time>2014-09-07T09:03:45Z</time>
      </trkpt>
      <trkpt lat="43.822" lon="3.57278">
        <ele>665.37</ele>
        <time>2014-09-07T09:03:47Z</time>
      </trkpt>
      <trkpt lat="43.82202" lon="3.57295">
        <ele>663.45</ele>
        <time>2014-09-07T09:03:57Z</time>
      </trkpt>
      <trkpt lat="43.82205" lon="3.57303">
        <ele>662.01</ele>
        <time>2014-09-07T09:04:03Z</time>
      </trkpt>
      <trkpt lat="43.82206" lon="3.57305">
        <ele>661.52</ele>
        <time>2014-09-07T09:04:05Z</time>
      </trkpt>
      <trkpt lat="43.8221" lon="3.57317">
        <ele>659.6</ele>
        <time>2014-09-07T09:04:14Z</time>
      </trkpt>
      <trkpt lat="43.82212" lon="3.57328">
        <ele>660.08</ele>
        <time>2014-09-07T09:04:21Z</time>
      </trkpt>
      <trkpt lat="43.82212" lon="3.57336">
        <ele>659.6</ele>
        <time>2014-09-07T09:04:26Z</time>
      </trkpt>
      <trkpt lat="43.82213" lon="3.57341">
        <ele>660.08</ele>
        <time>2014-09-07T09:04:29Z</time>
      </trkpt>
      <trkpt lat="43.82213" lon="3.5735">
        <ele>660.56</ele>
        <time>2014-09-07T09:04:34Z</time>
      </trkpt>
      <trkpt lat="43.82214" lon="3.57357">
        <ele>660.56</ele>
        <time>2014-09-07T09:04:38Z</time>
      </trkpt>
      <trkpt lat="43.82216" lon="3.57367">
        <ele>660.56</ele>
        <time>2014-09-07T09:04:46Z</time>
      </trkpt>
      <trkpt lat="43.82216" lon="3.57371">
        <ele>661.04</ele>
        <time>2014-09-07T09:04:58Z</time>
      </trkpt>
      <trkpt lat="43.82216" lon="3.57372">
        <ele>661.52</ele>
        <time>2014-09-07T09:05:07Z</time>
      </trkpt>
      <trkpt lat="43.82217" lon="3.57382">
        <ele>661.04</ele>
        <time>2014-09-07T09:05:17Z</time>
      </trkpt>
      <trkpt lat="43.82218" lon="3.57384">
        <ele>661.04</ele>
        <time>2014-09-07T09:05:21Z</time>
      </trkpt>
      <trkpt lat="43.8223" lon="3.57392">
        <ele>662.49</ele>
        <time>2014-09-07T09:05:31Z</time>
      </trkpt>
      <trkpt lat="43.82242" lon="3.57396">
        <ele>663.93</ele>
        <time>2014-09-07T09:05:42Z</time>
      </trkpt>
      <trkpt lat="43.82249" lon="3.57401">
        <ele>662.97</ele>
        <time>2014-09-07T09:05:50Z</time>
      </trkpt>
      <trkpt lat="43.8226" lon="3.57403">
        <ele>661.52</ele>
        <time>2014-09-07T09:06:00Z</time>
      </trkpt>
      <trkpt lat="43.82262" lon="3.57403">
        <ele>661.04</ele>
        <time>2014-09-07T09:06:02Z</time>
      </trkpt>
      <trkpt lat="43.82273" lon="3.5741">
        <ele>658.64</ele>
        <time>2014-09-07T09:06:13Z</time>
      </trkpt>
      <trkpt lat="43.82277" lon="3.57415">
        <ele>657.2</ele>
        <time>2014-09-07T09:06:18Z</time>
      </trkpt>
      <trkpt lat="43.8228" lon="3.57415">
        <ele>656.24</ele>
        <time>2014-09-07T09:06:22Z</time>
      </trkpt>
      <trkpt lat="43.82291" lon="3.57419">
        <ele>654.8</ele>
        <time>2014-09-07T09:06:32Z</time>
      </trkpt>
      <trkpt lat="43.82297" lon="3.57425">
        <ele>654.31</ele>
        <time>2014-09-07T09:06:39Z</time>
      </trkpt>
      <trkpt lat="43.82302" lon="3.57428">
        <ele>653.35</ele>
        <time>2014-09-07T09:06:43Z</time>
      </trkpt>
      <trkpt lat="43.82307" lon="3.57429">
        <ele>652.87</ele>
        <time>2014-09-07T09:06:48Z</time>
      </trkpt>
      <trkpt lat="43.82308" lon="3.57431">
        <ele>651.91</ele>
        <time>2014-09-07T09:06:50Z</time>
      </trkpt>
      <trkpt lat="43.82315" lon="3.57435">
        <ele>650.47</ele>
        <time>2014-09-07T09:06:58Z</time>
      </trkpt>
      <trkpt lat="43.82322" lon="3.5744">
        <ele>647.59</ele>
        <time>2014-09-07T09:07:09Z</time>
      </trkpt>
      <trkpt lat="43.82322" lon="3.5744">
        <ele>645.18</ele>
        <time>2014-09-07T09:07:33Z</time>
      </trkpt>
      <trkpt lat="43.82333" lon="3.5744">
        <ele>645.18</ele>
        <time>2014-09-07T09:07:42Z</time>
      </trkpt>
      <trkpt lat="43.82344" lon="3.57437">
        <ele>644.22</ele>
        <time>2014-09-07T09:07:55Z</time>
      </trkpt>
      <trkpt lat="43.82351" lon="3.57434">
        <ele>643.74</ele>
        <time>2014-09-07T09:08:04Z</time>
      </trkpt>
      <trkpt lat="43.82355" lon="3.57434">
        <ele>643.74</ele>
        <time>2014-09-07T09:08:07Z</time>
      </trkpt>
      <trkpt lat="43.82365" lon="3.57436">
        <ele>642.3</ele>
        <time>2014-09-07T09:08:18Z</time>
      </trkpt>
      <trkpt lat="43.82366" lon="3.57439">
        <ele>642.78</ele>
        <time>2014-09-07T09:08:29Z</time>
      </trkpt>
      <trkpt lat="43.82364" lon="3.57449">
        <ele>642.78</ele>
        <time>2014-09-07T09:08:38Z</time>
      </trkpt>
      <trkpt lat="43.82367" lon="3.57462">
        <ele>643.74</ele>
        <time>2014-09-07T09:08:48Z</time>
      </trkpt>
      <trkpt lat="43.82377" lon="3.57468">
        <ele>644.7</ele>
        <time>2014-09-07T09:09:01Z</time>
      </trkpt>
      <trkpt lat="43.82386" lon="3.57473">
        <ele>644.7</ele>
        <time>2014-09-07T09:09:17Z</time>
      </trkpt>
      <trkpt lat="43.82387" lon="3.57472">
        <ele>644.22</ele>
        <time>2014-09-07T09:09:32Z</time>
      </trkpt>
      <trkpt lat="43.82385" lon="3.57472">
        <ele>642.78</ele>
        <time>2014-09-07T09:09:46Z</time>
      </trkpt>
      <trkpt lat="43.82379" lon="3.57461">
        <ele>643.74</ele>
        <time>2014-09-07T09:09:56Z</time>
      </trkpt>
      <trkpt lat="43.82366" lon="3.57453">
        <ele>644.7</ele>
        <time>2014-09-07T09:10:10Z</time>
      </trkpt>
      <trkpt lat="43.82365" lon="3.5745">
        <ele>645.18</ele>
        <time>2014-09-07T09:10:26Z</time>
      </trkpt>
      <trkpt lat="43.82366" lon="3.5745">
        <ele>645.66</ele>
        <time>2014-09-07T09:10:50Z</time>
      </trkpt>
      <trkpt lat="43.82365" lon="3.57445">
        <ele>645.18</ele>
        <time>2014-09-07T09:11:04Z</time>
      </trkpt>
      <trkpt lat="43.82365" lon="3.57443">
        <ele>645.66</ele>
        <time>2014-09-07T09:11:23Z</time>
      </trkpt>
      <trkpt lat="43.82365" lon="3.57441">
        <ele>645.66</ele>
        <time>2014-09-07T09:11:47Z</time>
      </trkpt>
      <trkpt lat="43.82366" lon="3.57441">
        <ele>645.66</ele>
        <time>2014-09-07T09:12:12Z</time>
      </trkpt>
      <trkpt lat="43.82366" lon="3.57441">
        <ele>645.66</ele>
        <time>2014-09-07T09:12:42Z</time>
      </trkpt>
      <trkpt lat="43.82366" lon="3.5744">
        <ele>645.18</ele>
        <time>2014-09-07T09:13:04Z</time>
      </trkpt>
      <trkpt lat="43.82366" lon="3.5744">
        <ele>644.22</ele>
        <time>2014-09-07T09:13:33Z</time>
      </trkpt>
      <trkpt lat="43.82366" lon="3.57439">
        <ele>642.78</ele>
        <time>2014-09-07T09:13:59Z</time>
      </trkpt>
      <trkpt lat="43.82367" lon="3.57438">
        <ele>642.3</ele>
        <time>2014-09-07T09:14:23Z</time>
      </trkpt>
      <trkpt lat="43.82366" lon="3.57437">
        <ele>642.3</ele>
        <time>2014-09-07T09:14:49Z</time>
      </trkpt>
      <trkpt lat="43.82358" lon="3.57436">
        <ele>644.7</ele>
        <time>2014-09-07T09:15:00Z</time>
      </trkpt>
      <trkpt lat="43.82348" lon="3.5744">
        <ele>647.1</ele>
        <time>2014-09-07T09:15:11Z</time>
      </trkpt>
      <trkpt lat="43.82338" lon="3.57442">
        <ele>649.03</ele>
        <time>2014-09-07T09:15:22Z</time>
      </trkpt>
      <trkpt lat="43.8233" lon="3.57445">
        <ele>650.95</ele>
        <time>2014-09-07T09:15:34Z</time>
      </trkpt>
      <trkpt lat="43.82322" lon="3.57443">
        <ele>653.83</ele>
        <time>2014-09-07T09:15:45Z</time>
      </trkpt>
      <trkpt lat="43.82314" lon="3.57438">
        <ele>657.68</ele>
        <time>2014-09-07T09:15:57Z</time>
      </trkpt>
      <trkpt lat="43.82304" lon="3.57432">
        <ele>659.12</ele>
        <time>2014-09-07T09:16:11Z</time>
      </trkpt>
      <trkpt lat="43.82295" lon="3.57424">
        <ele>660.56</ele>
        <time>2014-09-07T09:16:27Z</time>
      </trkpt>
      <trkpt lat="43.82285" lon="3.57418">
        <ele>660.56</ele>
        <time>2014-09-07T09:16:40Z</time>
      </trkpt>
      <trkpt lat="43.82278" lon="3.57416">
        <ele>662.01</ele>
        <time>2014-09-07T09:16:52Z</time>
      </trkpt>
      <trkpt lat="43.82268" lon="3.57408">
        <ele>662.49</ele>
        <time>2014-09-07T09:17:04Z</time>
      </trkpt>
      <trkpt lat="43.82267" lon="3.57408">
        <ele>662.49</ele>
        <time>2014-09-07T09:17:10Z</time>
      </trkpt>
      <trkpt lat="43.82268" lon="3.57417">
        <ele>662.97</ele>
        <time>2014-09-07T09:17:19Z</time>
      </trkpt>
      <trkpt lat="43.82267" lon="3.57423">
        <ele>662.97</ele>
        <time>2014-09-07T09:17:32Z</time>
      </trkpt>
      <trkpt lat="43.82271" lon="3.57424">
        <ele>663.45</ele>
        <time>2014-09-07T09:17:45Z</time>
      </trkpt>
      <trkpt lat="43.82268" lon="3.57424">
        <ele>663.45</ele>
        <time>2014-09-07T09:18:04Z</time>
      </trkpt>
      <trkpt lat="43.82268" lon="3.57421">
        <ele>662.97</ele>
        <time>2014-09-07T09:18:08Z</time>
      </trkpt>
      <trkpt lat="43.82266" lon="3.57406">
        <ele>662.01</ele>
        <time>2014-09-07T09:18:19Z</time>
      </trkpt>
      <trkpt lat="43.82261" lon="3.57403">
        <ele>662.01</ele>
        <time>2014-09-07T09:18:24Z</time>
      </trkpt>
      <trkpt lat="43.8225" lon="3.57402">
        <ele>662.01</ele>
        <time>2014-09-07T09:18:34Z</time>
      </trkpt>
      <trkpt lat="43.82246" lon="3.57404">
        <ele>662.49</ele>
        <time>2014-09-07T09:18:39Z</time>
      </trkpt>
      <trkpt lat="43.82237" lon="3.57409">
        <ele>663.93</ele>
        <time>2014-09-07T09:18:50Z</time>
      </trkpt>
      <trkpt lat="43.82232" lon="3.57417">
        <ele>664.41</ele>
        <time>2014-09-07T09:18:57Z</time>
      </trkpt>
      <trkpt lat="43.8223" lon="3.57422">
        <ele>665.37</ele>
        <time>2014-09-07T09:19:06Z</time>
      </trkpt>
      <trkpt lat="43.82231" lon="3.57432">
        <ele>665.37</ele>
        <time>2014-09-07T09:19:17Z</time>
      </trkpt>
      <trkpt lat="43.82232" lon="3.57433">
        <ele>665.37</ele>
        <time>2014-09-07T09:19:19Z</time>
      </trkpt>
      <trkpt lat="43.82234" lon="3.57442">
        <ele>665.37</ele>
        <time>2014-09-07T09:19:27Z</time>
      </trkpt>
      <trkpt lat="43.82242" lon="3.57451">
        <ele>665.37</ele>
        <time>2014-09-07T09:19:37Z</time>
      </trkpt>
      <trkpt lat="43.8225" lon="3.5746">
        <ele>666.81</ele>
        <time>2014-09-07T09:19:47Z</time>
      </trkpt>
      <trkpt lat="43.82255" lon="3.57469">
        <ele>665.37</ele>
        <time>2014-09-07T09:19:56Z</time>
      </trkpt>
      <trkpt lat="43.82258" lon="3.57478">
        <ele>664.89</ele>
        <time>2014-09-07T09:20:03Z</time>
      </trkpt>
      <trkpt lat="43.82265" lon="3.57487">
        <ele>664.41</ele>
        <time>2014-09-07T09:20:15Z</time>
      </trkpt>
      <trkpt lat="43.82267" lon="3.57488">
        <ele>664.41</ele>
        <time>2014-09-07T09:20:18Z</time>
      </trkpt>
      <trkpt lat="43.82278" lon="3.57496">
        <ele>666.33</ele>
        <time>2014-09-07T09:20:30Z</time>
      </trkpt>
      <trkpt lat="43.82282" lon="3.57502">
        <ele>665.37</ele>
        <time>2014-09-07T09:20:36Z</time>
      </trkpt>
      <trkpt lat="43.82288" lon="3.57513">
        <ele>665.85</ele>
        <time>2014-09-07T09:20:47Z</time>
      </trkpt>
      <trkpt lat="43.82295" lon="3.57523">
        <ele>666.81</ele>
        <time>2014-09-07T09:21:00Z</time>
      </trkpt>
      <trkpt lat="43.82308" lon="3.57532">
        <ele>667.29</ele>
        <time>2014-09-07T09:21:15Z</time>
      </trkpt>
      <trkpt lat="43.82318" lon="3.57538">
        <ele>666.81</ele>
        <time>2014-09-07T09:21:27Z</time>
      </trkpt>
      <trkpt lat="43.82322" lon="3.57549">
        <ele>667.29</ele>
        <time>2014-09-07T09:21:38Z</time>
      </trkpt>
      <trkpt lat="43.82332" lon="3.57556">
        <ele>669.22</ele>
        <time>2014-09-07T09:21:52Z</time>
      </trkpt>
      <trkpt lat="43.82336" lon="3.57566">
        <ele>669.7</ele>
        <time>2014-09-07T09:22:02Z</time>
      </trkpt>
      <trkpt lat="43.82339" lon="3.57571">
        <ele>670.18</ele>
        <time>2014-09-07T09:22:08Z</time>
      </trkpt>
      <trkpt lat="43.82346" lon="3.57584">
        <ele>671.14</ele>
        <time>2014-09-07T09:22:20Z</time>
      </trkpt>
      <trkpt lat="43.82351" lon="3.57592">
        <ele>673.06</ele>
        <time>2014-09-07T09:22:31Z</time>
      </trkpt>
      <trkpt lat="43.8236" lon="3.57593">
        <ele>674.02</ele>
        <time>2014-09-07T09:22:44Z</time>
      </trkpt>
      <trkpt lat="43.82362" lon="3.57594">
        <ele>674.02</ele>
        <time>2014-09-07T09:22:58Z</time>
      </trkpt>
      <trkpt lat="43.82377" lon="3.576">
        <ele>675.94</ele>
        <time>2014-09-07T09:23:10Z</time>
      </trkpt>
      <trkpt lat="43.82386" lon="3.57606">
        <ele>676.42</ele>
        <time>2014-09-07T09:23:22Z</time>
      </trkpt>
      <trkpt lat="43.82394" lon="3.57612">
        <ele>676.42</ele>
        <time>2014-09-07T09:23:35Z</time>
      </trkpt>
      <trkpt lat="43.82403" lon="3.57624">
        <ele>676.42</ele>
        <time>2014-09-07T09:23:49Z</time>
      </trkpt>
      <trkpt lat="43.82401" lon="3.57631">
        <ele>678.35</ele>
        <time>2014-09-07T09:24:01Z</time>
      </trkpt>
      <trkpt lat="43.82408" lon="3.57633">
        <ele>680.27</ele>
        <time>2014-09-07T09:24:13Z</time>
      </trkpt>
      <trkpt lat="43.82408" lon="3.57638">
        <ele>680.27</ele>
        <time>2014-09-07T09:24:21Z</time>
      </trkpt>
      <trkpt lat="43.82408" lon="3.57643">
        <ele>680.75</ele>
        <time>2014-09-07T09:24:31Z</time>
      </trkpt>
      <trkpt lat="43.82406" lon="3.5765">
        <ele>681.23</ele>
        <time>2014-09-07T09:24:41Z</time>
      </trkpt>
      <trkpt lat="43.82402" lon="3.57656">
        <ele>681.71</ele>
        <time>2014-09-07T09:24:52Z</time>
      </trkpt>
      <trkpt lat="43.82401" lon="3.57665">
        <ele>683.63</ele>
        <time>2014-09-07T09:25:02Z</time>
      </trkpt>
      <trkpt lat="43.82407" lon="3.57671">
        <ele>684.6</ele>
        <time>2014-09-07T09:25:14Z</time>
      </trkpt>
      <trkpt lat="43.82408" lon="3.5768">
        <ele>684.12</ele>
        <time>2014-09-07T09:25:28Z</time>
      </trkpt>
      <trkpt lat="43.82409" lon="3.57687">
        <ele>685.08</ele>
        <time>2014-09-07T09:25:39Z</time>
      </trkpt>
      <trkpt lat="43.82411" lon="3.57695">
        <ele>687.48</ele>
        <time>2014-09-07T09:25:50Z</time>
      </trkpt>
      <trkpt lat="43.82413" lon="3.57703">
        <ele>687</ele>
        <time>2014-09-07T09:26:00Z</time>
      </trkpt>
      <trkpt lat="43.82415" lon="3.5771">
        <ele>687.48</ele>
        <time>2014-09-07T09:26:10Z</time>
      </trkpt>
      <trkpt lat="43.82415" lon="3.57715">
        <ele>688.44</ele>
        <time>2014-09-07T09:26:22Z</time>
      </trkpt>
      <trkpt lat="43.82412" lon="3.57724">
        <ele>690.84</ele>
        <time>2014-09-07T09:26:34Z</time>
      </trkpt>
      <trkpt lat="43.82409" lon="3.57728">
        <ele>692.29</ele>
        <time>2014-09-07T09:26:44Z</time>
      </trkpt>
      <trkpt lat="43.82408" lon="3.57732">
        <ele>693.73</ele>
        <time>2014-09-07T09:26:56Z</time>
      </trkpt>
      <trkpt lat="43.82404" lon="3.57739">
        <ele>695.65</ele>
        <time>2014-09-07T09:27:07Z</time>
      </trkpt>
      <trkpt lat="43.82401" lon="3.57741">
        <ele>696.13</ele>
        <time>2014-09-07T09:27:19Z</time>
      </trkpt>
      <trkpt lat="43.82402" lon="3.57743">
        <ele>697.09</ele>
        <time>2014-09-07T09:27:30Z</time>
      </trkpt>
      <trkpt lat="43.82405" lon="3.57745">
        <ele>697.09</ele>
        <time>2014-09-07T09:27:40Z</time>
      </trkpt>
      <trkpt lat="43.82407" lon="3.57751">
        <ele>697.57</ele>
        <time>2014-09-07T09:27:51Z</time>
      </trkpt>
      <trkpt lat="43.82409" lon="3.5776">
        <ele>699.02</ele>
        <time>2014-09-07T09:28:00Z</time>
      </trkpt>
      <trkpt lat="43.82409" lon="3.57767">
        <ele>699.02</ele>
        <time>2014-09-07T09:28:09Z</time>
      </trkpt>
      <trkpt lat="43.82411" lon="3.57774">
        <ele>699.5</ele>
        <time>2014-09-07T09:28:19Z</time>
      </trkpt>
      <trkpt lat="43.82412" lon="3.57782">
        <ele>698.05</ele>
        <time>2014-09-07T09:28:29Z</time>
      </trkpt>
      <trkpt lat="43.82413" lon="3.57787">
        <ele>698.05</ele>
        <time>2014-09-07T09:28:39Z</time>
      </trkpt>
      <trkpt lat="43.82416" lon="3.57793">
        <ele>698.53</ele>
        <time>2014-09-07T09:28:55Z</time>
      </trkpt>
      <trkpt lat="43.82417" lon="3.57796">
        <ele>698.53</ele>
        <time>2014-09-07T09:29:11Z</time>
      </trkpt>
      <trkpt lat="43.82418" lon="3.57797">
        <ele>698.05</ele>
        <time>2014-09-07T09:29:32Z</time>
      </trkpt>
      <trkpt lat="43.82419" lon="3.57799">
        <ele>698.05</ele>
        <time>2014-09-07T09:29:53Z</time>
      </trkpt>
      <trkpt lat="43.82419" lon="3.578">
        <ele>698.05</ele>
        <time>2014-09-07T09:30:18Z</time>
      </trkpt>
      <trkpt lat="43.82421" lon="3.57802">
        <ele>697.57</ele>
        <time>2014-09-07T09:30:41Z</time>
      </trkpt>
      <trkpt lat="43.8242" lon="3.57803">
        <ele>698.05</ele>
        <time>2014-09-07T09:31:00Z</time>
      </trkpt>
      <trkpt lat="43.8242" lon="3.57804">
        <ele>698.05</ele>
        <time>2014-09-07T09:31:19Z</time>
      </trkpt>
      <trkpt lat="43.82419" lon="3.57804">
        <ele>698.53</ele>
        <time>2014-09-07T09:31:44Z</time>
      </trkpt>
      <trkpt lat="43.82419" lon="3.57805">
        <ele>698.53</ele>
        <time>2014-09-07T09:32:10Z</time>
      </trkpt>
      <trkpt lat="43.82419" lon="3.57806">
        <ele>699.5</ele>
        <time>2014-09-07T09:32:35Z</time>
      </trkpt>
      <trkpt lat="43.82419" lon="3.5781">
        <ele>700.46</ele>
        <time>2014-09-07T09:32:46Z</time>
      </trkpt>
      <trkpt lat="43.82423" lon="3.57818">
        <ele>701.42</ele>
        <time>2014-09-07T09:32:54Z</time>
      </trkpt>
      <trkpt lat="43.82421" lon="3.57826">
        <ele>701.42</ele>
        <time>2014-09-07T09:33:03Z</time>
      </trkpt>
      <trkpt lat="43.82423" lon="3.57833">
        <ele>700.94</ele>
        <time>2014-09-07T09:33:12Z</time>
      </trkpt>
      <trkpt lat="43.82423" lon="3.5784">
        <ele>702.38</ele>
        <time>2014-09-07T09:33:22Z</time>
      </trkpt>
      <trkpt lat="43.82427" lon="3.57848">
        <ele>703.34</ele>
        <time>2014-09-07T09:33:32Z</time>
      </trkpt>
      <trkpt lat="43.82431" lon="3.57858">
        <ele>703.34</ele>
        <time>2014-09-07T09:33:41Z</time>
      </trkpt>
      <trkpt lat="43.8244" lon="3.57865">
        <ele>702.38</ele>
        <time>2014-09-07T09:33:52Z</time>
      </trkpt>
      <trkpt lat="43.82445" lon="3.57871">
        <ele>702.38</ele>
        <time>2014-09-07T09:34:01Z</time>
      </trkpt>
      <trkpt lat="43.82445" lon="3.57871">
        <ele>702.38</ele>
        <time>2014-09-07T09:34:02Z</time>
      </trkpt>
      <trkpt lat="43.82448" lon="3.5788">
        <ele>702.86</ele>
        <time>2014-09-07T09:34:11Z</time>
      </trkpt>
      <trkpt lat="43.82449" lon="3.57884">
        <ele>703.82</ele>
        <time>2014-09-07T09:34:21Z</time>
      </trkpt>
      <trkpt lat="43.82449" lon="3.57884">
        <ele>704.3</ele>
        <time>2014-09-07T09:34:26Z</time>
      </trkpt>
      <trkpt lat="43.82451" lon="3.57892">
        <ele>704.78</ele>
        <time>2014-09-07T09:34:36Z</time>
      </trkpt>
      <trkpt lat="43.82453" lon="3.57908">
        <ele>705.26</ele>
        <time>2014-09-07T09:34:48Z</time>
      </trkpt>
      <trkpt lat="43.82462" lon="3.57921">
        <ele>707.19</ele>
        <time>2014-09-07T09:35:00Z</time>
      </trkpt>
      <trkpt lat="43.82469" lon="3.57925">
        <ele>707.67</ele>
        <time>2014-09-07T09:35:08Z</time>
      </trkpt>
      <trkpt lat="43.82475" lon="3.57937">
        <ele>707.67</ele>
        <time>2014-09-07T09:35:21Z</time>
      </trkpt>
      <trkpt lat="43.82476" lon="3.57946">
        <ele>707.19</ele>
        <time>2014-09-07T09:35:32Z</time>
      </trkpt>
      <trkpt lat="43.8248" lon="3.57955">
        <ele>706.23</ele>
        <time>2014-09-07T09:35:43Z</time>
      </trkpt>
      <trkpt lat="43.82483" lon="3.57966">
        <ele>706.71</ele>
        <time>2014-09-07T09:35:55Z</time>
      </trkpt>
      <trkpt lat="43.82482" lon="3.57969">
        <ele>708.15</ele>
        <time>2014-09-07T09:36:07Z</time>
      </trkpt>
      <trkpt lat="43.82482" lon="3.57975">
        <ele>710.55</ele>
        <time>2014-09-07T09:36:15Z</time>
      </trkpt>
      <trkpt lat="43.82482" lon="3.57979">
        <ele>711.99</ele>
        <time>2014-09-07T09:36:31Z</time>
      </trkpt>
      <trkpt lat="43.82483" lon="3.57989">
        <ele>712.47</ele>
        <time>2014-09-07T09:36:41Z</time>
      </trkpt>
      <trkpt lat="43.82484" lon="3.57995">
        <ele>712.47</ele>
        <time>2014-09-07T09:36:50Z</time>
      </trkpt>
      <trkpt lat="43.82488" lon="3.58007">
        <ele>713.44</ele>
        <time>2014-09-07T09:37:00Z</time>
      </trkpt>
      <trkpt lat="43.8249" lon="3.58017">
        <ele>714.88</ele>
        <time>2014-09-07T09:37:12Z</time>
      </trkpt>
      <trkpt lat="43.82491" lon="3.58024">
        <ele>715.84</ele>
        <time>2014-09-07T09:37:22Z</time>
      </trkpt>
      <trkpt lat="43.82493" lon="3.58029">
        <ele>716.32</ele>
        <time>2014-09-07T09:37:33Z</time>
      </trkpt>
      <trkpt lat="43.82496" lon="3.58039">
        <ele>719.2</ele>
        <time>2014-09-07T09:37:43Z</time>
      </trkpt>
      <trkpt lat="43.82496" lon="3.58048">
        <ele>721.61</ele>
        <time>2014-09-07T09:37:57Z</time>
      </trkpt>
      <trkpt lat="43.82498" lon="3.58058">
        <ele>723.05</ele>
        <time>2014-09-07T09:38:08Z</time>
      </trkpt>
      <trkpt lat="43.82498" lon="3.58067">
        <ele>724.01</ele>
        <time>2014-09-07T09:38:18Z</time>
      </trkpt>
      <trkpt lat="43.82499" lon="3.58074">
        <ele>724.01</ele>
        <time>2014-09-07T09:38:31Z</time>
      </trkpt>
      <trkpt lat="43.82498" lon="3.58075">
        <ele>725.45</ele>
        <time>2014-09-07T09:38:57Z</time>
      </trkpt>
      <trkpt lat="43.82497" lon="3.58077">
        <ele>727.37</ele>
        <time>2014-09-07T09:39:30Z</time>
      </trkpt>
      <trkpt lat="43.82497" lon="3.58076">
        <ele>727.86</ele>
        <time>2014-09-07T09:39:50Z</time>
      </trkpt>
      <trkpt lat="43.82496" lon="3.58077">
        <ele>730.26</ele>
        <time>2014-09-07T09:40:23Z</time>
      </trkpt>
      <trkpt lat="43.82495" lon="3.58076">
        <ele>730.74</ele>
        <time>2014-09-07T09:40:33Z</time>
      </trkpt>
      <trkpt lat="43.82493" lon="3.58081">
        <ele>731.22</ele>
        <time>2014-09-07T09:40:45Z</time>
      </trkpt>
      <trkpt lat="43.82497" lon="3.58089">
        <ele>732.66</ele>
        <time>2014-09-07T09:40:59Z</time>
      </trkpt>
      <trkpt lat="43.82505" lon="3.58096">
        <ele>735.55</ele>
        <time>2014-09-07T09:41:14Z</time>
      </trkpt>
      <trkpt lat="43.82507" lon="3.58106">
        <ele>739.39</ele>
        <time>2014-09-07T09:41:30Z</time>
      </trkpt>
      <trkpt lat="43.82507" lon="3.58116">
        <ele>741.79</ele>
        <time>2014-09-07T09:41:44Z</time>
      </trkpt>
      <trkpt lat="43.82505" lon="3.58124">
        <ele>746.12</ele>
        <time>2014-09-07T09:41:59Z</time>
      </trkpt>
      <trkpt lat="43.82505" lon="3.58129">
        <ele>748.52</ele>
        <time>2014-09-07T09:42:11Z</time>
      </trkpt>
      <trkpt lat="43.8251" lon="3.58134">
        <ele>751.89</ele>
        <time>2014-09-07T09:42:22Z</time>
      </trkpt>
      <trkpt lat="43.8251" lon="3.58141">
        <ele>753.81</ele>
        <time>2014-09-07T09:42:36Z</time>
      </trkpt>
      <trkpt lat="43.8251" lon="3.58142">
        <ele>755.25</ele>
        <time>2014-09-07T09:42:56Z</time>
      </trkpt>
      <trkpt lat="43.82509" lon="3.58142">
        <ele>755.73</ele>
        <time>2014-09-07T09:43:14Z</time>
      </trkpt>
      <trkpt lat="43.82521" lon="3.58143">
        <ele>756.21</ele>
        <time>2014-09-07T09:43:27Z</time>
      </trkpt>
      <trkpt lat="43.82525" lon="3.58148">
        <ele>758.14</ele>
        <time>2014-09-07T09:43:41Z</time>
      </trkpt>
      <trkpt lat="43.82533" lon="3.58147">
        <ele>760.06</ele>
        <time>2014-09-07T09:43:55Z</time>
      </trkpt>
      <trkpt lat="43.82537" lon="3.5815">
        <ele>759.1</ele>
        <time>2014-09-07T09:44:10Z</time>
      </trkpt>
      <trkpt lat="43.82536" lon="3.5815">
        <ele>758.62</ele>
        <time>2014-09-07T09:44:37Z</time>
      </trkpt>
      <trkpt lat="43.8254" lon="3.58156">
        <ele>759.1</ele>
        <time>2014-09-07T09:44:48Z</time>
      </trkpt>
      <trkpt lat="43.82535" lon="3.58163">
        <ele>761.5</ele>
        <time>2014-09-07T09:44:59Z</time>
      </trkpt>
      <trkpt lat="43.82531" lon="3.5817">
        <ele>764.39</ele>
        <time>2014-09-07T09:45:12Z</time>
      </trkpt>
      <trkpt lat="43.82532" lon="3.58178">
        <ele>766.79</ele>
        <time>2014-09-07T09:45:24Z</time>
      </trkpt>
      <trkpt lat="43.82532" lon="3.58183">
        <ele>768.71</ele>
        <time>2014-09-07T09:45:34Z</time>
      </trkpt>
      <trkpt lat="43.82534" lon="3.58186">
        <ele>770.15</ele>
        <time>2014-09-07T09:45:44Z</time>
      </trkpt>
      <trkpt lat="43.82532" lon="3.58191">
        <ele>770.63</ele>
        <time>2014-09-07T09:45:57Z</time>
      </trkpt>
      <trkpt lat="43.82533" lon="3.58191">
        <ele>771.11</ele>
        <time>2014-09-07T09:46:26Z</time>
      </trkpt>
      <trkpt lat="43.82532" lon="3.5819">
        <ele>771.11</ele>
        <time>2014-09-07T09:46:52Z</time>
      </trkpt>
      <trkpt lat="43.8253" lon="3.58194">
        <ele>770.63</ele>
        <time>2014-09-07T09:47:06Z</time>
      </trkpt>
      <trkpt lat="43.82527" lon="3.58206">
        <ele>771.6</ele>
        <time>2014-09-07T09:47:19Z</time>
      </trkpt>
      <trkpt lat="43.82528" lon="3.58218">
        <ele>773.04</ele>
        <time>2014-09-07T09:47:29Z</time>
      </trkpt>
      <trkpt lat="43.82528" lon="3.58227">
        <ele>774.96</ele>
        <time>2014-09-07T09:47:39Z</time>
      </trkpt>
      <trkpt lat="43.82528" lon="3.58233">
        <ele>776.88</ele>
        <time>2014-09-07T09:47:49Z</time>
      </trkpt>
      <trkpt lat="43.82529" lon="3.58234">
        <ele>776.88</ele>
        <time>2014-09-07T09:47:52Z</time>
      </trkpt>
      <trkpt lat="43.82532" lon="3.58243">
        <ele>777.84</ele>
        <time>2014-09-07T09:48:02Z</time>
      </trkpt>
      <trkpt lat="43.82532" lon="3.58246">
        <ele>778.32</ele>
        <time>2014-09-07T09:48:09Z</time>
      </trkpt>
      <trkpt lat="43.82534" lon="3.58248">
        <ele>777.84</ele>
        <time>2014-09-07T09:48:39Z</time>
      </trkpt>
      <trkpt lat="43.82535" lon="3.58262">
        <ele>779.29</ele>
        <time>2014-09-07T09:48:50Z</time>
      </trkpt>
      <trkpt lat="43.82531" lon="3.58274">
        <ele>781.21</ele>
        <time>2014-09-07T09:49:03Z</time>
      </trkpt>
      <trkpt lat="43.8253" lon="3.58283">
        <ele>782.65</ele>
        <time>2014-09-07T09:49:11Z</time>
      </trkpt>
      <trkpt lat="43.82528" lon="3.58295">
        <ele>784.57</ele>
        <time>2014-09-07T09:49:22Z</time>
      </trkpt>
      <trkpt lat="43.82528" lon="3.58307">
        <ele>784.09</ele>
        <time>2014-09-07T09:49:31Z</time>
      </trkpt>
      <trkpt lat="43.82527" lon="3.58319">
        <ele>784.57</ele>
        <time>2014-09-07T09:49:41Z</time>
      </trkpt>
      <trkpt lat="43.82528" lon="3.58323">
        <ele>784.57</ele>
        <time>2014-09-07T09:49:47Z</time>
      </trkpt>
      <trkpt lat="43.82528" lon="3.58326">
        <ele>784.09</ele>
        <time>2014-09-07T09:49:50Z</time>
      </trkpt>
      <trkpt lat="43.82532" lon="3.58333">
        <ele>783.61</ele>
        <time>2014-09-07T09:50:01Z</time>
      </trkpt>
      <trkpt lat="43.82529" lon="3.5833">
        <ele>783.61</ele>
        <time>2014-09-07T09:50:06Z</time>
      </trkpt>
      <trkpt lat="43.82526" lon="3.5832">
        <ele>782.65</ele>
        <time>2014-09-07T09:50:17Z</time>
      </trkpt>
      <trkpt lat="43.82524" lon="3.58319">
        <ele>782.65</ele>
        <time>2014-09-07T09:50:35Z</time>
      </trkpt>
      <trkpt lat="43.82522" lon="3.58321">
        <ele>782.65</ele>
        <time>2014-09-07T09:50:45Z</time>
      </trkpt>
      <trkpt lat="43.82518" lon="3.58319">
        <ele>783.61</ele>
        <time>2014-09-07T09:50:59Z</time>
      </trkpt>
      <trkpt lat="43.82516" lon="3.58318">
        <ele>784.09</ele>
        <time>2014-09-07T09:51:13Z</time>
      </trkpt>
      <trkpt lat="43.82517" lon="3.58318">
        <ele>786.02</ele>
        <time>2014-09-07T09:51:28Z</time>
      </trkpt>
      <trkpt lat="43.82517" lon="3.58318">
        <ele>786.5</ele>
        <time>2014-09-07T09:51:53Z</time>
      </trkpt>
      <trkpt lat="43.82517" lon="3.58318">
        <ele>786.02</ele>
        <time>2014-09-07T09:52:18Z</time>
      </trkpt>
      <trkpt lat="43.82516" lon="3.58317">
        <ele>786.5</ele>
        <time>2014-09-07T09:52:43Z</time>
      </trkpt>
      <trkpt lat="43.82514" lon="3.58316">
        <ele>787.46</ele>
        <time>2014-09-07T09:52:54Z</time>
      </trkpt>
      <trkpt lat="43.82515" lon="3.58318">
        <ele>787.46</ele>
        <time>2014-09-07T09:53:05Z</time>
      </trkpt>
      <trkpt lat="43.82512" lon="3.58321">
        <ele>787.94</ele>
        <time>2014-09-07T09:53:15Z</time>
      </trkpt>
      <trkpt lat="43.82511" lon="3.58321">
        <ele>787.46</ele>
        <time>2014-09-07T09:53:32Z</time>
      </trkpt>
      <trkpt lat="43.82511" lon="3.58322">
        <ele>787.46</ele>
        <time>2014-09-07T09:53:35Z</time>
      </trkpt>
      <trkpt lat="43.82508" lon="3.58331">
        <ele>787.46</ele>
        <time>2014-09-07T09:53:46Z</time>
      </trkpt>
      <trkpt lat="43.82504" lon="3.5834">
        <ele>787.94</ele>
        <time>2014-09-07T09:53:54Z</time>
      </trkpt>
      <trkpt lat="43.82503" lon="3.5835">
        <ele>787.94</ele>
        <time>2014-09-07T09:54:05Z</time>
      </trkpt>
      <trkpt lat="43.825" lon="3.58355">
        <ele>788.42</ele>
        <time>2014-09-07T09:54:16Z</time>
      </trkpt>
      <trkpt lat="43.825" lon="3.58355">
        <ele>788.42</ele>
        <time>2014-09-07T09:54:31Z</time>
      </trkpt>
      <trkpt lat="43.825" lon="3.58354">
        <ele>787.94</ele>
        <time>2014-09-07T09:54:48Z</time>
      </trkpt>
      <trkpt lat="43.825" lon="3.58352">
        <ele>787.46</ele>
        <time>2014-09-07T09:55:10Z</time>
      </trkpt>
      <trkpt lat="43.825" lon="3.58352">
        <ele>787.46</ele>
        <time>2014-09-07T09:55:21Z</time>
      </trkpt>
      <trkpt lat="43.82501" lon="3.58354">
        <ele>787.46</ele>
        <time>2014-09-07T09:55:33Z</time>
      </trkpt>
      <trkpt lat="43.82496" lon="3.58366">
        <ele>787.94</ele>
        <time>2014-09-07T09:55:46Z</time>
      </trkpt>
      <trkpt lat="43.82496" lon="3.58367">
        <ele>787.94</ele>
        <time>2014-09-07T09:56:09Z</time>
      </trkpt>
      <trkpt lat="43.82494" lon="3.58372">
        <ele>788.42</ele>
        <time>2014-09-07T09:56:19Z</time>
      </trkpt>
      <trkpt lat="43.82494" lon="3.58373">
        <ele>787.94</ele>
        <time>2014-09-07T09:56:38Z</time>
      </trkpt>
      <trkpt lat="43.82497" lon="3.58368">
        <ele>787.46</ele>
        <time>2014-09-07T09:56:51Z</time>
      </trkpt>
      <trkpt lat="43.825" lon="3.58356">
        <ele>787.46</ele>
        <time>2014-09-07T09:57:03Z</time>
      </trkpt>
      <trkpt lat="43.82499" lon="3.58353">
        <ele>786.98</ele>
        <time>2014-09-07T09:57:14Z</time>
      </trkpt>
      <trkpt lat="43.82499" lon="3.58353">
        <ele>786.5</ele>
        <time>2014-09-07T09:57:32Z</time>
      </trkpt>
      <trkpt lat="43.825" lon="3.58354">
        <ele>786.5</ele>
        <time>2014-09-07T09:57:52Z</time>
      </trkpt>
      <trkpt lat="43.825" lon="3.58354">
        <ele>786.5</ele>
        <time>2014-09-07T09:58:21Z</time>
      </trkpt>
      <trkpt lat="43.825" lon="3.58354">
        <ele>786.02</ele>
        <time>2014-09-07T09:58:47Z</time>
      </trkpt>
      <trkpt lat="43.825" lon="3.58353">
        <ele>786.02</ele>
        <time>2014-09-07T09:59:06Z</time>
      </trkpt>
      <trkpt lat="43.825" lon="3.58353">
        <ele>786.02</ele>
        <time>2014-09-07T09:59:29Z</time>
      </trkpt>
      <trkpt lat="43.825" lon="3.58353">
        <ele>786.02</ele>
        <time>2014-09-07T09:59:53Z</time>
      </trkpt>
      <trkpt lat="43.825" lon="3.58354">
        <ele>786.02</ele>
        <time>2014-09-07T10:00:14Z</time>
      </trkpt>
      <trkpt lat="43.825" lon="3.58353">
        <ele>786.5</ele>
        <time>2014-09-07T10:00:24Z</time>
      </trkpt>
      <trkpt lat="43.825" lon="3.58354">
        <ele>786.5</ele>
        <time>2014-09-07T10:00:55Z</time>
      </trkpt>
      <trkpt lat="43.825" lon="3.58354">
        <ele>786.5</ele>
        <time>2014-09-07T10:01:23Z</time>
      </trkpt>
      <trkpt lat="43.82501" lon="3.58354">
        <ele>786.5</ele>
        <time>2014-09-07T10:01:41Z</time>
      </trkpt>
      <trkpt lat="43.82501" lon="3.58354">
        <ele>786.5</ele>
        <time>2014-09-07T10:01:55Z</time>
      </trkpt>
      <trkpt lat="43.82501" lon="3.58353">
        <ele>786.5</ele>
        <time>2014-09-07T10:02:27Z</time>
      </trkpt>
      <trkpt lat="43.825" lon="3.58352">
        <ele>786.98</ele>
        <time>2014-09-07T10:02:45Z</time>
      </trkpt>
      <trkpt lat="43.825" lon="3.58353">
        <ele>786.98</ele>
        <time>2014-09-07T10:03:04Z</time>
      </trkpt>
      <trkpt lat="43.82501" lon="3.58352">
        <ele>786.98</ele>
        <time>2014-09-07T10:03:20Z</time>
      </trkpt>
      <trkpt lat="43.82501" lon="3.58353">
        <ele>786.98</ele>
        <time>2014-09-07T10:03:36Z</time>
      </trkpt>
      <trkpt lat="43.82501" lon="3.58353">
        <ele>787.46</ele>
        <time>2014-09-07T10:04:00Z</time>
      </trkpt>
      <trkpt lat="43.82501" lon="3.58353">
        <ele>787.46</ele>
        <time>2014-09-07T10:04:31Z</time>
      </trkpt>
      <trkpt lat="43.82501" lon="3.58353">
        <ele>787.46</ele>
        <time>2014-09-07T10:05:00Z</time>
      </trkpt>
      <trkpt lat="43.82501" lon="3.58354">
        <ele>787.94</ele>
        <time>2014-09-07T10:05:28Z</time>
      </trkpt>
      <trkpt lat="43.82502" lon="3.58354">
        <ele>787.94</ele>
        <time>2014-09-07T10:05:50Z</time>
      </trkpt>
      <trkpt lat="43.82502" lon="3.58354">
        <ele>787.94</ele>
        <time>2014-09-07T10:06:14Z</time>
      </trkpt>
      <trkpt lat="43.82502" lon="3.58354">
        <ele>787.94</ele>
        <time>2014-09-07T10:06:43Z</time>
      </trkpt>
      <trkpt lat="43.82502" lon="3.58354">
        <ele>787.46</ele>
        <time>2014-09-07T10:07:09Z</time>
      </trkpt>
      <trkpt lat="43.82502" lon="3.58354">
        <ele>787.94</ele>
        <time>2014-09-07T10:07:36Z</time>
      </trkpt>
      <trkpt lat="43.82502" lon="3.58354">
        <ele>787.94</ele>
        <time>2014-09-07T10:07:58Z</time>
      </trkpt>
      <trkpt lat="43.82501" lon="3.58354">
        <ele>787.46</ele>
        <time>2014-09-07T10:08:24Z</time>
      </trkpt>
      <trkpt lat="43.82501" lon="3.58355">
        <ele>787.46</ele>
        <time>2014-09-07T10:08:45Z</time>
      </trkpt>
      <trkpt lat="43.82501" lon="3.58355">
        <ele>787.94</ele>
        <time>2014-09-07T10:09:12Z</time>
      </trkpt>
      <trkpt lat="43.82501" lon="3.58354">
        <ele>787.94</ele>
        <time>2014-09-07T10:09:39Z</time>
      </trkpt>
      <trkpt lat="43.82501" lon="3.58354">
        <ele>787.94</ele>
        <time>2014-09-07T10:10:07Z</time>
      </trkpt>
      <trkpt lat="43.82501" lon="3.58355">
        <ele>787.94</ele>
        <time>2014-09-07T10:10:26Z</time>
      </trkpt>
      <trkpt lat="43.82501" lon="3.58354">
        <ele>787.46</ele>
        <time>2014-09-07T10:10:49Z</time>
      </trkpt>
      <trkpt lat="43.82501" lon="3.58354">
        <ele>787.46</ele>
        <time>2014-09-07T10:11:12Z</time>
      </trkpt>
      <trkpt lat="43.82501" lon="3.58354">
        <ele>787.46</ele>
        <time>2014-09-07T10:11:26Z</time>
      </trkpt>
      <trkpt lat="43.82501" lon="3.58353">
        <ele>787.94</ele>
        <time>2014-09-07T10:11:58Z</time>
      </trkpt>
      <trkpt lat="43.82501" lon="3.58353">
        <ele>787.94</ele>
        <time>2014-09-07T10:12:26Z</time>
      </trkpt>
      <trkpt lat="43.82501" lon="3.58354">
        <ele>787.46</ele>
        <time>2014-09-07T10:12:52Z</time>
      </trkpt>
      <trkpt lat="43.82501" lon="3.58353">
        <ele>787.94</ele>
        <time>2014-09-07T10:13:19Z</time>
      </trkpt>
      <trkpt lat="43.82501" lon="3.58354">
        <ele>787.46</ele>
        <time>2014-09-07T10:13:46Z</time>
      </trkpt>
      <trkpt lat="43.82501" lon="3.58354">
        <ele>787.46</ele>
        <time>2014-09-07T10:14:09Z</time>
      </trkpt>
      <trkpt lat="43.825" lon="3.58353">
        <ele>786.98</ele>
        <time>2014-09-07T10:14:18Z</time>
      </trkpt>
      <trkpt lat="43.82501" lon="3.58353">
        <ele>787.46</ele>
        <time>2014-09-07T10:14:37Z</time>
      </trkpt>
      <trkpt lat="43.825" lon="3.58353">
        <ele>787.46</ele>
        <time>2014-09-07T10:14:58Z</time>
      </trkpt>
      <trkpt lat="43.825" lon="3.58353">
        <ele>787.46</ele>
        <time>2014-09-07T10:15:14Z</time>
      </trkpt>
      <trkpt lat="43.825" lon="3.58353">
        <ele>787.46</ele>
        <time>2014-09-07T10:15:31Z</time>
      </trkpt>
      <trkpt lat="43.82501" lon="3.58353">
        <ele>787.46</ele>
        <time>2014-09-07T10:15:53Z</time>
      </trkpt>
      <trkpt lat="43.82501" lon="3.58353">
        <ele>787.46</ele>
        <time>2014-09-07T10:16:14Z</time>
      </trkpt>
      <trkpt lat="43.82501" lon="3.58353">
        <ele>787.94</ele>
        <time>2014-09-07T10:16:35Z</time>
      </trkpt>
      <trkpt lat="43.825" lon="3.58353">
        <ele>787.94</ele>
        <time>2014-09-07T10:16:55Z</time>
      </trkpt>
      <trkpt lat="43.82501" lon="3.58353">
        <ele>787.94</ele>
        <time>2014-09-07T10:17:19Z</time>
      </trkpt>
      <trkpt lat="43.82501" lon="3.58353">
        <ele>787.94</ele>
        <time>2014-09-07T10:17:39Z</time>
      </trkpt>
      <trkpt lat="43.82501" lon="3.58353">
        <ele>787.94</ele>
        <time>2014-09-07T10:17:59Z</time>
      </trkpt>
      <trkpt lat="43.82501" lon="3.58353">
        <ele>787.94</ele>
        <time>2014-09-07T10:18:15Z</time>
      </trkpt>
      <trkpt lat="43.82501" lon="3.58353">
        <ele>787.94</ele>
        <time>2014-09-07T10:18:37Z</time>
      </trkpt>
      <trkpt lat="43.82501" lon="3.58352">
        <ele>787.46</ele>
        <time>2014-09-07T10:19:01Z</time>
      </trkpt>
      <trkpt lat="43.82501" lon="3.58352">
        <ele>787.46</ele>
        <time>2014-09-07T10:19:22Z</time>
      </trkpt>
      <trkpt lat="43.82501" lon="3.58353">
        <ele>787.46</ele>
        <time>2014-09-07T10:19:46Z</time>
      </trkpt>
      <trkpt lat="43.82501" lon="3.58353">
        <ele>787.46</ele>
        <time>2014-09-07T10:20:10Z</time>
      </trkpt>
      <trkpt lat="43.82501" lon="3.58352">
        <ele>787.46</ele>
        <time>2014-09-07T10:20:27Z</time>
      </trkpt>
      <trkpt lat="43.82501" lon="3.58353">
        <ele>787.46</ele>
        <time>2014-09-07T10:20:44Z</time>
      </trkpt>
      <trkpt lat="43.82501" lon="3.58353">
        <ele>787.46</ele>
        <time>2014-09-07T10:21:05Z</time>
      </trkpt>
      <trkpt lat="43.82501" lon="3.58357">
        <ele>786.98</ele>
        <time>2014-09-07T10:21:18Z</time>
      </trkpt>
      <trkpt lat="43.825" lon="3.58363">
        <ele>786.5</ele>
        <time>2014-09-07T10:21:31Z</time>
      </trkpt>
      <trkpt lat="43.825" lon="3.58364">
        <ele>786.5</ele>
        <time>2014-09-07T10:22:05Z</time>
      </trkpt>
      <trkpt lat="43.825" lon="3.58365">
        <ele>786.02</ele>
        <time>2014-09-07T10:22:25Z</time>
      </trkpt>
      <trkpt lat="43.825" lon="3.58365">
        <ele>786.02</ele>
        <time>2014-09-07T10:22:48Z</time>
      </trkpt>
      <trkpt lat="43.82501" lon="3.58363">
        <ele>786.02</ele>
        <time>2014-09-07T10:23:14Z</time>
      </trkpt>
      <trkpt lat="43.825" lon="3.58362">
        <ele>786.02</ele>
        <time>2014-09-07T10:23:31Z</time>
      </trkpt>
      <trkpt lat="43.82498" lon="3.58362">
        <ele>785.53</ele>
        <time>2014-09-07T10:23:43Z</time>
      </trkpt>
      <trkpt lat="43.82498" lon="3.58362">
        <ele>786.02</ele>
        <time>2014-09-07T10:24:10Z</time>
      </trkpt>
      <trkpt lat="43.825" lon="3.5836">
        <ele>786.02</ele>
        <time>2014-09-07T10:24:27Z</time>
      </trkpt>
      <trkpt lat="43.825" lon="3.58361">
        <ele>786.02</ele>
        <time>2014-09-07T10:24:46Z</time>
      </trkpt>
      <trkpt lat="43.825" lon="3.58361">
        <ele>786.02</ele>
        <time>2014-09-07T10:25:10Z</time>
      </trkpt>
      <trkpt lat="43.82501" lon="3.58359">
        <ele>786.02</ele>
        <time>2014-09-07T10:25:30Z</time>
      </trkpt>
      <trkpt lat="43.82501" lon="3.58359">
        <ele>786.02</ele>
        <time>2014-09-07T10:25:48Z</time>
      </trkpt>
      <trkpt lat="43.825" lon="3.58353">
        <ele>786.5</ele>
        <time>2014-09-07T10:26:04Z</time>
      </trkpt>
      <trkpt lat="43.82501" lon="3.58353">
        <ele>786.5</ele>
        <time>2014-09-07T10:26:19Z</time>
      </trkpt>
      <trkpt lat="43.82501" lon="3.58353">
        <ele>786.02</ele>
        <time>2014-09-07T10:26:42Z</time>
      </trkpt>
      <trkpt lat="43.82501" lon="3.58353">
        <ele>786.02</ele>
        <time>2014-09-07T10:27:08Z</time>
      </trkpt>
      <trkpt lat="43.82501" lon="3.58354">
        <ele>785.53</ele>
        <time>2014-09-07T10:27:34Z</time>
      </trkpt>
      <trkpt lat="43.82501" lon="3.58354">
        <ele>785.05</ele>
        <time>2014-09-07T10:28:01Z</time>
      </trkpt>
      <trkpt lat="43.82501" lon="3.58354">
        <ele>785.05</ele>
        <time>2014-09-07T10:28:16Z</time>
      </trkpt>
      <trkpt lat="43.82501" lon="3.58354">
        <ele>785.05</ele>
        <time>2014-09-07T10:28:34Z</time>
      </trkpt>
      <trkpt lat="43.82501" lon="3.58354">
        <ele>785.05</ele>
        <time>2014-09-07T10:28:55Z</time>
      </trkpt>
      <trkpt lat="43.82501" lon="3.58354">
        <ele>785.05</ele>
        <time>2014-09-07T10:29:16Z</time>
      </trkpt>
      <trkpt lat="43.82501" lon="3.58354">
        <ele>785.05</ele>
        <time>2014-09-07T10:29:45Z</time>
      </trkpt>
      <trkpt lat="43.82501" lon="3.58353">
        <ele>785.05</ele>
        <time>2014-09-07T10:30:10Z</time>
      </trkpt>
      <trkpt lat="43.825" lon="3.58355">
        <ele>785.05</ele>
        <time>2014-09-07T10:30:29Z</time>
      </trkpt>
      <trkpt lat="43.825" lon="3.58355">
        <ele>785.05</ele>
        <time>2014-09-07T10:30:44Z</time>
      </trkpt>
      <trkpt lat="43.825" lon="3.58355">
        <ele>785.05</ele>
        <time>2014-09-07T10:30:55Z</time>
      </trkpt>
      <trkpt lat="43.825" lon="3.58352">
        <ele>785.53</ele>
        <time>2014-09-07T10:31:06Z</time>
      </trkpt>
      <trkpt lat="43.82502" lon="3.5835">
        <ele>786.02</ele>
        <time>2014-09-07T10:31:20Z</time>
      </trkpt>
      <trkpt lat="43.82503" lon="3.5835">
        <ele>786.02</ele>
        <time>2014-09-07T10:31:44Z</time>
      </trkpt>
      <trkpt lat="43.82503" lon="3.5835">
        <ele>786.02</ele>
        <time>2014-09-07T10:32:06Z</time>
      </trkpt>
      <trkpt lat="43.82502" lon="3.58356">
        <ele>786.98</ele>
        <time>2014-09-07T10:32:31Z</time>
      </trkpt>
      <trkpt lat="43.82502" lon="3.58358">
        <ele>787.94</ele>
        <time>2014-09-07T10:32:54Z</time>
      </trkpt>
      <trkpt lat="43.82503" lon="3.58361">
        <ele>788.9</ele>
        <time>2014-09-07T10:33:12Z</time>
      </trkpt>
      <trkpt lat="43.82503" lon="3.58355">
        <ele>789.38</ele>
        <time>2014-09-07T10:33:30Z</time>
      </trkpt>
      <trkpt lat="43.82502" lon="3.58355">
        <ele>789.38</ele>
        <time>2014-09-07T10:33:49Z</time>
      </trkpt>
      <trkpt lat="43.82503" lon="3.58354">
        <ele>789.38</ele>
        <time>2014-09-07T10:34:13Z</time>
      </trkpt>
      <trkpt lat="43.82503" lon="3.58353">
        <ele>789.38</ele>
        <time>2014-09-07T10:34:36Z</time>
      </trkpt>
      <trkpt lat="43.82503" lon="3.58353">
        <ele>789.38</ele>
        <time>2014-09-07T10:34:58Z</time>
      </trkpt>
      <trkpt lat="43.82503" lon="3.58353">
        <ele>789.38</ele>
        <time>2014-09-07T10:35:18Z</time>
      </trkpt>
      <trkpt lat="43.82503" lon="3.58353">
        <ele>789.38</ele>
        <time>2014-09-07T10:35:40Z</time>
      </trkpt>
      <trkpt lat="43.82504" lon="3.58352">
        <ele>789.38</ele>
        <time>2014-09-07T10:36:04Z</time>
      </trkpt>
      <trkpt lat="43.82504" lon="3.58351">
        <ele>789.38</ele>
        <time>2014-09-07T10:36:27Z</time>
      </trkpt>
      <trkpt lat="43.82504" lon="3.58351">
        <ele>789.38</ele>
        <time>2014-09-07T10:36:51Z</time>
      </trkpt>
      <trkpt lat="43.82504" lon="3.58351">
        <ele>789.86</ele>
        <time>2014-09-07T10:37:15Z</time>
      </trkpt>
      <trkpt lat="43.82505" lon="3.58351">
        <ele>789.86</ele>
        <time>2014-09-07T10:37:38Z</time>
      </trkpt>
      <trkpt lat="43.82505" lon="3.58351">
        <ele>789.86</ele>
        <time>2014-09-07T10:38:00Z</time>
      </trkpt>
      <trkpt lat="43.82505" lon="3.5835">
        <ele>789.86</ele>
        <time>2014-09-07T10:38:23Z</time>
      </trkpt>
      <trkpt lat="43.82505" lon="3.5835">
        <ele>790.34</ele>
        <time>2014-09-07T10:38:45Z</time>
      </trkpt>
      <trkpt lat="43.82505" lon="3.58352">
        <ele>790.82</ele>
        <time>2014-09-07T10:39:05Z</time>
      </trkpt>
      <trkpt lat="43.82505" lon="3.58352">
        <ele>790.82</ele>
        <time>2014-09-07T10:39:26Z</time>
      </trkpt>
      <trkpt lat="43.82505" lon="3.58352">
        <ele>790.82</ele>
        <time>2014-09-07T10:39:48Z</time>
      </trkpt>
      <trkpt lat="43.82504" lon="3.58352">
        <ele>790.82</ele>
        <time>2014-09-07T10:40:11Z</time>
      </trkpt>
      <trkpt lat="43.82504" lon="3.58353">
        <ele>789.38</ele>
        <time>2014-09-07T10:40:29Z</time>
      </trkpt>
      <trkpt lat="43.82502" lon="3.58351">
        <ele>788.9</ele>
        <time>2014-09-07T10:40:48Z</time>
      </trkpt>
      <trkpt lat="43.82502" lon="3.58351">
        <ele>788.9</ele>
        <time>2014-09-07T10:41:11Z</time>
      </trkpt>
      <trkpt lat="43.82501" lon="3.58351">
        <ele>788.42</ele>
        <time>2014-09-07T10:41:33Z</time>
      </trkpt>
      <trkpt lat="43.82501" lon="3.58352">
        <ele>787.94</ele>
        <time>2014-09-07T10:41:48Z</time>
      </trkpt>
      <trkpt lat="43.82501" lon="3.58353">
        <ele>786.98</ele>
        <time>2014-09-07T10:42:14Z</time>
      </trkpt>
      <trkpt lat="43.82501" lon="3.58353">
        <ele>786.98</ele>
        <time>2014-09-07T10:42:34Z</time>
      </trkpt>
      <trkpt lat="43.82501" lon="3.58353">
        <ele>786.98</ele>
        <time>2014-09-07T10:42:53Z</time>
      </trkpt>
      <trkpt lat="43.82502" lon="3.5835">
        <ele>786.5</ele>
        <time>2014-09-07T10:43:05Z</time>
      </trkpt>
      <trkpt lat="43.82502" lon="3.5835">
        <ele>786.5</ele>
        <time>2014-09-07T10:43:29Z</time>
      </trkpt>
      <trkpt lat="43.82502" lon="3.5835">
        <ele>786.5</ele>
        <time>2014-09-07T10:43:57Z</time>
      </trkpt>
      <trkpt lat="43.82502" lon="3.5835">
        <ele>786.5</ele>
        <time>2014-09-07T10:44:26Z</time>
      </trkpt>
      <trkpt lat="43.82502" lon="3.5835">
        <ele>786.02</ele>
        <time>2014-09-07T10:44:59Z</time>
      </trkpt>
      <trkpt lat="43.82502" lon="3.5835">
        <ele>786.02</ele>
        <time>2014-09-07T10:45:22Z</time>
      </trkpt>
      <trkpt lat="43.82502" lon="3.5835">
        <ele>786.02</ele>
        <time>2014-09-07T10:45:48Z</time>
      </trkpt>
      <trkpt lat="43.82502" lon="3.5835">
        <ele>786.02</ele>
        <time>2014-09-07T10:46:16Z</time>
      </trkpt>
      <trkpt lat="43.82502" lon="3.5835">
        <ele>786.02</ele>
        <time>2014-09-07T10:46:48Z</time>
      </trkpt>
      <trkpt lat="43.82502" lon="3.5835">
        <ele>785.53</ele>
        <time>2014-09-07T10:47:21Z</time>
      </trkpt>
      <trkpt lat="43.82502" lon="3.5835">
        <ele>785.53</ele>
        <time>2014-09-07T10:47:53Z</time>
      </trkpt>
      <trkpt lat="43.82502" lon="3.58351">
        <ele>785.53</ele>
        <time>2014-09-07T10:48:10Z</time>
      </trkpt>
      <trkpt lat="43.82502" lon="3.58352">
        <ele>785.53</ele>
        <time>2014-09-07T10:48:28Z</time>
      </trkpt>
      <trkpt lat="43.82502" lon="3.58352">
        <ele>785.53</ele>
        <time>2014-09-07T10:48:52Z</time>
      </trkpt>
      <trkpt lat="43.82502" lon="3.58353">
        <ele>785.05</ele>
        <time>2014-09-07T10:49:18Z</time>
      </trkpt>
      <trkpt lat="43.82502" lon="3.58353">
        <ele>785.05</ele>
        <time>2014-09-07T10:49:35Z</time>
      </trkpt>
      <trkpt lat="43.82502" lon="3.58353">
        <ele>785.53</ele>
        <time>2014-09-07T10:49:55Z</time>
      </trkpt>
      <trkpt lat="43.82502" lon="3.58353">
        <ele>785.05</ele>
        <time>2014-09-07T10:50:21Z</time>
      </trkpt>
      <trkpt lat="43.82502" lon="3.58353">
        <ele>785.05</ele>
        <time>2014-09-07T10:50:41Z</time>
      </trkpt>
      <trkpt lat="43.82503" lon="3.58352">
        <ele>785.05</ele>
        <time>2014-09-07T10:51:04Z</time>
      </trkpt>
      <trkpt lat="43.82507" lon="3.58348">
        <ele>784.57</ele>
        <time>2014-09-07T10:51:17Z</time>
      </trkpt>
      <trkpt lat="43.82511" lon="3.58344">
        <ele>784.09</ele>
        <time>2014-09-07T10:51:30Z</time>
      </trkpt>
      <trkpt lat="43.82513" lon="3.58342">
        <ele>784.09</ele>
        <time>2014-09-07T10:51:44Z</time>
      </trkpt>
      <trkpt lat="43.82513" lon="3.58337">
        <ele>784.09</ele>
        <time>2014-09-07T10:51:58Z</time>
      </trkpt>
      <trkpt lat="43.82511" lon="3.58332">
        <ele>784.57</ele>
        <time>2014-09-07T10:52:09Z</time>
      </trkpt>
      <trkpt lat="43.82511" lon="3.58323">
        <ele>784.57</ele>
        <time>2014-09-07T10:52:20Z</time>
      </trkpt>
      <trkpt lat="43.82514" lon="3.58322">
        <ele>783.61</ele>
        <time>2014-09-07T10:52:30Z</time>
      </trkpt>
      <trkpt lat="43.82514" lon="3.58322">
        <ele>782.65</ele>
        <time>2014-09-07T10:52:41Z</time>
      </trkpt>
      <trkpt lat="43.82518" lon="3.5832">
        <ele>782.17</ele>
        <time>2014-09-07T10:52:52Z</time>
      </trkpt>
      <trkpt lat="43.82521" lon="3.58312">
        <ele>781.21</ele>
        <time>2014-09-07T10:53:03Z</time>
      </trkpt>
      <trkpt lat="43.82522" lon="3.583">
        <ele>779.77</ele>
        <time>2014-09-07T10:53:15Z</time>
      </trkpt>
      <trkpt lat="43.82526" lon="3.58284">
        <ele>779.77</ele>
        <time>2014-09-07T10:53:25Z</time>
      </trkpt>
      <trkpt lat="43.82528" lon="3.58274">
        <ele>779.77</ele>
        <time>2014-09-07T10:53:35Z</time>
      </trkpt>
      <trkpt lat="43.82534" lon="3.58265">
        <ele>779.29</ele>
        <time>2014-09-07T10:53:48Z</time>
      </trkpt>
      <trkpt lat="43.82532" lon="3.58252">
        <ele>778.81</ele>
        <time>2014-09-07T10:53:59Z</time>
      </trkpt>
      <trkpt lat="43.8253" lon="3.58244">
        <ele>778.32</ele>
        <time>2014-09-07T10:54:06Z</time>
      </trkpt>
      <trkpt lat="43.8253" lon="3.58237">
        <ele>778.32</ele>
        <time>2014-09-07T10:54:17Z</time>
      </trkpt>
      <trkpt lat="43.82528" lon="3.58232">
        <ele>777.84</ele>
        <time>2014-09-07T10:54:25Z</time>
      </trkpt>
      <trkpt lat="43.82528" lon="3.5823">
        <ele>776.88</ele>
        <time>2014-09-07T10:54:37Z</time>
      </trkpt>
      <trkpt lat="43.82526" lon="3.58221">
        <ele>774.96</ele>
        <time>2014-09-07T10:54:48Z</time>
      </trkpt>
      <trkpt lat="43.82526" lon="3.58213">
        <ele>773.04</ele>
        <time>2014-09-07T10:54:57Z</time>
      </trkpt>
      <trkpt lat="43.82526" lon="3.58209">
        <ele>773.04</ele>
        <time>2014-09-07T10:55:14Z</time>
      </trkpt>
      <trkpt lat="43.82529" lon="3.58203">
        <ele>771.6</ele>
        <time>2014-09-07T10:55:25Z</time>
      </trkpt>
      <trkpt lat="43.82531" lon="3.58197">
        <ele>771.11</ele>
        <time>2014-09-07T10:55:34Z</time>
      </trkpt>
      <trkpt lat="43.82529" lon="3.58187">
        <ele>769.67</ele>
        <time>2014-09-07T10:55:45Z</time>
      </trkpt>
      <trkpt lat="43.8253" lon="3.58186">
        <ele>769.19</ele>
        <time>2014-09-07T10:55:47Z</time>
      </trkpt>
      <trkpt lat="43.8253" lon="3.58177">
        <ele>766.79</ele>
        <time>2014-09-07T10:55:58Z</time>
      </trkpt>
      <trkpt lat="43.82529" lon="3.58174">
        <ele>765.83</ele>
        <time>2014-09-07T10:56:12Z</time>
      </trkpt>
      <trkpt lat="43.8253" lon="3.58171">
        <ele>765.35</ele>
        <time>2014-09-07T10:56:23Z</time>
      </trkpt>
      <trkpt lat="43.82534" lon="3.58165">
        <ele>763.42</ele>
        <time>2014-09-07T10:56:33Z</time>
      </trkpt>
      <trkpt lat="43.82536" lon="3.58158">
        <ele>762.94</ele>
        <time>2014-09-07T10:56:42Z</time>
      </trkpt>
      <trkpt lat="43.82535" lon="3.58155">
        <ele>762.46</ele>
        <time>2014-09-07T10:56:51Z</time>
      </trkpt>
      <trkpt lat="43.82528" lon="3.58152">
        <ele>760.54</ele>
        <time>2014-09-07T10:57:00Z</time>
      </trkpt>
      <trkpt lat="43.82521" lon="3.58145">
        <ele>756.69</ele>
        <time>2014-09-07T10:57:10Z</time>
      </trkpt>
      <trkpt lat="43.82514" lon="3.58145">
        <ele>753.33</ele>
        <time>2014-09-07T10:57:20Z</time>
      </trkpt>
      <trkpt lat="43.82512" lon="3.58134">
        <ele>751.41</ele>
        <time>2014-09-07T10:57:33Z</time>
      </trkpt>
      <trkpt lat="43.82511" lon="3.58132">
        <ele>751.41</ele>
        <time>2014-09-07T10:57:43Z</time>
      </trkpt>
      <trkpt lat="43.82511" lon="3.58129">
        <ele>751.41</ele>
        <time>2014-09-07T10:57:51Z</time>
      </trkpt>
      <trkpt lat="43.82508" lon="3.58119">
        <ele>750.93</ele>
        <time>2014-09-07T10:57:59Z</time>
      </trkpt>
      <trkpt lat="43.82505" lon="3.58104">
        <ele>750.45</ele>
        <time>2014-09-07T10:58:11Z</time>
      </trkpt>
      <trkpt lat="43.825" lon="3.58093">
        <ele>748.04</ele>
        <time>2014-09-07T10:58:23Z</time>
      </trkpt>
      <trkpt lat="43.82496" lon="3.58085">
        <ele>747.08</ele>
        <time>2014-09-07T10:58:33Z</time>
      </trkpt>
      <trkpt lat="43.82494" lon="3.58081">
        <ele>745.64</ele>
        <time>2014-09-07T10:58:48Z</time>
      </trkpt>
      <trkpt lat="43.82494" lon="3.5808">
        <ele>745.16</ele>
        <time>2014-09-07T10:59:05Z</time>
      </trkpt>
      <trkpt lat="43.82492" lon="3.58069">
        <ele>744.68</ele>
        <time>2014-09-07T10:59:17Z</time>
      </trkpt>
      <trkpt lat="43.82491" lon="3.58057">
        <ele>743.72</ele>
        <time>2014-09-07T10:59:27Z</time>
      </trkpt>
      <trkpt lat="43.8249" lon="3.58054">
        <ele>743.24</ele>
        <time>2014-09-07T10:59:29Z</time>
      </trkpt>
      <trkpt lat="43.82489" lon="3.5804">
        <ele>742.76</ele>
        <time>2014-09-07T10:59:40Z</time>
      </trkpt>
      <trkpt lat="43.82488" lon="3.58038">
        <ele>742.28</ele>
        <time>2014-09-07T10:59:42Z</time>
      </trkpt>
      <trkpt lat="43.82486" lon="3.5803">
        <ele>740.35</ele>
        <time>2014-09-07T10:59:53Z</time>
      </trkpt>
      <trkpt lat="43.82484" lon="3.58022">
        <ele>739.39</ele>
        <time>2014-09-07T11:00:02Z</time>
      </trkpt>
      <trkpt lat="43.82481" lon="3.58013">
        <ele>737.95</ele>
        <time>2014-09-07T11:00:14Z</time>
      </trkpt>
      <trkpt lat="43.82479" lon="3.58005">
        <ele>736.51</ele>
        <time>2014-09-07T11:00:23Z</time>
      </trkpt>
      <trkpt lat="43.82479" lon="3.58004">
        <ele>735.55</ele>
        <time>2014-09-07T11:00:27Z</time>
      </trkpt>
      <trkpt lat="43.82481" lon="3.57996">
        <ele>735.07</ele>
        <time>2014-09-07T11:00:33Z</time>
      </trkpt>
      <trkpt lat="43.8248" lon="3.57983">
        <ele>732.66</ele>
        <time>2014-09-07T11:00:44Z</time>
      </trkpt>
      <trkpt lat="43.82479" lon="3.57972">
        <ele>731.22</ele>
        <time>2014-09-07T11:00:53Z</time>
      </trkpt>
      <trkpt lat="43.82477" lon="3.57964">
        <ele>730.26</ele>
        <time>2014-09-07T11:01:03Z</time>
      </trkpt>
      <trkpt lat="43.82477" lon="3.57962">
        <ele>729.3</ele>
        <time>2014-09-07T11:01:11Z</time>
      </trkpt>
      <trkpt lat="43.82472" lon="3.57948">
        <ele>727.86</ele>
        <time>2014-09-07T11:01:22Z</time>
      </trkpt>
      <trkpt lat="43.82466" lon="3.57934">
        <ele>726.89</ele>
        <time>2014-09-07T11:01:33Z</time>
      </trkpt>
      <trkpt lat="43.82462" lon="3.57929">
        <ele>726.41</ele>
        <time>2014-09-07T11:01:38Z</time>
      </trkpt>
      <trkpt lat="43.82456" lon="3.57922">
        <ele>725.93</ele>
        <time>2014-09-07T11:01:48Z</time>
      </trkpt>
      <trkpt lat="43.82453" lon="3.57911">
        <ele>725.45</ele>
        <time>2014-09-07T11:01:57Z</time>
      </trkpt>
      <trkpt lat="43.82453" lon="3.57905">
        <ele>725.93</ele>
        <time>2014-09-07T11:02:01Z</time>
      </trkpt>
      <trkpt lat="43.82449" lon="3.57891">
        <ele>726.41</ele>
        <time>2014-09-07T11:02:11Z</time>
      </trkpt>
      <trkpt lat="43.82449" lon="3.57886">
        <ele>725.45</ele>
        <time>2014-09-07T11:02:16Z</time>
      </trkpt>
      <trkpt lat="43.82448" lon="3.5788">
        <ele>723.05</ele>
        <time>2014-09-07T11:02:26Z</time>
      </trkpt>
      <trkpt lat="43.82445" lon="3.57874">
        <ele>721.61</ele>
        <time>2014-09-07T11:02:36Z</time>
      </trkpt>
      <trkpt lat="43.82444" lon="3.57873">
        <ele>721.61</ele>
        <time>2014-09-07T11:02:39Z</time>
      </trkpt>
      <trkpt lat="43.82435" lon="3.57865">
        <ele>720.65</ele>
        <time>2014-09-07T11:02:49Z</time>
      </trkpt>
      <trkpt lat="43.82433" lon="3.57859">
        <ele>720.65</ele>
        <time>2014-09-07T11:02:55Z</time>
      </trkpt>
      <trkpt lat="43.82428" lon="3.57849">
        <ele>720.16</ele>
        <time>2014-09-07T11:03:05Z</time>
      </trkpt>
      <trkpt lat="43.82423" lon="3.57846">
        <ele>718.72</ele>
        <time>2014-09-07T11:03:15Z</time>
      </trkpt>
      <trkpt lat="43.82422" lon="3.57844">
        <ele>716.32</ele>
        <time>2014-09-07T11:03:36Z</time>
      </trkpt>
      <trkpt lat="43.82422" lon="3.57843">
        <ele>715.36</ele>
        <time>2014-09-07T11:03:46Z</time>
      </trkpt>
      <trkpt lat="43.82423" lon="3.57839">
        <ele>717.28</ele>
        <time>2014-09-07T11:03:58Z</time>
      </trkpt>
      <trkpt lat="43.82422" lon="3.57827">
        <ele>718.72</ele>
        <time>2014-09-07T11:04:07Z</time>
      </trkpt>
      <trkpt lat="43.82416" lon="3.57804">
        <ele>714.88</ele>
        <time>2014-09-07T11:04:18Z</time>
      </trkpt>
      <trkpt lat="43.82413" lon="3.57795">
        <ele>712.47</ele>
        <time>2014-09-07T11:04:28Z</time>
      </trkpt>
      <trkpt lat="43.82412" lon="3.57784">
        <ele>711.51</ele>
        <time>2014-09-07T11:04:37Z</time>
      </trkpt>
      <trkpt lat="43.82411" lon="3.57777">
        <ele>711.03</ele>
        <time>2014-09-07T11:04:47Z</time>
      </trkpt>
      <trkpt lat="43.8241" lon="3.57769">
        <ele>710.55</ele>
        <time>2014-09-07T11:04:56Z</time>
      </trkpt>
      <trkpt lat="43.82408" lon="3.57761">
        <ele>710.07</ele>
        <time>2014-09-07T11:05:06Z</time>
      </trkpt>
      <trkpt lat="43.82407" lon="3.57758">
        <ele>709.59</ele>
        <time>2014-09-07T11:05:16Z</time>
      </trkpt>
      <trkpt lat="43.82404" lon="3.57751">
        <ele>709.11</ele>
        <time>2014-09-07T11:05:25Z</time>
      </trkpt>
      <trkpt lat="43.82406" lon="3.57744">
        <ele>708.15</ele>
        <time>2014-09-07T11:05:34Z</time>
      </trkpt>
      <trkpt lat="43.82407" lon="3.57738">
        <ele>707.19</ele>
        <time>2014-09-07T11:05:44Z</time>
      </trkpt>
      <trkpt lat="43.82407" lon="3.57735">
        <ele>706.71</ele>
        <time>2014-09-07T11:05:54Z</time>
      </trkpt>
      <trkpt lat="43.82408" lon="3.5773">
        <ele>703.82</ele>
        <time>2014-09-07T11:06:04Z</time>
      </trkpt>
      <trkpt lat="43.82407" lon="3.57718">
        <ele>698.05</ele>
        <time>2014-09-07T11:06:15Z</time>
      </trkpt>
      <trkpt lat="43.82407" lon="3.57706">
        <ele>696.61</ele>
        <time>2014-09-07T11:06:26Z</time>
      </trkpt>
      <trkpt lat="43.82406" lon="3.57696">
        <ele>695.17</ele>
        <time>2014-09-07T11:06:32Z</time>
      </trkpt>
      <trkpt lat="43.82405" lon="3.57689">
        <ele>694.69</ele>
        <time>2014-09-07T11:06:36Z</time>
      </trkpt>
      <trkpt lat="43.82403" lon="3.57685">
        <ele>693.73</ele>
        <time>2014-09-07T11:06:39Z</time>
      </trkpt>
      <trkpt lat="43.82401" lon="3.57675">
        <ele>690.84</ele>
        <time>2014-09-07T11:06:49Z</time>
      </trkpt>
      <trkpt lat="43.824" lon="3.57666">
        <ele>689.4</ele>
        <time>2014-09-07T11:06:55Z</time>
      </trkpt>
      <trkpt lat="43.82407" lon="3.57654">
        <ele>687</ele>
        <time>2014-09-07T11:07:07Z</time>
      </trkpt>
      <trkpt lat="43.82409" lon="3.57646">
        <ele>686.04</ele>
        <time>2014-09-07T11:07:16Z</time>
      </trkpt>
      <trkpt lat="43.82409" lon="3.57642">
        <ele>686.04</ele>
        <time>2014-09-07T11:07:25Z</time>
      </trkpt>
      <trkpt lat="43.82407" lon="3.5764">
        <ele>686.52</ele>
        <time>2014-09-07T11:07:35Z</time>
      </trkpt>
      <trkpt lat="43.82405" lon="3.57635">
        <ele>685.56</ele>
        <time>2014-09-07T11:07:44Z</time>
      </trkpt>
      <trkpt lat="43.82395" lon="3.57619">
        <ele>685.08</ele>
        <time>2014-09-07T11:07:55Z</time>
      </trkpt>
      <trkpt lat="43.82394" lon="3.57617">
        <ele>684.6</ele>
        <time>2014-09-07T11:07:56Z</time>
      </trkpt>
      <trkpt lat="43.82382" lon="3.57606">
        <ele>683.63</ele>
        <time>2014-09-07T11:08:07Z</time>
      </trkpt>
      <trkpt lat="43.82376" lon="3.57604">
        <ele>683.63</ele>
        <time>2014-09-07T11:08:17Z</time>
      </trkpt>
      <trkpt lat="43.82374" lon="3.57603">
        <ele>683.15</ele>
        <time>2014-09-07T11:08:37Z</time>
      </trkpt>
      <trkpt lat="43.82373" lon="3.57603">
        <ele>683.15</ele>
        <time>2014-09-07T11:09:01Z</time>
      </trkpt>
      <trkpt lat="43.82368" lon="3.57599">
        <ele>682.67</ele>
        <time>2014-09-07T11:09:20Z</time>
      </trkpt>
      <trkpt lat="43.82358" lon="3.57595">
        <ele>682.67</ele>
        <time>2014-09-07T11:09:32Z</time>
      </trkpt>
      <trkpt lat="43.82354" lon="3.57596">
        <ele>683.15</ele>
        <time>2014-09-07T11:09:41Z</time>
      </trkpt>
      <trkpt lat="43.82348" lon="3.576">
        <ele>681.71</ele>
        <time>2014-09-07T11:09:53Z</time>
      </trkpt>
      <trkpt lat="43.82348" lon="3.576">
        <ele>681.23</ele>
        <time>2014-09-07T11:10:16Z</time>
      </trkpt>
      <trkpt lat="43.82353" lon="3.57598">
        <ele>680.27</ele>
        <time>2014-09-07T11:10:24Z</time>
      </trkpt>
      <trkpt lat="43.8235" lon="3.57593">
        <ele>680.75</ele>
        <time>2014-09-07T11:10:33Z</time>
      </trkpt>
      <trkpt lat="43.82347" lon="3.57589">
        <ele>681.71</ele>
        <time>2014-09-07T11:10:38Z</time>
      </trkpt>
      <trkpt lat="43.82345" lon="3.57586">
        <ele>681.71</ele>
        <time>2014-09-07T11:10:40Z</time>
      </trkpt>
      <trkpt lat="43.82339" lon="3.57572">
        <ele>681.23</ele>
        <time>2014-09-07T11:10:52Z</time>
      </trkpt>
      <trkpt lat="43.82332" lon="3.57561">
        <ele>679.79</ele>
        <time>2014-09-07T11:11:02Z</time>
      </trkpt>
      <trkpt lat="43.82329" lon="3.57556">
        <ele>679.31</ele>
        <time>2014-09-07T11:11:06Z</time>
      </trkpt>
      <trkpt lat="43.82321" lon="3.57547">
        <ele>677.87</ele>
        <time>2014-09-07T11:11:16Z</time>
      </trkpt>
      <trkpt lat="43.82318" lon="3.57538">
        <ele>676.91</ele>
        <time>2014-09-07T11:11:23Z</time>
      </trkpt>
      <trkpt lat="43.82308" lon="3.57535">
        <ele>675.94</ele>
        <time>2014-09-07T11:11:33Z</time>
      </trkpt>
      <trkpt lat="43.82303" lon="3.5753">
        <ele>674.98</ele>
        <time>2014-09-07T11:11:42Z</time>
      </trkpt>
      <trkpt lat="43.82293" lon="3.5752">
        <ele>674.5</ele>
        <time>2014-09-07T11:11:51Z</time>
      </trkpt>
      <trkpt lat="43.8229" lon="3.57518">
        <ele>674.98</ele>
        <time>2014-09-07T11:11:54Z</time>
      </trkpt>
      <trkpt lat="43.82284" lon="3.57506">
        <ele>674.02</ele>
        <time>2014-09-07T11:12:02Z</time>
      </trkpt>
      <trkpt lat="43.82276" lon="3.57501">
        <ele>673.54</ele>
        <time>2014-09-07T11:12:12Z</time>
      </trkpt>
      <trkpt lat="43.82267" lon="3.57491">
        <ele>674.98</ele>
        <time>2014-09-07T11:12:23Z</time>
      </trkpt>
      <trkpt lat="43.82266" lon="3.5749">
        <ele>674.98</ele>
        <time>2014-09-07T11:12:24Z</time>
      </trkpt>
      <trkpt lat="43.8226" lon="3.57484">
        <ele>675.46</ele>
        <time>2014-09-07T11:12:34Z</time>
      </trkpt>
      <trkpt lat="43.82254" lon="3.57476">
        <ele>675.46</ele>
        <time>2014-09-07T11:12:43Z</time>
      </trkpt>
      <trkpt lat="43.8225" lon="3.57471">
        <ele>675.94</ele>
        <time>2014-09-07T11:12:49Z</time>
      </trkpt>
      <trkpt lat="43.8224" lon="3.57456">
        <ele>677.87</ele>
        <time>2014-09-07T11:13:01Z</time>
      </trkpt>
      <trkpt lat="43.82238" lon="3.57454">
        <ele>678.35</ele>
        <time>2014-09-07T11:13:04Z</time>
      </trkpt>
      <trkpt lat="43.82232" lon="3.57441">
        <ele>680.27</ele>
        <time>2014-09-07T11:13:14Z</time>
      </trkpt>
      <trkpt lat="43.82228" lon="3.57433">
        <ele>681.71</ele>
        <time>2014-09-07T11:13:22Z</time>
      </trkpt>
      <trkpt lat="43.82226" lon="3.57421">
        <ele>680.75</ele>
        <time>2014-09-07T11:13:30Z</time>
      </trkpt>
      <trkpt lat="43.82225" lon="3.57413">
        <ele>679.31</ele>
        <time>2014-09-07T11:13:37Z</time>
      </trkpt>
      <trkpt lat="43.82221" lon="3.57398">
        <ele>674.5</ele>
        <time>2014-09-07T11:13:48Z</time>
      </trkpt>
      <trkpt lat="43.8222" lon="3.57388">
        <ele>673.06</ele>
        <time>2014-09-07T11:13:59Z</time>
      </trkpt>
      <trkpt lat="43.82218" lon="3.57384">
        <ele>672.58</ele>
        <time>2014-09-07T11:14:03Z</time>
      </trkpt>
      <trkpt lat="43.82215" lon="3.57377">
        <ele>671.14</ele>
        <time>2014-09-07T11:14:08Z</time>
      </trkpt>
      <trkpt lat="43.82215" lon="3.57365">
        <ele>670.66</ele>
        <time>2014-09-07T11:14:17Z</time>
      </trkpt>
      <trkpt lat="43.82214" lon="3.57363">
        <ele>670.18</ele>
        <time>2014-09-07T11:14:19Z</time>
      </trkpt>
      <trkpt lat="43.82214" lon="3.57358">
        <ele>669.7</ele>
        <time>2014-09-07T11:14:22Z</time>
      </trkpt>
      <trkpt lat="43.82215" lon="3.57342">
        <ele>669.7</ele>
        <time>2014-09-07T11:14:32Z</time>
      </trkpt>
      <trkpt lat="43.82214" lon="3.57333">
        <ele>669.7</ele>
        <time>2014-09-07T11:14:38Z</time>
      </trkpt>
      <trkpt lat="43.82214" lon="3.57328">
        <ele>670.18</ele>
        <time>2014-09-07T11:14:42Z</time>
      </trkpt>
      <trkpt lat="43.8221" lon="3.57313">
        <ele>671.14</ele>
        <time>2014-09-07T11:14:53Z</time>
      </trkpt>
      <trkpt lat="43.82206" lon="3.57301">
        <ele>671.14</ele>
        <time>2014-09-07T11:15:03Z</time>
      </trkpt>
      <trkpt lat="43.82206" lon="3.57301">
        <ele>671.14</ele>
        <time>2014-09-07T11:15:04Z</time>
      </trkpt>
      <trkpt lat="43.82204" lon="3.57289">
        <ele>671.62</ele>
        <time>2014-09-07T11:15:14Z</time>
      </trkpt>
      <trkpt lat="43.82201" lon="3.57276">
        <ele>673.54</ele>
        <time>2014-09-07T11:15:25Z</time>
      </trkpt>
      <trkpt lat="43.82196" lon="3.57266">
        <ele>675.46</ele>
        <time>2014-09-07T11:15:36Z</time>
      </trkpt>
      <trkpt lat="43.82189" lon="3.57264">
        <ele>676.42</ele>
        <time>2014-09-07T11:15:46Z</time>
      </trkpt>
      <trkpt lat="43.82188" lon="3.57262">
        <ele>676.42</ele>
        <time>2014-09-07T11:15:48Z</time>
      </trkpt>
      <trkpt lat="43.82184" lon="3.57255">
        <ele>674.98</ele>
        <time>2014-09-07T11:15:54Z</time>
      </trkpt>
      <trkpt lat="43.8218" lon="3.57245">
        <ele>673.54</ele>
        <time>2014-09-07T11:16:03Z</time>
      </trkpt>
      <trkpt lat="43.82176" lon="3.57245">
        <ele>673.54</ele>
        <time>2014-09-07T11:16:07Z</time>
      </trkpt>
      <trkpt lat="43.82173" lon="3.57246">
        <ele>673.06</ele>
        <time>2014-09-07T11:16:09Z</time>
      </trkpt>
      <trkpt lat="43.82166" lon="3.57245">
        <ele>671.62</ele>
        <time>2014-09-07T11:16:15Z</time>
      </trkpt>
      <trkpt lat="43.8216" lon="3.57244">
        <ele>671.62</ele>
        <time>2014-09-07T11:16:25Z</time>
      </trkpt>
      <trkpt lat="43.8216" lon="3.57244">
        <ele>671.62</ele>
        <time>2014-09-07T11:16:30Z</time>
      </trkpt>
      <trkpt lat="43.82156" lon="3.57244">
        <ele>671.62</ele>
        <time>2014-09-07T11:16:35Z</time>
      </trkpt>
      <trkpt lat="43.8215" lon="3.57239">
        <ele>671.14</ele>
        <time>2014-09-07T11:16:42Z</time>
      </trkpt>
      <trkpt lat="43.82143" lon="3.57237">
        <ele>671.62</ele>
        <time>2014-09-07T11:16:49Z</time>
      </trkpt>
      <trkpt lat="43.82131" lon="3.57231">
        <ele>671.62</ele>
        <time>2014-09-07T11:17:01Z</time>
      </trkpt>
      <trkpt lat="43.82121" lon="3.57224">
        <ele>671.62</ele>
        <time>2014-09-07T11:17:11Z</time>
      </trkpt>
      <trkpt lat="43.82112" lon="3.57215">
        <ele>671.62</ele>
        <time>2014-09-07T11:17:21Z</time>
      </trkpt>
      <trkpt lat="43.82102" lon="3.57207">
        <ele>672.58</ele>
        <time>2014-09-07T11:17:31Z</time>
      </trkpt>
      <trkpt lat="43.82095" lon="3.57206">
        <ele>673.06</ele>
        <time>2014-09-07T11:17:38Z</time>
      </trkpt>
      <trkpt lat="43.82089" lon="3.572">
        <ele>674.02</ele>
        <time>2014-09-07T11:17:46Z</time>
      </trkpt>
      <trkpt lat="43.82081" lon="3.5719">
        <ele>675.46</ele>
        <time>2014-09-07T11:17:58Z</time>
      </trkpt>
      <trkpt lat="43.82072" lon="3.57183">
        <ele>675.94</ele>
        <time>2014-09-07T11:18:09Z</time>
      </trkpt>
      <trkpt lat="43.82067" lon="3.57175">
        <ele>676.91</ele>
        <time>2014-09-07T11:18:17Z</time>
      </trkpt>
      <trkpt lat="43.82062" lon="3.5717">
        <ele>677.87</ele>
        <time>2014-09-07T11:18:23Z</time>
      </trkpt>
      <trkpt lat="43.82057" lon="3.57159">
        <ele>679.31</ele>
        <time>2014-09-07T11:18:35Z</time>
      </trkpt>
      <trkpt lat="43.8205" lon="3.5715">
        <ele>680.27</ele>
        <time>2014-09-07T11:18:47Z</time>
      </trkpt>
      <trkpt lat="43.8205" lon="3.57146">
        <ele>680.27</ele>
        <time>2014-09-07T11:18:51Z</time>
      </trkpt>
      <trkpt lat="43.82051" lon="3.57135">
        <ele>678.83</ele>
        <time>2014-09-07T11:19:02Z</time>
      </trkpt>
      <trkpt lat="43.8205" lon="3.57124">
        <ele>678.35</ele>
        <time>2014-09-07T11:19:12Z</time>
      </trkpt>
      <trkpt lat="43.82048" lon="3.57116">
        <ele>679.31</ele>
        <time>2014-09-07T11:19:21Z</time>
      </trkpt>
      <trkpt lat="43.82047" lon="3.57114">
        <ele>679.79</ele>
        <time>2014-09-07T11:19:23Z</time>
      </trkpt>
      <trkpt lat="43.82045" lon="3.5711">
        <ele>680.27</ele>
        <time>2014-09-07T11:19:27Z</time>
      </trkpt>
      <trkpt lat="43.82044" lon="3.57105">
        <ele>681.23</ele>
        <time>2014-09-07T11:19:31Z</time>
      </trkpt>
      <trkpt lat="43.8204" lon="3.57093">
        <ele>682.19</ele>
        <time>2014-09-07T11:19:41Z</time>
      </trkpt>
      <trkpt lat="43.82033" lon="3.57086">
        <ele>682.67</ele>
        <time>2014-09-07T11:19:51Z</time>
      </trkpt>
      <trkpt lat="43.82027" lon="3.57082">
        <ele>682.67</ele>
        <time>2014-09-07T11:20:00Z</time>
      </trkpt>
      <trkpt lat="43.82024" lon="3.57081">
        <ele>682.67</ele>
        <time>2014-09-07T11:20:04Z</time>
      </trkpt>
      <trkpt lat="43.82015" lon="3.57082">
        <ele>684.12</ele>
        <time>2014-09-07T11:20:12Z</time>
      </trkpt>
      <trkpt lat="43.8201" lon="3.57088">
        <ele>685.56</ele>
        <time>2014-09-07T11:20:21Z</time>
      </trkpt>
      <trkpt lat="43.82001" lon="3.571">
        <ele>686.52</ele>
        <time>2014-09-07T11:20:34Z</time>
      </trkpt>
      <trkpt lat="43.81993" lon="3.57109">
        <ele>687.48</ele>
        <time>2014-09-07T11:20:44Z</time>
      </trkpt>
      <trkpt lat="43.81987" lon="3.57116">
        <ele>688.44</ele>
        <time>2014-09-07T11:20:53Z</time>
      </trkpt>
      <trkpt lat="43.81979" lon="3.57121">
        <ele>687.96</ele>
        <time>2014-09-07T11:21:02Z</time>
      </trkpt>
      <trkpt lat="43.81975" lon="3.57132">
        <ele>687.48</ele>
        <time>2014-09-07T11:21:13Z</time>
      </trkpt>
      <trkpt lat="43.8197" lon="3.57138">
        <ele>687.48</ele>
        <time>2014-09-07T11:21:21Z</time>
      </trkpt>
      <trkpt lat="43.81964" lon="3.57146">
        <ele>687.96</ele>
        <time>2014-09-07T11:21:30Z</time>
      </trkpt>
      <trkpt lat="43.81956" lon="3.57146">
        <ele>688.92</ele>
        <time>2014-09-07T11:21:40Z</time>
      </trkpt>
      <trkpt lat="43.81951" lon="3.57146">
        <ele>688.92</ele>
        <time>2014-09-07T11:21:48Z</time>
      </trkpt>
      <trkpt lat="43.81943" lon="3.5715">
        <ele>690.36</ele>
        <time>2014-09-07T11:21:58Z</time>
      </trkpt>
      <trkpt lat="43.81934" lon="3.5715">
        <ele>690.84</ele>
        <time>2014-09-07T11:22:09Z</time>
      </trkpt>
      <trkpt lat="43.81925" lon="3.5715">
        <ele>689.88</ele>
        <time>2014-09-07T11:22:19Z</time>
      </trkpt>
      <trkpt lat="43.81919" lon="3.57152">
        <ele>689.4</ele>
        <time>2014-09-07T11:22:25Z</time>
      </trkpt>
      <trkpt lat="43.81915" lon="3.57151">
        <ele>688.92</ele>
        <time>2014-09-07T11:22:29Z</time>
      </trkpt>
      <trkpt lat="43.81912" lon="3.57147">
        <ele>688.44</ele>
        <time>2014-09-07T11:22:33Z</time>
      </trkpt>
      <trkpt lat="43.81908" lon="3.57138">
        <ele>688.92</ele>
        <time>2014-09-07T11:22:43Z</time>
      </trkpt>
      <trkpt lat="43.81908" lon="3.57138">
        <ele>688.92</ele>
        <time>2014-09-07T11:22:53Z</time>
      </trkpt>
      <trkpt lat="43.81901" lon="3.57129">
        <ele>688.44</ele>
        <time>2014-09-07T11:23:04Z</time>
      </trkpt>
      <trkpt lat="43.81897" lon="3.57127">
        <ele>688.44</ele>
        <time>2014-09-07T11:23:10Z</time>
      </trkpt>
      <trkpt lat="43.8189" lon="3.5713">
        <ele>688.44</ele>
        <time>2014-09-07T11:23:20Z</time>
      </trkpt>
      <trkpt lat="43.81881" lon="3.57138">
        <ele>688.92</ele>
        <time>2014-09-07T11:23:29Z</time>
      </trkpt>
      <trkpt lat="43.81871" lon="3.57142">
        <ele>688.44</ele>
        <time>2014-09-07T11:23:42Z</time>
      </trkpt>
      <trkpt lat="43.81861" lon="3.57141">
        <ele>687.96</ele>
        <time>2014-09-07T11:23:53Z</time>
      </trkpt>
      <trkpt lat="43.81856" lon="3.57141">
        <ele>688.92</ele>
        <time>2014-09-07T11:23:58Z</time>
      </trkpt>
      <trkpt lat="43.81846" lon="3.57148">
        <ele>689.4</ele>
        <time>2014-09-07T11:24:09Z</time>
      </trkpt>
      <trkpt lat="43.81836" lon="3.57152">
        <ele>690.36</ele>
        <time>2014-09-07T11:24:19Z</time>
      </trkpt>
      <trkpt lat="43.81827" lon="3.57154">
        <ele>690.36</ele>
        <time>2014-09-07T11:24:30Z</time>
      </trkpt>
      <trkpt lat="43.81818" lon="3.57155">
        <ele>692.29</ele>
        <time>2014-09-07T11:24:40Z</time>
      </trkpt>
      <trkpt lat="43.81809" lon="3.57158">
        <ele>694.21</ele>
        <time>2014-09-07T11:24:51Z</time>
      </trkpt>
      <trkpt lat="43.81803" lon="3.57167">
        <ele>694.69</ele>
        <time>2014-09-07T11:25:01Z</time>
      </trkpt>
      <trkpt lat="43.81801" lon="3.57169">
        <ele>694.69</ele>
        <time>2014-09-07T11:25:04Z</time>
      </trkpt>
      <trkpt lat="43.81795" lon="3.57169">
        <ele>694.69</ele>
        <time>2014-09-07T11:25:09Z</time>
      </trkpt>
      <trkpt lat="43.81787" lon="3.57174">
        <ele>695.65</ele>
        <time>2014-09-07T11:25:19Z</time>
      </trkpt>
      <trkpt lat="43.81781" lon="3.57181">
        <ele>697.09</ele>
        <time>2014-09-07T11:25:33Z</time>
      </trkpt>
      <trkpt lat="43.81779" lon="3.57183">
        <ele>697.57</ele>
        <time>2014-09-07T11:25:35Z</time>
      </trkpt>
      <trkpt lat="43.81768" lon="3.57181">
        <ele>699.98</ele>
        <time>2014-09-07T11:25:47Z</time>
      </trkpt>
      <trkpt lat="43.81763" lon="3.57183">
        <ele>700.94</ele>
        <time>2014-09-07T11:25:52Z</time>
      </trkpt>
      <trkpt lat="43.81757" lon="3.57188">
        <ele>701.42</ele>
        <time>2014-09-07T11:25:58Z</time>
      </trkpt>
      <trkpt lat="43.81744" lon="3.57189">
        <ele>700.94</ele>
        <time>2014-09-07T11:26:08Z</time>
      </trkpt>
      <trkpt lat="43.81736" lon="3.57189">
        <ele>701.42</ele>
        <time>2014-09-07T11:26:16Z</time>
      </trkpt>
      <trkpt lat="43.81728" lon="3.57193">
        <ele>702.38</ele>
        <time>2014-09-07T11:26:25Z</time>
      </trkpt>
      <trkpt lat="43.81716" lon="3.57197">
        <ele>701.9</ele>
        <time>2014-09-07T11:26:39Z</time>
      </trkpt>
      <trkpt lat="43.81703" lon="3.57202">
        <ele>702.38</ele>
        <time>2014-09-07T11:26:52Z</time>
      </trkpt>
      <trkpt lat="43.81701" lon="3.57201">
        <ele>702.86</ele>
        <time>2014-09-07T11:26:54Z</time>
      </trkpt>
      <trkpt lat="43.81698" lon="3.57203">
        <ele>702.38</ele>
        <time>2014-09-07T11:26:57Z</time>
      </trkpt>
      <trkpt lat="43.81695" lon="3.57203">
        <ele>702.38</ele>
        <time>2014-09-07T11:26:59Z</time>
      </trkpt>
      <trkpt lat="43.81683" lon="3.57199">
        <ele>701.9</ele>
        <time>2014-09-07T11:27:12Z</time>
      </trkpt>
      <trkpt lat="43.81679" lon="3.572">
        <ele>701.9</ele>
        <time>2014-09-07T11:27:17Z</time>
      </trkpt>
      <trkpt lat="43.81675" lon="3.57198">
        <ele>701.9</ele>
        <time>2014-09-07T11:27:21Z</time>
      </trkpt>
      <trkpt lat="43.81669" lon="3.57197">
        <ele>702.38</ele>
        <time>2014-09-07T11:27:26Z</time>
      </trkpt>
      <trkpt lat="43.81664" lon="3.572">
        <ele>701.9</ele>
        <time>2014-09-07T11:27:32Z</time>
      </trkpt>
      <trkpt lat="43.8166" lon="3.57202">
        <ele>701.42</ele>
        <time>2014-09-07T11:27:36Z</time>
      </trkpt>
      <trkpt lat="43.81652" lon="3.57194">
        <ele>701.9</ele>
        <time>2014-09-07T11:27:46Z</time>
      </trkpt>
      <trkpt lat="43.81642" lon="3.57189">
        <ele>702.86</ele>
        <time>2014-09-07T11:27:56Z</time>
      </trkpt>
      <trkpt lat="43.81633" lon="3.57187">
        <ele>702.38</ele>
        <time>2014-09-07T11:28:05Z</time>
      </trkpt>
      <trkpt lat="43.81623" lon="3.57183">
        <ele>702.38</ele>
        <time>2014-09-07T11:28:13Z</time>
      </trkpt>
      <trkpt lat="43.81611" lon="3.57177">
        <ele>702.86</ele>
        <time>2014-09-07T11:28:25Z</time>
      </trkpt>
      <trkpt lat="43.816" lon="3.57173">
        <ele>704.3</ele>
        <time>2014-09-07T11:28:35Z</time>
      </trkpt>
      <trkpt lat="43.8159" lon="3.57169">
        <ele>704.3</ele>
        <time>2014-09-07T11:28:44Z</time>
      </trkpt>
      <trkpt lat="43.81589" lon="3.57169">
        <ele>703.82</ele>
        <time>2014-09-07T11:28:45Z</time>
      </trkpt>
      <trkpt lat="43.8158" lon="3.57174">
        <ele>702.38</ele>
        <time>2014-09-07T11:28:56Z</time>
      </trkpt>
      <trkpt lat="43.81577" lon="3.57179">
        <ele>700.94</ele>
        <time>2014-09-07T11:29:01Z</time>
      </trkpt>
      <trkpt lat="43.81572" lon="3.57185">
        <ele>699.5</ele>
        <time>2014-09-07T11:29:05Z</time>
      </trkpt>
      <trkpt lat="43.81559" lon="3.57183">
        <ele>697.57</ele>
        <time>2014-09-07T11:29:16Z</time>
      </trkpt>
      <trkpt lat="43.81549" lon="3.57179">
        <ele>695.65</ele>
        <time>2014-09-07T11:29:26Z</time>
      </trkpt>
      <trkpt lat="43.8154" lon="3.57182">
        <ele>694.69</ele>
        <time>2014-09-07T11:29:37Z</time>
      </trkpt>
      <trkpt lat="43.81538" lon="3.57185">
        <ele>693.73</ele>
        <time>2014-09-07T11:29:40Z</time>
      </trkpt>
      <trkpt lat="43.81527" lon="3.5719">
        <ele>692.77</ele>
        <time>2014-09-07T11:29:49Z</time>
      </trkpt>
      <trkpt lat="43.81519" lon="3.57187">
        <ele>692.29</ele>
        <time>2014-09-07T11:29:56Z</time>
      </trkpt>
      <trkpt lat="43.81514" lon="3.57188">
        <ele>692.29</ele>
        <time>2014-09-07T11:30:00Z</time>
      </trkpt>
      <trkpt lat="43.81502" lon="3.57193">
        <ele>690.84</ele>
        <time>2014-09-07T11:30:10Z</time>
      </trkpt>
      <trkpt lat="43.81492" lon="3.57191">
        <ele>691.33</ele>
        <time>2014-09-07T11:30:18Z</time>
      </trkpt>
      <trkpt lat="43.81484" lon="3.57189">
        <ele>690.84</ele>
        <time>2014-09-07T11:30:26Z</time>
      </trkpt>
      <trkpt lat="43.81472" lon="3.57186">
        <ele>691.81</ele>
        <time>2014-09-07T11:30:37Z</time>
      </trkpt>
      <trkpt lat="43.81467" lon="3.57187">
        <ele>691.81</ele>
        <time>2014-09-07T11:30:41Z</time>
      </trkpt>
      <trkpt lat="43.81458" lon="3.57189">
        <ele>690.84</ele>
        <time>2014-09-07T11:30:51Z</time>
      </trkpt>
      <trkpt lat="43.81446" lon="3.57187">
        <ele>690.36</ele>
        <time>2014-09-07T11:31:01Z</time>
      </trkpt>
      <trkpt lat="43.81441" lon="3.57185">
        <ele>690.36</ele>
        <time>2014-09-07T11:31:05Z</time>
      </trkpt>
      <trkpt lat="43.81432" lon="3.57172">
        <ele>690.36</ele>
        <time>2014-09-07T11:31:16Z</time>
      </trkpt>
      <trkpt lat="43.81424" lon="3.57161">
        <ele>692.29</ele>
        <time>2014-09-07T11:31:25Z</time>
      </trkpt>
      <trkpt lat="43.81415" lon="3.57151">
        <ele>694.21</ele>
        <time>2014-09-07T11:31:35Z</time>
      </trkpt>
      <trkpt lat="43.81412" lon="3.57148">
        <ele>694.69</ele>
        <time>2014-09-07T11:31:39Z</time>
      </trkpt>
      <trkpt lat="43.81403" lon="3.57135">
        <ele>696.13</ele>
        <time>2014-09-07T11:31:50Z</time>
      </trkpt>
      <trkpt lat="43.81394" lon="3.57122">
        <ele>696.13</ele>
        <time>2014-09-07T11:32:00Z</time>
      </trkpt>
      <trkpt lat="43.81391" lon="3.57119">
        <ele>695.65</ele>
        <time>2014-09-07T11:32:04Z</time>
      </trkpt>
      <trkpt lat="43.81392" lon="3.57116">
        <ele>695.17</ele>
        <time>2014-09-07T11:32:07Z</time>
      </trkpt>
      <trkpt lat="43.81384" lon="3.57103">
        <ele>694.69</ele>
        <time>2014-09-07T11:32:17Z</time>
      </trkpt>
      <trkpt lat="43.81383" lon="3.571">
        <ele>694.69</ele>
        <time>2014-09-07T11:32:19Z</time>
      </trkpt>
      <trkpt lat="43.81375" lon="3.57087">
        <ele>694.21</ele>
        <time>2014-09-07T11:32:29Z</time>
      </trkpt>
      <trkpt lat="43.81374" lon="3.57085">
        <ele>694.21</ele>
        <time>2014-09-07T11:32:31Z</time>
      </trkpt>
      <trkpt lat="43.81364" lon="3.57074">
        <ele>693.25</ele>
        <time>2014-09-07T11:32:41Z</time>
      </trkpt>
      <trkpt lat="43.8135" lon="3.57063">
        <ele>694.21</ele>
        <time>2014-09-07T11:32:52Z</time>
      </trkpt>
      <trkpt lat="43.81342" lon="3.57057">
        <ele>695.65</ele>
        <time>2014-09-07T11:33:01Z</time>
      </trkpt>
      <trkpt lat="43.81335" lon="3.57053">
        <ele>696.61</ele>
        <time>2014-09-07T11:33:08Z</time>
      </trkpt>
      <trkpt lat="43.81324" lon="3.57044">
        <ele>696.61</ele>
        <time>2014-09-07T11:33:18Z</time>
      </trkpt>
      <trkpt lat="43.81321" lon="3.57043">
        <ele>696.13</ele>
        <time>2014-09-07T11:33:21Z</time>
      </trkpt>
      <trkpt lat="43.81319" lon="3.57039">
        <ele>695.65</ele>
        <time>2014-09-07T11:33:24Z</time>
      </trkpt>
      <trkpt lat="43.81315" lon="3.57033">
        <ele>696.13</ele>
        <time>2014-09-07T11:33:29Z</time>
      </trkpt>
      <trkpt lat="43.81304" lon="3.57022">
        <ele>694.21</ele>
        <time>2014-09-07T11:33:39Z</time>
      </trkpt>
      <trkpt lat="43.81294" lon="3.57009">
        <ele>693.73</ele>
        <time>2014-09-07T11:33:50Z</time>
      </trkpt>
      <trkpt lat="43.81282" lon="3.56998">
        <ele>694.21</ele>
        <time>2014-09-07T11:34:00Z</time>
      </trkpt>
      <trkpt lat="43.81272" lon="3.56982">
        <ele>694.69</ele>
        <time>2014-09-07T11:34:11Z</time>
      </trkpt>
      <trkpt lat="43.81266" lon="3.56974">
        <ele>694.69</ele>
        <time>2014-09-07T11:34:18Z</time>
      </trkpt>
      <trkpt lat="43.81265" lon="3.56963">
        <ele>695.17</ele>
        <time>2014-09-07T11:34:25Z</time>
      </trkpt>
      <trkpt lat="43.81259" lon="3.56958">
        <ele>695.65</ele>
        <time>2014-09-07T11:34:30Z</time>
      </trkpt>
      <trkpt lat="43.8125" lon="3.56942">
        <ele>694.21</ele>
        <time>2014-09-07T11:34:42Z</time>
      </trkpt>
      <trkpt lat="43.81242" lon="3.56929">
        <ele>693.73</ele>
        <time>2014-09-07T11:34:51Z</time>
      </trkpt>
      <trkpt lat="43.81233" lon="3.56916">
        <ele>693.73</ele>
        <time>2014-09-07T11:35:01Z</time>
      </trkpt>
      <trkpt lat="43.81228" lon="3.56905">
        <ele>693.73</ele>
        <time>2014-09-07T11:35:09Z</time>
      </trkpt>
      <trkpt lat="43.81223" lon="3.56895">
        <ele>693.73</ele>
        <time>2014-09-07T11:35:15Z</time>
      </trkpt>
      <trkpt lat="43.81218" lon="3.56893">
        <ele>693.25</ele>
        <time>2014-09-07T11:35:26Z</time>
      </trkpt>
      <trkpt lat="43.81217" lon="3.56893">
        <ele>692.77</ele>
        <time>2014-09-07T11:35:39Z</time>
      </trkpt>
      <trkpt lat="43.81217" lon="3.56893">
        <ele>692.29</ele>
        <time>2014-09-07T11:35:47Z</time>
      </trkpt>
      <trkpt lat="43.81215" lon="3.56891">
        <ele>692.29</ele>
        <time>2014-09-07T11:35:49Z</time>
      </trkpt>
      <trkpt lat="43.81204" lon="3.56887">
        <ele>690.84</ele>
        <time>2014-09-07T11:35:58Z</time>
      </trkpt>
      <trkpt lat="43.81195" lon="3.56876">
        <ele>690.36</ele>
        <time>2014-09-07T11:36:09Z</time>
      </trkpt>
      <trkpt lat="43.81193" lon="3.56873">
        <ele>689.88</ele>
        <time>2014-09-07T11:36:13Z</time>
      </trkpt>
      <trkpt lat="43.81182" lon="3.56864">
        <ele>688.92</ele>
        <time>2014-09-07T11:36:24Z</time>
      </trkpt>
      <trkpt lat="43.81175" lon="3.56858">
        <ele>688.44</ele>
        <time>2014-09-07T11:36:32Z</time>
      </trkpt>
      <trkpt lat="43.81164" lon="3.5685">
        <ele>687.96</ele>
        <time>2014-09-07T11:36:41Z</time>
      </trkpt>
      <trkpt lat="43.8115" lon="3.5684">
        <ele>688.44</ele>
        <time>2014-09-07T11:36:51Z</time>
      </trkpt>
      <trkpt lat="43.81139" lon="3.56832">
        <ele>688.44</ele>
        <time>2014-09-07T11:37:02Z</time>
      </trkpt>
      <trkpt lat="43.81127" lon="3.5682">
        <ele>687.96</ele>
        <time>2014-09-07T11:37:12Z</time>
      </trkpt>
      <trkpt lat="43.81126" lon="3.5682">
        <ele>687.96</ele>
        <time>2014-09-07T11:37:13Z</time>
      </trkpt>
      <trkpt lat="43.81124" lon="3.56819">
        <ele>687.96</ele>
        <time>2014-09-07T11:37:15Z</time>
      </trkpt>
      <trkpt lat="43.81121" lon="3.56816">
        <ele>687.48</ele>
        <time>2014-09-07T11:37:19Z</time>
      </trkpt>
      <trkpt lat="43.81114" lon="3.56804">
        <ele>687.48</ele>
        <time>2014-09-07T11:37:26Z</time>
      </trkpt>
      <trkpt lat="43.81107" lon="3.56797">
        <ele>687.48</ele>
        <time>2014-09-07T11:37:36Z</time>
      </trkpt>
      <trkpt lat="43.81103" lon="3.56794">
        <ele>686.52</ele>
        <time>2014-09-07T11:37:47Z</time>
      </trkpt>
      <trkpt lat="43.81097" lon="3.56793">
        <ele>686.04</ele>
        <time>2014-09-07T11:37:57Z</time>
      </trkpt>
      <trkpt lat="43.81094" lon="3.56792">
        <ele>685.56</ele>
        <time>2014-09-07T11:38:04Z</time>
      </trkpt>
      <trkpt lat="43.81092" lon="3.5679">
        <ele>685.56</ele>
        <time>2014-09-07T11:38:06Z</time>
      </trkpt>
      <trkpt lat="43.81083" lon="3.56785">
        <ele>685.56</ele>
        <time>2014-09-07T11:38:14Z</time>
      </trkpt>
      <trkpt lat="43.81072" lon="3.56775">
        <ele>685.56</ele>
        <time>2014-09-07T11:38:26Z</time>
      </trkpt>
      <trkpt lat="43.81062" lon="3.56777">
        <ele>685.56</ele>
        <time>2014-09-07T11:38:37Z</time>
      </trkpt>
      <trkpt lat="43.81058" lon="3.56774">
        <ele>684.12</ele>
        <time>2014-09-07T11:38:50Z</time>
      </trkpt>
      <trkpt lat="43.81055" lon="3.56776">
        <ele>683.15</ele>
        <time>2014-09-07T11:39:02Z</time>
      </trkpt>
      <trkpt lat="43.81049" lon="3.56773">
        <ele>682.19</ele>
        <time>2014-09-07T11:39:14Z</time>
      </trkpt>
      <trkpt lat="43.8104" lon="3.56763">
        <ele>680.27</ele>
        <time>2014-09-07T11:39:24Z</time>
      </trkpt>
      <trkpt lat="43.81023" lon="3.56756">
        <ele>669.22</ele>
        <time>2014-09-07T11:39:34Z</time>
      </trkpt>
      <trkpt lat="43.81017" lon="3.56749">
        <ele>666.33</ele>
        <time>2014-09-07T11:39:42Z</time>
      </trkpt>
      <trkpt lat="43.81009" lon="3.56734">
        <ele>664.41</ele>
        <time>2014-09-07T11:39:52Z</time>
      </trkpt>
      <trkpt lat="43.81005" lon="3.56733">
        <ele>663.45</ele>
        <time>2014-09-07T11:39:56Z</time>
      </trkpt>
      <trkpt lat="43.81004" lon="3.56729">
        <ele>662.97</ele>
        <time>2014-09-07T11:39:58Z</time>
      </trkpt>
      <trkpt lat="43.80999" lon="3.56717">
        <ele>662.49</ele>
        <time>2014-09-07T11:40:08Z</time>
      </trkpt>
      <trkpt lat="43.80998" lon="3.56712">
        <ele>662.49</ele>
        <time>2014-09-07T11:40:12Z</time>
      </trkpt>
      <trkpt lat="43.80987" lon="3.56698">
        <ele>661.04</ele>
        <time>2014-09-07T11:40:23Z</time>
      </trkpt>
      <trkpt lat="43.80983" lon="3.56693">
        <ele>659.12</ele>
        <time>2014-09-07T11:40:33Z</time>
      </trkpt>
      <trkpt lat="43.8098" lon="3.5669">
        <ele>658.64</ele>
        <time>2014-09-07T11:40:39Z</time>
      </trkpt>
      <trkpt lat="43.80974" lon="3.56694">
        <ele>657.2</ele>
        <time>2014-09-07T11:40:48Z</time>
      </trkpt>
      <trkpt lat="43.80974" lon="3.56695">
        <ele>656.72</ele>
        <time>2014-09-07T11:40:49Z</time>
      </trkpt>
      <trkpt lat="43.80974" lon="3.56704">
        <ele>655.76</ele>
        <time>2014-09-07T11:40:54Z</time>
      </trkpt>
      <trkpt lat="43.80973" lon="3.56722">
        <ele>652.39</ele>
        <time>2014-09-07T11:41:05Z</time>
      </trkpt>
      <trkpt lat="43.80971" lon="3.56726">
        <ele>649.99</ele>
        <time>2014-09-07T11:41:16Z</time>
      </trkpt>
      <trkpt lat="43.80971" lon="3.56728">
        <ele>649.03</ele>
        <time>2014-09-07T11:41:40Z</time>
      </trkpt>
      <trkpt lat="43.8097" lon="3.56728">
        <ele>649.03</ele>
        <time>2014-09-07T11:42:05Z</time>
      </trkpt>
      <trkpt lat="43.80969" lon="3.56728">
        <ele>648.55</ele>
        <time>2014-09-07T11:42:23Z</time>
      </trkpt>
      <trkpt lat="43.80967" lon="3.56731">
        <ele>648.55</ele>
        <time>2014-09-07T11:42:39Z</time>
      </trkpt>
      <trkpt lat="43.80966" lon="3.56731">
        <ele>648.07</ele>
        <time>2014-09-07T11:43:03Z</time>
      </trkpt>
      <trkpt lat="43.80967" lon="3.56741">
        <ele>646.62</ele>
        <time>2014-09-07T11:43:22Z</time>
      </trkpt>
      <trkpt lat="43.80967" lon="3.5674">
        <ele>646.62</ele>
        <time>2014-09-07T11:43:44Z</time>
      </trkpt>
      <trkpt lat="43.80967" lon="3.56738">
        <ele>646.14</ele>
        <time>2014-09-07T11:44:13Z</time>
      </trkpt>
      <trkpt lat="43.80967" lon="3.56738">
        <ele>646.14</ele>
        <time>2014-09-07T11:44:32Z</time>
      </trkpt>
      <trkpt lat="43.80967" lon="3.56733">
        <ele>646.14</ele>
        <time>2014-09-07T11:44:56Z</time>
      </trkpt>
      <trkpt lat="43.80967" lon="3.56732">
        <ele>646.62</ele>
        <time>2014-09-07T11:45:20Z</time>
      </trkpt>
      <trkpt lat="43.80967" lon="3.56732">
        <ele>646.62</ele>
        <time>2014-09-07T11:45:41Z</time>
      </trkpt>
      <trkpt lat="43.80966" lon="3.56729">
        <ele>646.14</ele>
        <time>2014-09-07T11:46:01Z</time>
      </trkpt>
      <trkpt lat="43.80966" lon="3.5673">
        <ele>646.14</ele>
        <time>2014-09-07T11:46:22Z</time>
      </trkpt>
      <trkpt lat="43.80966" lon="3.56731">
        <ele>646.14</ele>
        <time>2014-09-07T11:46:44Z</time>
      </trkpt>
      <trkpt lat="43.80967" lon="3.5673">
        <ele>646.14</ele>
        <time>2014-09-07T11:47:09Z</time>
      </trkpt>
      <trkpt lat="43.80967" lon="3.56729">
        <ele>646.14</ele>
        <time>2014-09-07T11:47:35Z</time>
      </trkpt>
      <trkpt lat="43.80966" lon="3.56727">
        <ele>646.62</ele>
        <time>2014-09-07T11:47:58Z</time>
      </trkpt>
      <trkpt lat="43.80966" lon="3.56726">
        <ele>646.62</ele>
        <time>2014-09-07T11:48:17Z</time>
      </trkpt>
      <trkpt lat="43.80967" lon="3.56726">
        <ele>646.62</ele>
        <time>2014-09-07T11:48:41Z</time>
      </trkpt>
      <trkpt lat="43.80967" lon="3.56727">
        <ele>645.18</ele>
        <time>2014-09-07T11:48:57Z</time>
      </trkpt>
      <trkpt lat="43.80968" lon="3.56728">
        <ele>644.7</ele>
        <time>2014-09-07T11:49:18Z</time>
      </trkpt>
      <trkpt lat="43.80968" lon="3.56727">
        <ele>645.18</ele>
        <time>2014-09-07T11:49:37Z</time>
      </trkpt>
      <trkpt lat="43.80968" lon="3.56728">
        <ele>645.18</ele>
        <time>2014-09-07T11:49:56Z</time>
      </trkpt>
      <trkpt lat="43.80967" lon="3.56733">
        <ele>645.18</ele>
        <time>2014-09-07T11:50:12Z</time>
      </trkpt>
      <trkpt lat="43.80969" lon="3.56744">
        <ele>646.14</ele>
        <time>2014-09-07T11:50:19Z</time>
      </trkpt>
      <trkpt lat="43.80964" lon="3.56757">
        <ele>643.74</ele>
        <time>2014-09-07T11:50:29Z</time>
      </trkpt>
      <trkpt lat="43.80957" lon="3.56766">
        <ele>639.89</ele>
        <time>2014-09-07T11:50:38Z</time>
      </trkpt>
      <trkpt lat="43.80953" lon="3.56778">
        <ele>637.49</ele>
        <time>2014-09-07T11:50:47Z</time>
      </trkpt>
      <trkpt lat="43.80961" lon="3.56794">
        <ele>636.53</ele>
        <time>2014-09-07T11:50:59Z</time>
      </trkpt>
      <trkpt lat="43.80966" lon="3.56809">
        <ele>636.05</ele>
        <time>2014-09-07T11:51:11Z</time>
      </trkpt>
      <trkpt lat="43.80957" lon="3.56819">
        <ele>635.09</ele>
        <time>2014-09-07T11:51:22Z</time>
      </trkpt>
      <trkpt lat="43.80953" lon="3.56831">
        <ele>635.09</ele>
        <time>2014-09-07T11:51:34Z</time>
      </trkpt>
      <trkpt lat="43.80952" lon="3.56835">
        <ele>635.09</ele>
        <time>2014-09-07T11:51:37Z</time>
      </trkpt>
      <trkpt lat="43.80952" lon="3.56851">
        <ele>634.61</ele>
        <time>2014-09-07T11:51:54Z</time>
      </trkpt>
      <trkpt lat="43.80958" lon="3.56865">
        <ele>635.09</ele>
        <time>2014-09-07T11:52:06Z</time>
      </trkpt>
      <trkpt lat="43.80965" lon="3.5688">
        <ele>633.17</ele>
        <time>2014-09-07T11:52:21Z</time>
      </trkpt>
      <trkpt lat="43.80965" lon="3.56883">
        <ele>632.68</ele>
        <time>2014-09-07T11:52:35Z</time>
      </trkpt>
      <trkpt lat="43.8096" lon="3.56902">
        <ele>629.8</ele>
        <time>2014-09-07T11:52:49Z</time>
      </trkpt>
      <trkpt lat="43.8096" lon="3.56904">
        <ele>629.32</ele>
        <time>2014-09-07T11:52:50Z</time>
      </trkpt>
      <trkpt lat="43.80959" lon="3.56914">
        <ele>627.88</ele>
        <time>2014-09-07T11:53:01Z</time>
      </trkpt>
      <trkpt lat="43.80967" lon="3.56928">
        <ele>625.47</ele>
        <time>2014-09-07T11:53:14Z</time>
      </trkpt>
      <trkpt lat="43.80969" lon="3.56943">
        <ele>621.63</ele>
        <time>2014-09-07T11:53:27Z</time>
      </trkpt>
      <trkpt lat="43.80971" lon="3.56952">
        <ele>619.23</ele>
        <time>2014-09-07T11:53:38Z</time>
      </trkpt>
      <trkpt lat="43.80973" lon="3.56966">
        <ele>618.75</ele>
        <time>2014-09-07T11:53:48Z</time>
      </trkpt>
      <trkpt lat="43.80975" lon="3.56975">
        <ele>616.82</ele>
        <time>2014-09-07T11:54:01Z</time>
      </trkpt>
      <trkpt lat="43.80977" lon="3.5698">
        <ele>616.34</ele>
        <time>2014-09-07T11:54:03Z</time>
      </trkpt>
      <trkpt lat="43.80987" lon="3.56999">
        <ele>613.94</ele>
        <time>2014-09-07T11:54:17Z</time>
      </trkpt>
      <trkpt lat="43.80991" lon="3.57011">
        <ele>610.57</ele>
        <time>2014-09-07T11:54:31Z</time>
      </trkpt>
      <trkpt lat="43.80997" lon="3.57027">
        <ele>608.17</ele>
        <time>2014-09-07T11:54:42Z</time>
      </trkpt>
      <trkpt lat="43.80996" lon="3.57042">
        <ele>606.25</ele>
        <time>2014-09-07T11:54:56Z</time>
      </trkpt>
      <trkpt lat="43.80998" lon="3.57061">
        <ele>603.36</ele>
        <time>2014-09-07T11:55:09Z</time>
      </trkpt>
      <trkpt lat="43.81002" lon="3.57076">
        <ele>601.92</ele>
        <time>2014-09-07T11:55:24Z</time>
      </trkpt>
      <trkpt lat="43.81007" lon="3.57095">
        <ele>600.48</ele>
        <time>2014-09-07T11:55:37Z</time>
      </trkpt>
      <trkpt lat="43.81009" lon="3.57109">
        <ele>597.6</ele>
        <time>2014-09-07T11:55:50Z</time>
      </trkpt>
      <trkpt lat="43.81008" lon="3.57121">
        <ele>596.15</ele>
        <time>2014-09-07T11:56:02Z</time>
      </trkpt>
      <trkpt lat="43.8101" lon="3.57137">
        <ele>592.31</ele>
        <time>2014-09-07T11:56:16Z</time>
      </trkpt>
      <trkpt lat="43.81005" lon="3.57151">
        <ele>589.43</ele>
        <time>2014-09-07T11:56:27Z</time>
      </trkpt>
      <trkpt lat="43.81002" lon="3.57161">
        <ele>587.5</ele>
        <time>2014-09-07T11:56:38Z</time>
      </trkpt>
      <trkpt lat="43.81004" lon="3.57168">
        <ele>586.06</ele>
        <time>2014-09-07T11:56:45Z</time>
      </trkpt>
      <trkpt lat="43.81007" lon="3.57179">
        <ele>586.54</ele>
        <time>2014-09-07T11:56:54Z</time>
      </trkpt>
      <trkpt lat="43.81012" lon="3.57196">
        <ele>584.62</ele>
        <time>2014-09-07T11:57:08Z</time>
      </trkpt>
      <trkpt lat="43.8101" lon="3.57202">
        <ele>584.14</ele>
        <time>2014-09-07T11:57:14Z</time>
      </trkpt>
      <trkpt lat="43.80999" lon="3.57201">
        <ele>581.25</ele>
        <time>2014-09-07T11:57:26Z</time>
      </trkpt>
      <trkpt lat="43.80988" lon="3.57194">
        <ele>580.29</ele>
        <time>2014-09-07T11:57:38Z</time>
      </trkpt>
      <trkpt lat="43.80976" lon="3.57197">
        <ele>577.41</ele>
        <time>2014-09-07T11:57:53Z</time>
      </trkpt>
      <trkpt lat="43.80967" lon="3.57204">
        <ele>574.04</ele>
        <time>2014-09-07T11:58:06Z</time>
      </trkpt>
      <trkpt lat="43.80957" lon="3.57213">
        <ele>570.68</ele>
        <time>2014-09-07T11:58:18Z</time>
      </trkpt>
      <trkpt lat="43.80947" lon="3.57219">
        <ele>567.8</ele>
        <time>2014-09-07T11:58:29Z</time>
      </trkpt>
      <trkpt lat="43.80938" lon="3.57226">
        <ele>563.47</ele>
        <time>2014-09-07T11:58:42Z</time>
      </trkpt>
      <trkpt lat="43.80934" lon="3.57238">
        <ele>562.99</ele>
        <time>2014-09-07T11:58:52Z</time>
      </trkpt>
      <trkpt lat="43.80934" lon="3.57239">
        <ele>562.99</ele>
        <time>2014-09-07T11:58:53Z</time>
      </trkpt>
      <trkpt lat="43.80934" lon="3.57255">
        <ele>560.59</ele>
        <time>2014-09-07T11:59:04Z</time>
      </trkpt>
      <trkpt lat="43.80929" lon="3.57264">
        <ele>559.14</ele>
        <time>2014-09-07T11:59:15Z</time>
      </trkpt>
      <trkpt lat="43.80924" lon="3.57274">
        <ele>556.74</ele>
        <time>2014-09-07T11:59:24Z</time>
      </trkpt>
      <trkpt lat="43.80922" lon="3.57275">
        <ele>555.78</ele>
        <time>2014-09-07T11:59:26Z</time>
      </trkpt>
      <trkpt lat="43.80915" lon="3.5729">
        <ele>556.26</ele>
        <time>2014-09-07T11:59:35Z</time>
      </trkpt>
      <trkpt lat="43.80902" lon="3.57306">
        <ele>557.22</ele>
        <time>2014-09-07T11:59:48Z</time>
      </trkpt>
      <trkpt lat="43.80891" lon="3.57317">
        <ele>557.7</ele>
        <time>2014-09-07T12:00:00Z</time>
      </trkpt>
      <trkpt lat="43.80885" lon="3.57328">
        <ele>558.66</ele>
        <time>2014-09-07T12:00:09Z</time>
      </trkpt>
      <trkpt lat="43.80875" lon="3.57343">
        <ele>559.62</ele>
        <time>2014-09-07T12:00:21Z</time>
      </trkpt>
      <trkpt lat="43.80861" lon="3.57356">
        <ele>560.11</ele>
        <time>2014-09-07T12:00:35Z</time>
      </trkpt>
      <trkpt lat="43.80852" lon="3.57371">
        <ele>558.66</ele>
        <time>2014-09-07T12:00:48Z</time>
      </trkpt>
      <trkpt lat="43.80848" lon="3.57373">
        <ele>558.18</ele>
        <time>2014-09-07T12:00:51Z</time>
      </trkpt>
      <trkpt lat="43.80833" lon="3.57387">
        <ele>556.26</ele>
        <time>2014-09-07T12:01:06Z</time>
      </trkpt>
      <trkpt lat="43.80816" lon="3.57397">
        <ele>556.26</ele>
        <time>2014-09-07T12:01:19Z</time>
      </trkpt>
      <trkpt lat="43.80807" lon="3.57398">
        <ele>555.3</ele>
        <time>2014-09-07T12:01:29Z</time>
      </trkpt>
      <trkpt lat="43.8079" lon="3.57403">
        <ele>553.86</ele>
        <time>2014-09-07T12:01:42Z</time>
      </trkpt>
      <trkpt lat="43.80775" lon="3.5741">
        <ele>553.38</ele>
        <time>2014-09-07T12:01:53Z</time>
      </trkpt>
      <trkpt lat="43.80764" lon="3.57411">
        <ele>551.93</ele>
        <time>2014-09-07T12:02:03Z</time>
      </trkpt>
      <trkpt lat="43.80753" lon="3.57413">
        <ele>550.97</ele>
        <time>2014-09-07T12:02:13Z</time>
      </trkpt>
      <trkpt lat="43.80741" lon="3.57414">
        <ele>548.57</ele>
        <time>2014-09-07T12:02:22Z</time>
      </trkpt>
      <trkpt lat="43.8073" lon="3.57417">
        <ele>545.2</ele>
        <time>2014-09-07T12:02:32Z</time>
      </trkpt>
      <trkpt lat="43.8072" lon="3.57416">
        <ele>543.76</ele>
        <time>2014-09-07T12:02:40Z</time>
      </trkpt>
      <trkpt lat="43.80718" lon="3.57416">
        <ele>543.76</ele>
        <time>2014-09-07T12:02:42Z</time>
      </trkpt>
      <trkpt lat="43.80713" lon="3.57415">
        <ele>542.8</ele>
        <time>2014-09-07T12:02:46Z</time>
      </trkpt>
      <trkpt lat="43.80702" lon="3.57417">
        <ele>541.36</ele>
        <time>2014-09-07T12:02:56Z</time>
      </trkpt>
      <trkpt lat="43.80696" lon="3.57418">
        <ele>540.88</ele>
        <time>2014-09-07T12:03:00Z</time>
      </trkpt>
      <trkpt lat="43.80685" lon="3.57421">
        <ele>537.03</ele>
        <time>2014-09-07T12:03:10Z</time>
      </trkpt>
      <trkpt lat="43.8067" lon="3.57423">
        <ele>531.75</ele>
        <time>2014-09-07T12:03:23Z</time>
      </trkpt>
      <trkpt lat="43.80663" lon="3.57426">
        <ele>529.82</ele>
        <time>2014-09-07T12:03:29Z</time>
      </trkpt>
      <trkpt lat="43.80652" lon="3.57431">
        <ele>526.46</ele>
        <time>2014-09-07T12:03:39Z</time>
      </trkpt>
      <trkpt lat="43.80651" lon="3.57431">
        <ele>525.98</ele>
        <time>2014-09-07T12:03:40Z</time>
      </trkpt>
      <trkpt lat="43.80639" lon="3.57431">
        <ele>521.65</ele>
        <time>2014-09-07T12:03:50Z</time>
      </trkpt>
      <trkpt lat="43.80628" lon="3.57431">
        <ele>518.29</ele>
        <time>2014-09-07T12:04:00Z</time>
      </trkpt>
      <trkpt lat="43.80618" lon="3.5743">
        <ele>516.85</ele>
        <time>2014-09-07T12:04:09Z</time>
      </trkpt>
      <trkpt lat="43.80605" lon="3.57426">
        <ele>516.37</ele>
        <time>2014-09-07T12:04:20Z</time>
      </trkpt>
      <trkpt lat="43.80599" lon="3.57425">
        <ele>516.37</ele>
        <time>2014-09-07T12:04:26Z</time>
      </trkpt>
      <trkpt lat="43.80593" lon="3.57424">
        <ele>516.37</ele>
        <time>2014-09-07T12:04:31Z</time>
      </trkpt>
      <trkpt lat="43.80586" lon="3.57418">
        <ele>515.88</ele>
        <time>2014-09-07T12:04:36Z</time>
      </trkpt>
      <trkpt lat="43.80575" lon="3.57412">
        <ele>514.44</ele>
        <time>2014-09-07T12:04:47Z</time>
      </trkpt>
      <trkpt lat="43.80565" lon="3.57405">
        <ele>513.96</ele>
        <time>2014-09-07T12:04:57Z</time>
      </trkpt>
      <trkpt lat="43.80562" lon="3.57405">
        <ele>512.04</ele>
        <time>2014-09-07T12:05:02Z</time>
      </trkpt>
      <trkpt lat="43.80552" lon="3.57394">
        <ele>509.64</ele>
        <time>2014-09-07T12:05:13Z</time>
      </trkpt>
      <trkpt lat="43.80547" lon="3.57392">
        <ele>509.64</ele>
        <time>2014-09-07T12:05:17Z</time>
      </trkpt>
      <trkpt lat="43.80535" lon="3.57385">
        <ele>509.16</ele>
        <time>2014-09-07T12:05:28Z</time>
      </trkpt>
      <trkpt lat="43.80528" lon="3.57384">
        <ele>508.19</ele>
        <time>2014-09-07T12:05:35Z</time>
      </trkpt>
      <trkpt lat="43.80513" lon="3.57387">
        <ele>506.75</ele>
        <time>2014-09-07T12:05:47Z</time>
      </trkpt>
      <trkpt lat="43.80502" lon="3.57389">
        <ele>506.27</ele>
        <time>2014-09-07T12:05:57Z</time>
      </trkpt>
      <trkpt lat="43.80488" lon="3.57386">
        <ele>504.83</ele>
        <time>2014-09-07T12:06:07Z</time>
      </trkpt>
      <trkpt lat="43.80476" lon="3.5739">
        <ele>502.43</ele>
        <time>2014-09-07T12:06:18Z</time>
      </trkpt>
      <trkpt lat="43.80464" lon="3.5739">
        <ele>500.98</ele>
        <time>2014-09-07T12:06:28Z</time>
      </trkpt>
      <trkpt lat="43.8046" lon="3.5739">
        <ele>500.5</ele>
        <time>2014-09-07T12:06:33Z</time>
      </trkpt>
      <trkpt lat="43.80448" lon="3.5739">
        <ele>500.5</ele>
        <time>2014-09-07T12:06:43Z</time>
      </trkpt>
      <trkpt lat="43.80435" lon="3.57393">
        <ele>499.54</ele>
        <time>2014-09-07T12:06:54Z</time>
      </trkpt>
      <trkpt lat="43.80421" lon="3.57393">
        <ele>498.1</ele>
        <time>2014-09-07T12:07:04Z</time>
      </trkpt>
      <trkpt lat="43.8042" lon="3.57394">
        <ele>497.62</ele>
        <time>2014-09-07T12:07:06Z</time>
      </trkpt>
      <trkpt lat="43.80417" lon="3.57394">
        <ele>497.14</ele>
        <time>2014-09-07T12:07:08Z</time>
      </trkpt>
      <trkpt lat="43.804" lon="3.57388">
        <ele>495.22</ele>
        <time>2014-09-07T12:07:22Z</time>
      </trkpt>
      <trkpt lat="43.80398" lon="3.57387">
        <ele>494.26</ele>
        <time>2014-09-07T12:07:35Z</time>
      </trkpt>
      <trkpt lat="43.80399" lon="3.57387">
        <ele>493.29</ele>
        <time>2014-09-07T12:07:58Z</time>
      </trkpt>
      <trkpt lat="43.80398" lon="3.57387">
        <ele>491.85</ele>
        <time>2014-09-07T12:08:16Z</time>
      </trkpt>
      <trkpt lat="43.80395" lon="3.57383">
        <ele>489.93</ele>
        <time>2014-09-07T12:08:32Z</time>
      </trkpt>
      <trkpt lat="43.80387" lon="3.57377">
        <ele>489.45</ele>
        <time>2014-09-07T12:08:40Z</time>
      </trkpt>
      <trkpt lat="43.80379" lon="3.57372">
        <ele>487.53</ele>
        <time>2014-09-07T12:08:50Z</time>
      </trkpt>
      <trkpt lat="43.80375" lon="3.57371">
        <ele>486.56</ele>
        <time>2014-09-07T12:08:55Z</time>
      </trkpt>
      <trkpt lat="43.80362" lon="3.57375">
        <ele>484.16</ele>
        <time>2014-09-07T12:09:07Z</time>
      </trkpt>
      <trkpt lat="43.80349" lon="3.57375">
        <ele>482.72</ele>
        <time>2014-09-07T12:09:17Z</time>
      </trkpt>
      <trkpt lat="43.80343" lon="3.57376">
        <ele>482.24</ele>
        <time>2014-09-07T12:09:23Z</time>
      </trkpt>
      <trkpt lat="43.80331" lon="3.57377">
        <ele>480.8</ele>
        <time>2014-09-07T12:09:34Z</time>
      </trkpt>
      <trkpt lat="43.80317" lon="3.57379">
        <ele>479.84</ele>
        <time>2014-09-07T12:09:46Z</time>
      </trkpt>
      <trkpt lat="43.803" lon="3.57372">
        <ele>478.39</ele>
        <time>2014-09-07T12:09:58Z</time>
      </trkpt>
      <trkpt lat="43.80289" lon="3.57369">
        <ele>477.43</ele>
        <time>2014-09-07T12:10:07Z</time>
      </trkpt>
      <trkpt lat="43.80287" lon="3.5737">
        <ele>477.91</ele>
        <time>2014-09-07T12:10:09Z</time>
      </trkpt>
      <trkpt lat="43.80273" lon="3.57363">
        <ele>477.43</ele>
        <time>2014-09-07T12:10:19Z</time>
      </trkpt>
      <trkpt lat="43.8026" lon="3.57349">
        <ele>476.95</ele>
        <time>2014-09-07T12:10:31Z</time>
      </trkpt>
      <trkpt lat="43.80251" lon="3.57345">
        <ele>475.99</ele>
        <time>2014-09-07T12:10:41Z</time>
      </trkpt>
      <trkpt lat="43.80248" lon="3.57347">
        <ele>475.03</ele>
        <time>2014-09-07T12:10:49Z</time>
      </trkpt>
      <trkpt lat="43.8024" lon="3.57344">
        <ele>472.63</ele>
        <time>2014-09-07T12:10:59Z</time>
      </trkpt>
      <trkpt lat="43.80239" lon="3.57341">
        <ele>470.7</ele>
        <time>2014-09-07T12:11:12Z</time>
      </trkpt>
      <trkpt lat="43.80239" lon="3.57339">
        <ele>470.22</ele>
        <time>2014-09-07T12:11:39Z</time>
      </trkpt>
      <trkpt lat="43.80239" lon="3.57339">
        <ele>470.22</ele>
        <time>2014-09-07T12:11:46Z</time>
      </trkpt>
      <trkpt lat="43.80234" lon="3.57331">
        <ele>468.78</ele>
        <time>2014-09-07T12:11:53Z</time>
      </trkpt>
      <trkpt lat="43.80229" lon="3.57326">
        <ele>467.82</ele>
        <time>2014-09-07T12:11:59Z</time>
      </trkpt>
      <trkpt lat="43.8022" lon="3.57316">
        <ele>464.45</ele>
        <time>2014-09-07T12:12:10Z</time>
      </trkpt>
      <trkpt lat="43.80213" lon="3.57311">
        <ele>462.05</ele>
        <time>2014-09-07T12:12:20Z</time>
      </trkpt>
      <trkpt lat="43.80204" lon="3.57307">
        <ele>460.13</ele>
        <time>2014-09-07T12:12:29Z</time>
      </trkpt>
      <trkpt lat="43.80202" lon="3.57306">
        <ele>459.65</ele>
        <time>2014-09-07T12:12:32Z</time>
      </trkpt>
      <trkpt lat="43.80191" lon="3.57304">
        <ele>458.21</ele>
        <time>2014-09-07T12:12:43Z</time>
      </trkpt>
      <trkpt lat="43.80191" lon="3.57307">
        <ele>458.21</ele>
        <time>2014-09-07T12:12:48Z</time>
      </trkpt>
      <trkpt lat="43.80197" lon="3.57319">
        <ele>457.24</ele>
        <time>2014-09-07T12:12:58Z</time>
      </trkpt>
      <trkpt lat="43.80199" lon="3.57322">
        <ele>457.24</ele>
        <time>2014-09-07T12:13:06Z</time>
      </trkpt>
      <trkpt lat="43.8021" lon="3.57335">
        <ele>455.8</ele>
        <time>2014-09-07T12:13:18Z</time>
      </trkpt>
      <trkpt lat="43.80219" lon="3.57353">
        <ele>454.84</ele>
        <time>2014-09-07T12:13:29Z</time>
      </trkpt>
      <trkpt lat="43.80226" lon="3.57366">
        <ele>452.92</ele>
        <time>2014-09-07T12:13:39Z</time>
      </trkpt>
      <trkpt lat="43.80228" lon="3.57367">
        <ele>452.44</ele>
        <time>2014-09-07T12:13:41Z</time>
      </trkpt>
      <trkpt lat="43.80237" lon="3.57379">
        <ele>448.59</ele>
        <time>2014-09-07T12:13:52Z</time>
      </trkpt>
      <trkpt lat="43.80242" lon="3.57382">
        <ele>447.63</ele>
        <time>2014-09-07T12:13:58Z</time>
      </trkpt>
      <trkpt lat="43.8024" lon="3.57389">
        <ele>446.67</ele>
        <time>2014-09-07T12:14:06Z</time>
      </trkpt>
      <trkpt lat="43.80235" lon="3.57389">
        <ele>446.19</ele>
        <time>2014-09-07T12:14:16Z</time>
      </trkpt>
      <trkpt lat="43.80234" lon="3.5739">
        <ele>446.19</ele>
        <time>2014-09-07T12:14:17Z</time>
      </trkpt>
      <trkpt lat="43.80226" lon="3.57388">
        <ele>445.71</ele>
        <time>2014-09-07T12:14:26Z</time>
      </trkpt>
      <trkpt lat="43.80219" lon="3.57384">
        <ele>444.27</ele>
        <time>2014-09-07T12:14:38Z</time>
      </trkpt>
      <trkpt lat="43.80215" lon="3.57382">
        <ele>444.75</ele>
        <time>2014-09-07T12:14:41Z</time>
      </trkpt>
      <trkpt lat="43.80212" lon="3.57377">
        <ele>444.27</ele>
        <time>2014-09-07T12:14:45Z</time>
      </trkpt>
      <trkpt lat="43.80202" lon="3.57368">
        <ele>441.86</ele>
        <time>2014-09-07T12:14:55Z</time>
      </trkpt>
      <trkpt lat="43.80197" lon="3.57362">
        <ele>440.42</ele>
        <time>2014-09-07T12:15:01Z</time>
      </trkpt>
      <trkpt lat="43.80194" lon="3.57356">
        <ele>439.46</ele>
        <time>2014-09-07T12:15:05Z</time>
      </trkpt>
      <trkpt lat="43.80182" lon="3.57353">
        <ele>438.02</ele>
        <time>2014-09-07T12:15:16Z</time>
      </trkpt>
      <trkpt lat="43.80168" lon="3.5735">
        <ele>435.61</ele>
        <time>2014-09-07T12:15:27Z</time>
      </trkpt>
      <trkpt lat="43.80164" lon="3.57352">
        <ele>434.17</ele>
        <time>2014-09-07T12:15:33Z</time>
      </trkpt>
      <trkpt lat="43.80169" lon="3.57359">
        <ele>432.73</ele>
        <time>2014-09-07T12:15:40Z</time>
      </trkpt>
      <trkpt lat="43.80171" lon="3.57362">
        <ele>432.25</ele>
        <time>2014-09-07T12:15:42Z</time>
      </trkpt>
      <trkpt lat="43.80183" lon="3.57373">
        <ele>428.89</ele>
        <time>2014-09-07T12:15:55Z</time>
      </trkpt>
      <trkpt lat="43.80183" lon="3.57377">
        <ele>428.4</ele>
        <time>2014-09-07T12:15:57Z</time>
      </trkpt>
      <trkpt lat="43.80187" lon="3.57393">
        <ele>424.56</ele>
        <time>2014-09-07T12:16:09Z</time>
      </trkpt>
      <trkpt lat="43.80183" lon="3.57388">
        <ele>422.64</ele>
        <time>2014-09-07T12:16:15Z</time>
      </trkpt>
      <trkpt lat="43.80181" lon="3.57387">
        <ele>422.16</ele>
        <time>2014-09-07T12:16:17Z</time>
      </trkpt>
      <trkpt lat="43.80171" lon="3.57383">
        <ele>418.31</ele>
        <time>2014-09-07T12:16:29Z</time>
      </trkpt>
      <trkpt lat="43.80168" lon="3.57383">
        <ele>417.83</ele>
        <time>2014-09-07T12:16:33Z</time>
      </trkpt>
      <trkpt lat="43.80164" lon="3.57382">
        <ele>417.35</ele>
        <time>2014-09-07T12:16:36Z</time>
      </trkpt>
      <trkpt lat="43.80153" lon="3.57377">
        <ele>416.87</ele>
        <time>2014-09-07T12:16:47Z</time>
      </trkpt>
      <trkpt lat="43.8014" lon="3.57366">
        <ele>416.87</ele>
        <time>2014-09-07T12:16:59Z</time>
      </trkpt>
      <trkpt lat="43.80131" lon="3.57358">
        <ele>415.43</ele>
        <time>2014-09-07T12:17:09Z</time>
      </trkpt>
      <trkpt lat="43.8013" lon="3.57357">
        <ele>414.47</ele>
        <time>2014-09-07T12:17:10Z</time>
      </trkpt>
      <trkpt lat="43.80123" lon="3.57351">
        <ele>412.54</ele>
        <time>2014-09-07T12:17:21Z</time>
      </trkpt>
      <trkpt lat="43.80127" lon="3.57356">
        <ele>410.14</ele>
        <time>2014-09-07T12:17:29Z</time>
      </trkpt>
      <trkpt lat="43.80129" lon="3.57358">
        <ele>409.18</ele>
        <time>2014-09-07T12:17:31Z</time>
      </trkpt>
      <trkpt lat="43.80133" lon="3.57372">
        <ele>405.81</ele>
        <time>2014-09-07T12:17:41Z</time>
      </trkpt>
      <trkpt lat="43.80135" lon="3.57377">
        <ele>404.85</ele>
        <time>2014-09-07T12:17:44Z</time>
      </trkpt>
      <trkpt lat="43.80136" lon="3.57381">
        <ele>404.37</ele>
        <time>2014-09-07T12:17:47Z</time>
      </trkpt>
      <trkpt lat="43.80138" lon="3.57395">
        <ele>400.53</ele>
        <time>2014-09-07T12:17:57Z</time>
      </trkpt>
      <trkpt lat="43.80137" lon="3.57403">
        <ele>399.08</ele>
        <time>2014-09-07T12:18:02Z</time>
      </trkpt>
      <trkpt lat="43.80134" lon="3.57418">
        <ele>396.2</ele>
        <time>2014-09-07T12:18:12Z</time>
      </trkpt>
      <trkpt lat="43.80131" lon="3.57406">
        <ele>393.32</ele>
        <time>2014-09-07T12:18:22Z</time>
      </trkpt>
      <trkpt lat="43.8013" lon="3.57405">
        <ele>392.84</ele>
        <time>2014-09-07T12:18:31Z</time>
      </trkpt>
      <trkpt lat="43.8012" lon="3.57393">
        <ele>392.84</ele>
        <time>2014-09-07T12:18:40Z</time>
      </trkpt>
      <trkpt lat="43.80111" lon="3.57383">
        <ele>393.8</ele>
        <time>2014-09-07T12:18:50Z</time>
      </trkpt>
      <trkpt lat="43.80107" lon="3.57383">
        <ele>392.36</ele>
        <time>2014-09-07T12:18:59Z</time>
      </trkpt>
      <trkpt lat="43.80113" lon="3.57398">
        <ele>388.99</ele>
        <time>2014-09-07T12:19:12Z</time>
      </trkpt>
      <trkpt lat="43.8011" lon="3.57409">
        <ele>387.07</ele>
        <time>2014-09-07T12:19:22Z</time>
      </trkpt>
      <trkpt lat="43.80105" lon="3.57418">
        <ele>386.11</ele>
        <time>2014-09-07T12:19:35Z</time>
      </trkpt>
      <trkpt lat="43.80104" lon="3.57417">
        <ele>386.11</ele>
        <time>2014-09-07T12:19:37Z</time>
      </trkpt>
      <trkpt lat="43.80098" lon="3.57404">
        <ele>384.66</ele>
        <time>2014-09-07T12:19:48Z</time>
      </trkpt>
      <trkpt lat="43.8009" lon="3.57389">
        <ele>383.7</ele>
        <time>2014-09-07T12:19:58Z</time>
      </trkpt>
      <trkpt lat="43.80081" lon="3.57387">
        <ele>383.22</ele>
        <time>2014-09-07T12:20:08Z</time>
      </trkpt>
      <trkpt lat="43.80085" lon="3.57395">
        <ele>383.22</ele>
        <time>2014-09-07T12:20:16Z</time>
      </trkpt>
      <trkpt lat="43.8009" lon="3.57406">
        <ele>381.78</ele>
        <time>2014-09-07T12:20:25Z</time>
      </trkpt>
      <trkpt lat="43.80089" lon="3.57414">
        <ele>380.34</ele>
        <time>2014-09-07T12:20:36Z</time>
      </trkpt>
      <trkpt lat="43.80088" lon="3.5741">
        <ele>379.86</ele>
        <time>2014-09-07T12:20:41Z</time>
      </trkpt>
      <trkpt lat="43.80081" lon="3.57405">
        <ele>377.94</ele>
        <time>2014-09-07T12:20:52Z</time>
      </trkpt>
      <trkpt lat="43.80083" lon="3.57408">
        <ele>376.97</ele>
        <time>2014-09-07T12:20:57Z</time>
      </trkpt>
      <trkpt lat="43.80084" lon="3.57417">
        <ele>372.65</ele>
        <time>2014-09-07T12:21:08Z</time>
      </trkpt>
      <trkpt lat="43.8008" lon="3.57415">
        <ele>371.21</ele>
        <time>2014-09-07T12:21:13Z</time>
      </trkpt>
      <trkpt lat="43.80078" lon="3.57412">
        <ele>370.24</ele>
        <time>2014-09-07T12:21:16Z</time>
      </trkpt>
      <trkpt lat="43.80074" lon="3.57405">
        <ele>366.88</ele>
        <time>2014-09-07T12:21:27Z</time>
      </trkpt>
      <trkpt lat="43.80075" lon="3.57398">
        <ele>363.52</ele>
        <time>2014-09-07T12:21:37Z</time>
      </trkpt>
      <trkpt lat="43.80073" lon="3.57393">
        <ele>362.55</ele>
        <time>2014-09-07T12:21:42Z</time>
      </trkpt>
      <trkpt lat="43.80068" lon="3.57392">
        <ele>361.11</ele>
        <time>2014-09-07T12:21:47Z</time>
      </trkpt>
      <trkpt lat="43.80061" lon="3.57392">
        <ele>360.15</ele>
        <time>2014-09-07T12:21:52Z</time>
      </trkpt>
      <trkpt lat="43.8005" lon="3.57392">
        <ele>359.67</ele>
        <time>2014-09-07T12:21:57Z</time>
      </trkpt>
      <trkpt lat="43.80043" lon="3.5739">
        <ele>357.75</ele>
        <time>2014-09-07T12:22:03Z</time>
      </trkpt>
      <trkpt lat="43.80039" lon="3.57384">
        <ele>357.27</ele>
        <time>2014-09-07T12:22:08Z</time>
      </trkpt>
      <trkpt lat="43.80034" lon="3.57376">
        <ele>357.75</ele>
        <time>2014-09-07T12:22:17Z</time>
      </trkpt>
      <trkpt lat="43.80035" lon="3.57379">
        <ele>357.27</ele>
        <time>2014-09-07T12:22:20Z</time>
      </trkpt>
      <trkpt lat="43.80041" lon="3.57384">
        <ele>356.31</ele>
        <time>2014-09-07T12:22:27Z</time>
      </trkpt>
      <trkpt lat="43.80042" lon="3.57386">
        <ele>355.83</ele>
        <time>2014-09-07T12:22:29Z</time>
      </trkpt>
      <trkpt lat="43.80046" lon="3.5739">
        <ele>354.38</ele>
        <time>2014-09-07T12:22:36Z</time>
      </trkpt>
      <trkpt lat="43.80054" lon="3.57399">
        <ele>351.5</ele>
        <time>2014-09-07T12:22:47Z</time>
      </trkpt>
      <trkpt lat="43.80059" lon="3.57412">
        <ele>348.13</ele>
        <time>2014-09-07T12:22:58Z</time>
      </trkpt>
      <trkpt lat="43.80067" lon="3.57422">
        <ele>343.81</ele>
        <time>2014-09-07T12:23:12Z</time>
      </trkpt>
      <trkpt lat="43.80077" lon="3.57437">
        <ele>340.92</ele>
        <time>2014-09-07T12:23:25Z</time>
      </trkpt>
      <trkpt lat="43.80079" lon="3.57442">
        <ele>339.96</ele>
        <time>2014-09-07T12:23:28Z</time>
      </trkpt>
      <trkpt lat="43.80086" lon="3.57458">
        <ele>337.56</ele>
        <time>2014-09-07T12:23:40Z</time>
      </trkpt>
      <trkpt lat="43.80091" lon="3.57477">
        <ele>336.6</ele>
        <time>2014-09-07T12:23:50Z</time>
      </trkpt>
      <trkpt lat="43.80097" lon="3.57494">
        <ele>337.56</ele>
        <time>2014-09-07T12:24:01Z</time>
      </trkpt>
      <trkpt lat="43.80102" lon="3.57504">
        <ele>338.52</ele>
        <time>2014-09-07T12:24:10Z</time>
      </trkpt>
      <trkpt lat="43.80108" lon="3.57514">
        <ele>337.56</ele>
        <time>2014-09-07T12:24:21Z</time>
      </trkpt>
      <trkpt lat="43.80109" lon="3.5752">
        <ele>337.56</ele>
        <time>2014-09-07T12:24:28Z</time>
      </trkpt>
      <trkpt lat="43.80105" lon="3.57525">
        <ele>337.56</ele>
        <time>2014-09-07T12:24:37Z</time>
      </trkpt>
      <trkpt lat="43.80109" lon="3.57541">
        <ele>336.6</ele>
        <time>2014-09-07T12:24:49Z</time>
      </trkpt>
      <trkpt lat="43.80114" lon="3.57559">
        <ele>334.68</ele>
        <time>2014-09-07T12:25:02Z</time>
      </trkpt>
      <trkpt lat="43.80117" lon="3.57564">
        <ele>334.2</ele>
        <time>2014-09-07T12:25:06Z</time>
      </trkpt>
      <trkpt lat="43.80121" lon="3.57582">
        <ele>332.75</ele>
        <time>2014-09-07T12:25:18Z</time>
      </trkpt>
      <trkpt lat="43.80126" lon="3.57601">
        <ele>325.06</ele>
        <time>2014-09-07T12:25:32Z</time>
      </trkpt>
      <trkpt lat="43.80131" lon="3.57614">
        <ele>324.1</ele>
        <time>2014-09-07T12:25:41Z</time>
      </trkpt>
      <trkpt lat="43.8013" lon="3.57616">
        <ele>324.58</ele>
        <time>2014-09-07T12:25:43Z</time>
      </trkpt>
      <trkpt lat="43.8013" lon="3.57626">
        <ele>325.06</ele>
        <time>2014-09-07T12:25:54Z</time>
      </trkpt>
      <trkpt lat="43.80133" lon="3.57632">
        <ele>325.54</ele>
        <time>2014-09-07T12:26:04Z</time>
      </trkpt>
      <trkpt lat="43.80129" lon="3.57646">
        <ele>323.62</ele>
        <time>2014-09-07T12:26:15Z</time>
      </trkpt>
      <trkpt lat="43.80126" lon="3.57663">
        <ele>319.78</ele>
        <time>2014-09-07T12:26:27Z</time>
      </trkpt>
      <trkpt lat="43.80126" lon="3.57668">
        <ele>318.81</ele>
        <time>2014-09-07T12:26:31Z</time>
      </trkpt>
      <trkpt lat="43.80125" lon="3.57684">
        <ele>313.53</ele>
        <time>2014-09-07T12:26:42Z</time>
      </trkpt>
      <trkpt lat="43.80121" lon="3.57692">
        <ele>309.68</ele>
        <time>2014-09-07T12:26:52Z</time>
      </trkpt>
      <trkpt lat="43.80114" lon="3.57699">
        <ele>307.28</ele>
        <time>2014-09-07T12:27:00Z</time>
      </trkpt>
      <trkpt lat="43.80114" lon="3.57707">
        <ele>305.84</ele>
        <time>2014-09-07T12:27:09Z</time>
      </trkpt>
      <trkpt lat="43.80112" lon="3.57715">
        <ele>303.91</ele>
        <time>2014-09-07T12:27:17Z</time>
      </trkpt>
      <trkpt lat="43.8011" lon="3.57721">
        <ele>303.43</ele>
        <time>2014-09-07T12:27:23Z</time>
      </trkpt>
      <trkpt lat="43.80106" lon="3.57731">
        <ele>301.51</ele>
        <time>2014-09-07T12:27:33Z</time>
      </trkpt>
      <trkpt lat="43.80107" lon="3.57743">
        <ele>301.99</ele>
        <time>2014-09-07T12:27:40Z</time>
      </trkpt>
      <trkpt lat="43.80111" lon="3.57753">
        <ele>303.91</ele>
        <time>2014-09-07T12:27:51Z</time>
      </trkpt>
      <trkpt lat="43.80116" lon="3.57759">
        <ele>303.43</ele>
        <time>2014-09-07T12:28:01Z</time>
      </trkpt>
      <trkpt lat="43.80119" lon="3.57766">
        <ele>303.43</ele>
        <time>2014-09-07T12:28:10Z</time>
      </trkpt>
      <trkpt lat="43.8012" lon="3.57777">
        <ele>302.47</ele>
        <time>2014-09-07T12:28:20Z</time>
      </trkpt>
      <trkpt lat="43.80121" lon="3.57788">
        <ele>302.47</ele>
        <time>2014-09-07T12:28:26Z</time>
      </trkpt>
      <trkpt lat="43.80122" lon="3.57801">
        <ele>301.99</ele>
        <time>2014-09-07T12:28:35Z</time>
      </trkpt>
      <trkpt lat="43.80126" lon="3.57808">
        <ele>301.03</ele>
        <time>2014-09-07T12:28:44Z</time>
      </trkpt>
      <trkpt lat="43.80131" lon="3.57813">
        <ele>301.03</ele>
        <time>2014-09-07T12:28:54Z</time>
      </trkpt>
      <trkpt lat="43.80134" lon="3.57816">
        <ele>300.55</ele>
        <time>2014-09-07T12:29:06Z</time>
      </trkpt>
      <trkpt lat="43.80144" lon="3.57829">
        <ele>300.07</ele>
        <time>2014-09-07T12:29:17Z</time>
      </trkpt>
      <trkpt lat="43.80148" lon="3.57842">
        <ele>299.11</ele>
        <time>2014-09-07T12:29:27Z</time>
      </trkpt>
      <trkpt lat="43.8015" lon="3.57858">
        <ele>299.11</ele>
        <time>2014-09-07T12:29:37Z</time>
      </trkpt>
      <trkpt lat="43.80155" lon="3.57871">
        <ele>296.7</ele>
        <time>2014-09-07T12:29:47Z</time>
      </trkpt>
      <trkpt lat="43.8016" lon="3.5788">
        <ele>295.74</ele>
        <time>2014-09-07T12:29:56Z</time>
      </trkpt>
      <trkpt lat="43.80165" lon="3.57888">
        <ele>295.26</ele>
        <time>2014-09-07T12:30:03Z</time>
      </trkpt>
      <trkpt lat="43.8017" lon="3.57894">
        <ele>294.78</ele>
        <time>2014-09-07T12:30:08Z</time>
      </trkpt>
      <trkpt lat="43.80176" lon="3.57906">
        <ele>289.49</ele>
        <time>2014-09-07T12:30:20Z</time>
      </trkpt>
      <trkpt lat="43.8018" lon="3.57918">
        <ele>286.13</ele>
        <time>2014-09-07T12:30:30Z</time>
      </trkpt>
      <trkpt lat="43.80178" lon="3.57928">
        <ele>282.77</ele>
        <time>2014-09-07T12:30:37Z</time>
      </trkpt>
      <trkpt lat="43.8019" lon="3.57936">
        <ele>279.88</ele>
        <time>2014-09-07T12:30:48Z</time>
      </trkpt>
      <trkpt lat="43.802" lon="3.57946">
        <ele>277.96</ele>
        <time>2014-09-07T12:30:59Z</time>
      </trkpt>
    </trkseg>
  </trk>
</gpx>